[[{"header":{"parameterUnit":"m.s-1","parameterCategory":1,"la1":31.0,"la2":29.5877,"lo1":-88.7671,"lo2":-86.6584,"dy":0.0162,"dx":0.0185,"nx":115,"ny":88,"refTime":"2023-07-24T06:00:00:Z","depth":0,"parameterNumber":2,"parameterNumberName":"U-component_of_WINDS"},"data":[0.0,0.0,0.0,0.0,0.0,0.0,0.0,0.0,0.0,0.0,0.0,0.0,0.0,0.0,0.0,0.0,0.0,0.0,0.0,0.0,0.0,0.0,0.0,0.0,0.0,0.0,0.0,0.0,0.0,0.0,0.0,0.0,0.0,0.0,0.0,0.0,0.0,0.0,0.0,0.0,0.0,0.0,0.0,0.0,0.0,0.0,0.0,0.0,0.0,0.0,0.0,0.0,0.0,0.0,0.0,0.0,0.0,0.0,0.0,0.0,0.0,0.0,0.0,0.0,0.0,0.0,0.0,0.0,0.0,0.0,0.0,0.0,0.0,0.0,0.0,0.0,0.0,0.0,0.0,0.0,0.0,0.0,0.0,0.0,0.0,0.0,0.0,0.0,0.0,0.0,0.0,0.0,0.0,0.0,0.0,0.0,0.0,0.0,0.0,0.0,0.0,0.0,0.0,0.0,0.0,0.0,0.0,0.0,0.0,0.0,0.0,0.0,0.0,0.0,0.0,0.0,0.0,0.0,0.0,0.0,0.0,0.0,0.0,0.0,0.0,0.0,0.0,0.0,0.0,0.0,0.0,0.0,0.0,0.0,0.0,0.0,0.0,0.0,0.0,0.0,0.0,0.0,0.0,0.0,0.0,0.0,0.0,0.0,0.0,0.0,0.0,0.0,0.0,0.0,0.0,0.0,0.0,0.0,0.0,0.0,0.0,0.0,0.0,0.0,0.0,0.0,0.0,0.0,0.0,0.0,0.0,0.0,0.0,0.0,0.0,0.0,0.0,0.0,0.0,0.0,0.0,0.0,0.0,0.0,0.0,0.0,0.0,0.0,0.0,0.0,0.0,0.0,0.0,0.0,0.0,0.0,0.0,0.0,0.0,0.0,0.0,0.0,0.0,0.0,0.0,0.0,0.0,0.0,0.0,0.0,0.0,0.0,0.0,0.0,0.0,0.0,0.0,0.0,0.0,0.0,0.0,0.0,0.0,0.0,0.0,0.0,0.0,0.0,0.0,0.0,0.0,0.0,0.0,0.0,0.0,0.0,0.0,0.0,0.0,0.0,0.0,0.0,0.0,0.0,0.0,0.0,0.0,0.0,0.0,0.0,0.0,0.0,0.0,0.0,0.0,0.0,0.0,0.0,0.0,0.0,0.0,0.0,0.0,0.0,0.0,0.0,0.0,0.0,0.0,0.0,0.0,0.0,0.0,0.0,0.0,0.0,0.0,0.0,0.0,0.0,0.0,0.0,0.0,0.0,0.0,0.0,0.0,0.0,0.0,0.0,0.0,0.0,0.0,0.0,0.0,0.0,0.0,0.0,0.0,0.0,0.0,0.0,0.0,0.0,0.0,0.0,0.0,0.0,0.0,0.0,0.0,0.0,0.0,0.0,0.0,0.0,0.0,0.0,0.0,0.0,0.0,0.0,0.0,0.0,0.0,0.0,0.0,0.0,0.0,0.0,0.0,0.0,0.0,0.0,0.0,0.0,0.0,0.0,0.0,0.0,0.0,0.0,0.0,0.0,0.0,0.0,0.0,0.0,0.0,0.0,0.0,0.0,0.0,0.0,0.0,0.0,0.0,0.0,0.0,0.0,0.0,0.0,0.0,0.0,0.0,0.0,0.0,0.0,0.0,0.0,0.0,0.0,0.0,0.0,0.0,0.0,0.0,0.0,0.0,0.0,0.0,0.0,0.0,0.0,0.0,0.0,0.0,0.0,0.0,0.0,0.0,0.0,0.0,0.0,0.0,0.0,0.0,0.0,0.0,0.0,0.0,0.0,0.0,0.0,0.0,0.0,0.0,0.0,0.0,0.0,0.0,0.0,0.0,0.0,0.0,0.0,0.0,0.0,0.0,0.0,0.0,0.0,0.0,0.0,0.0,0.0,0.0,0.0,0.0,0.0,0.0,0.0,0.0,0.0,0.0,0.0,0.0,0.0,0.0,0.0,0.0,0.0,0.0,0.0,0.0,0.0,0.0,0.0,0.0,0.0,0.0,0.0,0.0,0.0,0.0,0.0,0.0,0.0,0.0,0.0,0.0,0.0,0.0,0.0,0.0,0.0,0.0,0.0,0.0,0.0,0.0,0.0,0.0,0.0,0.0,0.0,0.0,0.0,0.0,0.0,0.0,0.0,0.0,0.0,0.0,0.0,0.0,0.0,0.0,0.0,0.0,0.0,0.0,0.0,0.0,0.0,0.0,0.0,0.0,0.0,0.0,0.0,0.0,0.0,0.0,0.0,0.0,0.0,0.0,0.0,0.0,0.0,0.0,0.0,0.0,0.0,0.0,0.0,0.0,0.0,0.0,0.0,0.0,0.0,0.0,0.0,0.0,0.0,0.0,0.0,0.0,0.0,0.0,0.0,0.0,0.0,0.0,0.0,0.0,0.0,0.0,0.0,0.0,0.0,0.0,0.0,0.0,0.0,0.0,0.0,0.0,0.0,0.0,0.0,0.0,0.0,0.0,0.0,0.0,0.0,0.0,0.0,0.0,0.0,0.0,0.0,0.0,0.0,0.0,0.0,0.0,0.0,0.0,0.0,0.0,0.0,0.0,0.0,0.0,0.0,0.0,0.0,0.0,0.0,0.0,0.0,0.0,0.0,0.0,0.0,0.0,0.0,0.0,0.0,0.0,0.0,0.0,0.0,0.0,0.0,0.0,0.0,0.0,0.0,0.0,0.0,0.0,0.0,0.0,0.0,0.0,0.0,0.0,0.0,0.0,0.0,0.0,0.0,0.0,0.0,0.0,0.0,0.0,0.0,0.0,0.0,0.0,0.0,0.0,0.0,0.0,0.0,0.0,0.0,0.0,0.0,0.0,0.0,0.0,0.0,0.0,0.0,0.0,0.0,0.0,0.0,0.0,0.0,0.0,0.0,0.0,0.0,0.0,0.0,0.0,0.0,0.0,0.0,0.0,0.0,0.0,0.0,0.0,0.0,0.0,0.0,0.0,0.0,0.0,0.0,0.0,0.0,0.0,0.0,0.0,0.0,0.0,0.0,0.0,0.0,0.0,0.0,0.0,0.0,0.0,0.0,0.0,0.0,0.0,0.0,0.0,0.0,0.0,0.0,0.0,0.0,0.0,0.0,0.0,0.0,0.0,0.0,0.0,0.0,0.0,0.0,0.0,0.0,0.0,0.0,0.0,0.0,0.0,0.0,0.0,0.0,0.0,0.0,0.0,0.0,0.0,0.0,0.0,0.0,0.0,0.0,0.0,0.0,0.0,0.0,0.0,0.0,0.0,0.0,0.0,0.0,0.0,0.0,0.0,0.0,0.0,0.0,0.0,0.0,0.0,0.0,0.0,0.0,0.0,0.0,0.0,0.0,0.0,0.0,0.0,0.0,0.0,0.0,0.0,0.0,0.0,0.0,0.0,0.0,0.0,0.0,0.0,0.0,0.0,0.0,0.0,0.0,0.0,0.0,0.0,0.0,0.0,0.0,0.0,0.0,0.0,0.0,0.0,0.0,0.0,0.0,0.0,0.0,0.0,0.0,0.0,0.0,0.0,0.0,0.0,0.0,0.0,0.0,0.0,0.0,0.0,0.0,0.0,0.0,0.0,0.0,0.0,0.0,0.0,0.0,0.0,0.0,0.0,0.0,0.0,0.0,0.0,0.0,0.0,0.0,0.0,0.0,0.0,0.0,0.0,0.0,0.0,0.0,0.0,0.0,0.0,0.0,0.0,0.0,0.0,0.0,0.0,0.0,0.0,0.0,0.0,0.0,0.0,0.0,0.0,0.0,0.0,0.0,0.0,0.0,0.0,0.0,0.0,0.0,0.0,0.0,0.0,0.0,0.0,0.0,0.0,0.0,0.0,0.0,0.0,0.0,0.0,0.0,0.0,0.0,0.0,0.0,0.0,0.0,0.0,0.0,0.0,0.0,0.0,0.0,0.0,0.0,0.0,0.0,0.0,0.0,0.0,0.0,0.0,0.0,0.0,0.0,0.0,0.0,0.0,0.0,0.0,0.0,0.0,0.0,0.0,0.0,0.0,0.0,0.0,0.0,0.0,0.0,0.0,0.0,0.0,0.0,0.0,0.0,0.0,0.0,0.0,0.0,0.0,0.0,0.0,0.0,0.0,0.0,0.0,0.0,0.0,0.0,0.0,0.0,0.0,0.0,0.0,0.0,0.0,0.0,0.0,0.0,0.0,0.0,0.0,0.0,0.0,0.0,0.0,0.0,0.0,0.0,0.0,0.0,0.0,0.0,0.0,0.0,0.0,0.0,0.0,0.0,0.0,0.0,0.0,0.0,0.0,0.0,0.0,0.0,0.9385,0.0,0.0,0.0,0.0,0.0,0.0,0.0,0.0,0.0,0.0,0.0,0.0,0.0,0.0,0.0,0.0,0.0,0.0,0.0,0.0,0.0,0.0,0.0,0.0,0.0,0.0,0.0,0.0,0.0,0.0,0.0,0.0,0.0,0.0,0.0,0.0,0.0,0.0,0.0,0.0,0.0,0.0,0.0,0.0,0.0,0.0,0.0,0.0,0.0,0.0,0.0,0.0,0.0,0.0,0.0,0.0,0.0,0.0,0.0,0.0,0.0,0.0,0.0,0.0,0.0,0.0,0.0,0.0,0.0,0.0,0.0,0.0,0.0,0.0,0.0,0.0,0.0,0.0,0.0,0.0,0.0,0.0,0.0,0.0,0.0,0.0,0.0,0.0,0.0,0.0,0.0,0.0,0.0,0.0,0.0,0.0,0.0,0.0,0.0,0.0,0.0,0.0,0.0,0.0,0.0,0.0,0.0,0.0,0.0,0.0,0.9457,0.9466,0.9466,0.9457,0.9456,0.0,0.0,0.0,0.0,0.0,0.0,0.0,0.0,0.0,0.0,0.0,0.0,0.0,0.0,0.0,0.0,0.0,0.0,0.0,0.0,0.0,0.0,0.0,0.0,0.0,0.0,0.0,0.0,0.0,0.0,0.0,0.0,0.0,0.0,0.0,0.0,0.0,0.0,0.0,0.0,0.0,0.0,0.0,0.0,0.0,0.0,0.0,0.0,0.0,0.0,0.0,0.0,0.0,0.0,0.0,0.0,0.0,0.0,0.0,0.0,0.0,0.0,0.0,0.0,0.0,0.0,0.0,0.0,0.0,0.0,0.0,0.0,0.0,0.0,0.0,0.0,0.0,0.0,0.0,0.0,0.0,0.0,0.0,0.0,0.0,0.0,0.0,0.0,0.0,0.0,0.0,0.0,0.0,0.0,0.0,0.0,0.0,0.0,0.0,0.0,0.0,0.0,0.0,0.0,0.0,0.0,0.0,0.0,0.0,0.0,0.0,0.0,0.9518,0.9536,0.9542,0.0,0.0,0.0,0.0,0.0,0.0,0.0,0.0,0.0,0.0,0.0,0.0,0.0,0.0,0.0,0.0,0.0,0.0,0.0,0.0,0.0,0.0,0.0,0.0,0.0,0.0,0.0,0.0,0.0,0.0,0.0,0.0,0.0,0.0,0.0,0.0,0.0,0.0,0.0,0.0,0.0,0.0,0.0,0.0,0.0,0.0,0.0,0.0,0.0,0.0,0.0,0.0,0.0,0.0,0.0,0.0,0.0,0.0,0.0,0.0,0.0,0.0,0.0,0.0,0.0,0.0,0.0,0.0,0.0,0.0,0.0,0.0,0.0,0.0,0.0,0.0,0.0,0.0,0.0,0.0,0.0,0.0,0.0,0.0,0.0,0.0,0.0,0.0,0.0,0.0,0.0,0.0,0.0,0.0,0.0,0.0,0.0,0.0,0.0,0.0,0.0,0.0,0.0,0.0,0.0,0.0,0.0,0.0,0.0,0.0,0.9534,0.9584,0.9593,0.0,0.9674,0.0,0.0,0.0,0.0,0.0,0.0,0.0,0.0,0.0,0.0,0.0,0.0,0.0,0.0,0.0,0.0,0.0,0.0,0.0,0.0,0.0,0.0,0.0,0.0,0.0,0.0,0.0,0.0,0.0,0.0,0.0,0.0,0.0,0.0,0.0,0.0,0.0,0.0,0.0,0.0,0.0,0.0,0.0,0.0,0.0,0.0,0.0,0.0,0.0,0.0,0.0,0.0,0.0,0.0,0.0,0.0,0.0,0.0,0.0,0.0,0.0,0.0,0.0,0.0,0.0,0.0,0.0,0.0,0.0,0.0,0.0,0.0,0.0,0.0,0.0,0.0,0.0,0.0,0.0,0.0,0.0,0.0,0.0,0.0,0.0,0.0,0.0,0.0,0.0,0.0,0.0,0.0,0.0,0.0,0.0,0.0,0.0,0.0,0.0,0.0,0.0,0.0,0.0,0.0,0.0,0.0,0.0,0.0,0.0,0.0,0.9638,0.9658,0.9669,0.9677,0.0,0.0,0.0,0.0,0.0,0.0,0.0,0.0,0.0,0.0,0.0,0.0,0.0,0.0,0.0,0.0,0.0,0.0,0.0,0.0,0.0,0.0,0.0,0.0,0.0,0.0,0.0,0.0,0.0,0.0,0.0,0.0,0.0,0.0,0.0,0.0,0.0,0.0,0.0,0.0,0.0,0.0,0.0,0.0,0.0,0.0,0.0,0.0,0.0,0.0,0.0,0.0,0.0,0.0,0.0,0.0,0.0,0.0,0.0,0.0,0.0,0.0,0.0,0.0,0.0,0.0,0.0,0.0,0.0,0.0,0.0,0.0,0.0,0.0,0.0,0.0,0.0,0.0,0.0,0.0,0.0,0.0,0.0,0.0,0.0,0.0,0.0,0.0,0.0,0.0,0.0,0.0,0.0,0.0,0.0,0.0,0.0,0.0,0.0,0.0,0.0,0.0,0.0,0.0,0.0,0.0,0.0,0.0,0.0,0.0,0.9655,0.9682,0.9728,0.9733,0.9735,0.9732,0.0,0.0,0.0,0.0,0.0,0.0,0.0,0.0,0.0,0.0,0.0,0.0,0.0,0.0,0.0,0.0,0.0,0.0,0.0,0.0,0.0,0.0,0.0,0.0,0.0,0.0,0.0,0.0,0.0,0.0,0.0,0.0,0.0,0.0,0.0,0.0,0.0,0.0,0.0,0.0,0.0,0.0,0.0,0.0,0.0,0.0,0.0,0.0,0.0,0.0,0.0,0.0,0.0,0.0,0.0,0.0,0.0,0.0,0.0,0.0,0.0,0.0,0.0,0.0,0.0,0.0,0.0,0.0,0.0,0.0,0.0,0.0,0.0,0.0,0.0,0.0,0.0,0.0,0.0,0.0,0.0,0.0,0.0,0.0,0.0,0.0,0.0,0.0,0.0,0.0,0.0,0.0,0.0,0.0,0.0,0.0,0.0,0.0,0.0,0.0,0.0,0.0,0.0,0.0,0.0,0.0,0.0,0.0,0.9691,0.9638,0.9671,0.9791,0.9798,0.9796,0.0,0.0,0.0,0.0,0.0,0.0,0.0,0.0,0.0,0.0,0.0,0.0,0.0,0.0,0.0,0.0,0.0,0.0,0.0,0.0,0.0,0.0,0.0,0.0,0.0,0.0,0.0,0.0,0.0,0.0,0.0,0.0,0.0,0.0,0.0,0.0,0.0,0.0,0.0,0.0,0.0,0.0,0.0,0.0,0.0,0.0,0.0,0.0,0.0,0.0,0.0,0.0,0.0,0.0,0.0,0.0,0.0,0.0,0.0,0.0,0.0,0.0,0.0,0.0,0.0,0.0,0.0,0.0,0.0,0.0,0.0,0.0,0.0,0.0,0.0,0.0,0.0,0.0,0.0,0.0,0.0,0.0,0.0,0.0,0.0,0.0,0.0,0.0,0.0,0.0,0.0,0.0,0.0,0.0,0.0,0.0,0.0,0.0,0.0,0.0,0.0,0.0,0.0,0.0,0.0,0.0,0.0,0.0,0.0,0.9699,0.9771,0.9818,0.9863,0.9833,0.9796,0.0,0.0,0.0,0.0,0.0,0.0,0.0,0.0,0.0,0.0,0.0,0.0,0.0,0.0,0.0,0.0,0.0,0.0,0.0,0.0,0.0,0.0,0.0,0.0,0.0,0.0,0.0,0.0,0.0,0.0,0.0,0.0,0.0,0.0,0.0,0.0,0.0,0.0,0.0,0.0,0.0,0.0,0.0,0.0,0.0,0.0,0.0,0.0,0.0,0.0,0.0,0.0,0.0,0.0,0.0,0.0,0.0,0.0,0.0,0.0,0.0,0.0,0.0,0.0,0.0,0.0,0.0,0.0,0.0,0.0,0.0,0.0,0.0,0.0,0.0,0.0,0.0,0.0,0.0,0.0,0.0,0.0,0.0,0.0,0.0,0.0,0.0,0.0,0.0,0.0,0.0,0.0,0.0,0.0,0.0,0.0,0.0,0.0,0.0,0.0,0.0,0.0,0.0,0.0,0.0,0.0,0.0,0.0,0.0,0.9752,0.0,0.9888,0.9866,0.9853,0.9828,0.0,0.0,0.0,0.0,0.0,0.0,0.0,0.0,0.0,0.0,0.0,0.0,0.0,0.0,0.0,0.0,0.0,0.0,0.0,0.0,0.0,0.0,0.0,0.0,0.0,0.0,0.0,0.0,0.0,0.0,0.0,0.0,0.0,0.0,0.0,0.0,0.0,0.0,0.0,0.0,0.0,0.0,0.0,0.0,0.0,0.0,0.0,0.0,0.0,0.0,0.0,0.0,0.0,0.0,0.0,0.0,0.0,0.0,0.0,0.0,0.0,0.0,0.0,0.0,0.0,0.0,0.0,0.0,0.0,0.0,0.0,0.0,0.0,0.0,0.0,0.0,0.0,0.0,0.0,0.0,0.0,0.0,0.0,0.0,0.0,0.0,0.0,0.0,0.0,0.0,0.0,0.0,0.0,0.0,0.0,0.0,0.0,0.0,0.0,0.0,0.0,0.0,0.0,0.0,0.0,0.0,0.0,0.0,1.0555,0.9854,0.9882,0.9875,0.9823,0.9875,0.9865,0.0,0.0,0.0,0.0,0.0,0.0,0.0,0.0,0.0,0.0,0.0,0.0,0.0,0.0,0.0,0.0,0.0,0.0,0.0,0.0,0.0,0.0,0.0,0.0,0.0,0.0,0.0,0.0,0.0,0.0,0.0,0.0,0.0,0.0,0.0,0.0,0.0,0.0,0.0,0.0,0.0,0.0,0.0,0.0,0.0,0.0,0.0,0.0,0.0,0.0,0.0,0.0,0.0,0.0,0.0,0.0,0.0,0.0,0.0,0.0,0.0,0.0,0.0,0.0,0.0,0.0,0.0,0.0,0.0,0.0,0.0,0.0,0.0,0.0,0.0,0.0,0.0,0.0,0.0,0.0,0.0,0.0,0.0,0.0,0.0,0.0,0.0,0.0,0.0,0.0,0.0,0.0,0.0,0.0,0.0,0.0,0.0,0.0,0.0,0.0,0.0,0.0,0.0,0.0,0.0,0.0,0.0,0.0,0.0,1.0724,1.0172,1.0192,1.0718,1.0154,1.0101,0.0,0.0,0.0,0.0,0.0,0.0,0.0,0.0,0.0,0.0,0.0,0.0,0.0,0.0,0.0,0.0,0.0,0.0,0.0,0.0,0.0,0.0,0.0,0.0,0.0,0.0,0.0,0.0,0.0,0.0,0.0,0.0,0.0,0.0,0.0,0.0,0.0,0.0,0.0,0.0,0.0,0.0,0.0,0.0,0.0,0.0,0.0,0.0,0.0,0.0,0.0,0.0,0.0,0.0,0.0,0.0,0.0,0.0,0.0,0.0,0.0,0.0,0.0,0.0,0.0,0.0,0.0,0.0,0.0,0.0,0.0,0.0,0.0,0.0,0.0,0.0,0.0,0.0,0.0,0.0,0.0,0.0,0.0,0.0,0.0,0.0,0.0,0.0,0.0,0.0,0.0,0.0,0.0,0.0,0.0,0.0,0.0,0.0,0.0,0.0,0.0,0.0,0.0,0.0,0.0,0.0,0.0,0.0,0.0,1.2053,1.1297,1.097,1.12,1.0606,1.0399,1.0593,0.0,0.0,0.0,0.0,0.0,0.0,0.0,0.0,0.0,0.0,0.0,0.0,0.0,0.0,0.0,0.0,0.0,0.0,0.0,0.0,0.0,0.0,0.0,0.0,0.0,0.0,0.0,0.0,0.0,0.0,0.0,0.0,0.0,0.0,0.0,0.0,0.0,0.0,0.0,0.0,0.0,0.0,0.0,0.0,0.0,0.0,0.0,0.0,0.0,0.0,0.0,0.0,0.0,0.0,0.0,0.0,0.0,0.0,0.0,0.0,0.0,0.0,0.0,0.0,0.0,0.0,0.0,0.0,0.0,0.0,0.0,0.0,0.0,0.0,0.0,0.0,0.0,0.0,0.0,0.0,0.0,0.0,0.0,0.0,0.0,0.0,0.0,0.0,0.0,0.0,0.0,0.0,0.0,0.0,0.0,0.0,0.0,0.0,0.0,0.0,0.0,0.0,0.0,0.0,0.0,0.0,0.0,0.0,1.377,1.3031,1.2234,1.1405,1.1253,1.0801,0.0,0.0,0.0,0.0,0.0,0.0,0.0,0.0,0.0,0.0,0.0,0.0,0.0,0.0,0.0,0.0,0.0,0.0,0.0,0.0,0.0,0.0,0.0,0.0,0.0,0.0,0.0,0.0,0.0,0.0,0.0,0.0,0.0,0.0,0.0,0.0,0.0,0.0,0.0,0.0,0.0,0.0,0.0,0.0,0.0,0.0,0.0,0.0,0.0,0.0,0.0,0.0,0.0,0.0,0.0,0.0,0.0,0.0,0.0,0.0,0.0,0.0,0.0,0.0,0.0,0.0,0.0,0.0,0.0,0.0,0.0,0.0,0.0,0.0,0.0,0.0,0.0,0.0,0.0,0.0,0.0,0.0,0.0,0.0,0.0,0.0,0.0,0.0,0.0,0.0,0.0,0.0,0.0,0.0,0.0,0.0,0.0,0.0,0.0,0.0,0.0,0.0,0.0,0.0,0.0,0.0,0.0,0.0,0.0,1.4702,1.4526,1.4,1.3154,1.2441,1.226,0.0,0.0,0.0,0.0,0.0,0.0,0.0,0.0,0.0,0.0,0.0,0.0,0.0,0.0,0.0,0.0,0.0,0.0,0.0,0.0,0.0,0.0,0.0,0.0,0.0,0.0,0.0,0.0,0.0,0.0,0.0,0.0,0.0,0.0,0.0,0.0,0.0,0.0,0.0,0.0,0.0,0.0,0.0,0.0,0.0,0.0,0.0,0.0,0.0,0.0,0.0,0.0,0.0,0.0,0.0,0.0,0.0,0.0,0.0,0.0,0.0,0.0,0.0,0.0,0.0,0.0,0.0,0.0,0.0,0.0,0.0,0.0,0.0,0.0,0.0,0.0,0.0,0.0,0.0,0.0,0.0,0.0,0.0,0.0,0.0,0.0,0.0,0.0,0.0,0.0,0.0,0.0,0.0,0.0,0.0,0.0,0.0,0.0,0.0,0.0,0.0,0.0,0.0,0.0,0.0,0.0,0.0,0.0,1.472,1.509,1.5136,1.4899,1.4408,1.3478,1.3033,0.0,0.0,0.0,0.0,0.0,0.0,0.0,0.0,0.0,0.0,0.0,0.0,0.0,0.0,0.0,0.0,0.0,0.0,0.0,0.0,0.0,0.0,0.0,0.0,0.0,0.0,0.0,0.0,0.0,0.0,0.0,0.0,0.0,0.0,0.0,0.0,0.0,0.0,0.0,0.0,0.0,0.0,0.0,0.0,0.0,0.0,0.0,0.0,0.0,0.0,0.0,0.0,0.0,0.0,0.0,0.0,0.0,0.0,0.0,0.0,0.0,0.0,0.0,0.0,0.0,0.0,0.0,0.0,0.0,0.0,0.0,0.0,0.0,0.0,0.0,0.0,0.0,0.0,0.0,0.0,0.0,0.0,0.0,0.0,0.0,0.0,0.0,0.0,0.0,0.0,0.0,0.0,0.0,0.0,0.0,0.0,0.0,0.0,0.0,0.0,0.0,0.0,0.0,0.0,0.0,0.0,0.0,0.0,1.4382,1.5085,1.5168,1.5196,1.5175,1.4366,1.3532,0.0,0.0,0.0,0.0,0.0,0.0,0.0,0.0,0.0,0.0,0.0,0.0,0.0,0.0,0.0,0.0,0.0,0.0,0.0,0.0,0.0,0.0,0.0,0.0,0.0,0.0,0.0,0.0,0.0,0.0,0.0,0.0,0.0,0.0,0.0,0.0,0.0,0.0,0.0,0.0,0.0,0.0,0.0,0.0,0.0,0.0,0.0,0.0,0.0,0.0,0.0,0.0,0.0,0.0,0.0,0.0,0.0,0.0,0.0,0.0,0.0,0.0,0.0,0.0,0.0,0.0,0.0,0.0,0.0,0.0,0.0,0.0,0.0,0.0,0.0,0.0,0.0,0.0,0.0,0.0,0.0,0.0,0.0,0.0,0.0,0.0,0.0,0.0,0.0,0.0,0.0,0.0,0.0,0.0,0.0,0.0,0.0,0.0,0.0,0.0,0.0,0.0,0.0,0.0,0.0,0.0,0.0,0.0,1.4993,1.5155,1.5196,1.5201,1.5201,1.4948,1.4716,0.0,0.0,0.0,0.0,0.0,0.0,0.0,0.0,0.0,0.0,0.0,0.0,0.0,0.0,0.0,0.0,0.0,0.0,0.0,0.0,0.0,0.0,0.0,0.0,0.0,0.0,0.0,0.0,0.0,0.0,0.0,0.0,0.0,0.0,0.0,0.0,0.0,0.0,0.0,0.0,0.0,0.0,0.0,0.0,0.0,0.0,0.0,0.0,1.6337,0.0,0.0,0.0,0.0,0.0,0.0,0.0,0.0,0.0,0.0,0.0,0.0,0.0,0.0,0.0,0.0,0.0,0.0,0.0,0.0,0.0,0.0,0.0,0.0,0.0,0.0,0.0,0.0,0.0,0.0,0.0,0.0,0.0,0.0,0.0,0.0,0.0,0.0,0.0,0.0,0.0,0.0,0.0,0.0,0.0,0.0,0.0,0.0,0.0,0.0,0.0,0.0,0.0,0.0,0.0,0.0,0.0,0.0,0.0,1.5197,1.5196,1.5226,1.5226,1.5201,1.5168,1.4929,0.0,0.0,0.0,0.0,0.0,0.0,0.0,0.0,0.0,0.0,0.0,0.0,0.0,0.0,0.0,0.0,0.0,0.0,0.0,0.0,0.0,0.0,0.0,0.0,0.0,0.0,0.0,0.0,0.0,0.0,0.0,0.0,0.0,0.0,0.0,0.0,0.0,0.0,0.0,0.0,0.0,0.0,0.0,0.0,0.0,0.0,0.0,0.0,0.0,0.0,0.0,0.0,0.0,0.0,0.0,0.0,0.0,0.0,0.0,0.0,0.0,0.0,0.0,0.0,0.0,0.0,0.0,0.0,0.0,0.0,0.0,0.0,0.0,0.0,0.0,0.0,0.0,0.0,0.0,0.0,0.0,0.0,0.0,0.0,0.0,0.0,0.0,0.0,0.0,0.0,0.0,0.0,0.0,0.0,0.0,0.0,0.0,0.0,0.0,0.0,0.0,0.0,0.0,0.0,0.0,0.0,0.0,1.5171,1.5203,1.5211,1.5279,1.5265,1.5206,1.5195,1.4753,1.3838,0.0,0.0,0.0,0.0,0.0,0.0,0.0,0.0,0.0,0.0,0.0,0.0,0.0,0.0,0.0,0.0,0.0,0.0,0.0,0.0,0.0,0.0,0.0,0.0,0.0,0.0,0.0,0.0,0.0,0.0,0.0,0.0,0.0,0.0,0.0,0.0,0.0,0.0,1.541,1.6044,0.0,0.0,0.0,0.0,0.0,0.0,0.0,0.0,1.6166,0.0,0.0,0.0,0.0,0.0,0.0,0.0,0.0,0.0,0.0,0.0,0.0,0.0,0.0,0.0,0.0,0.0,0.0,0.0,0.0,0.0,0.0,0.0,0.0,0.0,0.0,0.0,0.0,0.0,0.0,0.0,0.0,0.0,0.0,0.0,0.0,0.0,0.0,0.0,0.0,0.0,0.0,0.0,0.0,0.0,0.0,0.0,0.0,0.0,0.0,0.0,0.0,0.0,0.0,0.0,0.0,1.5149,1.5197,1.5231,1.5278,1.5289,1.5294,1.5284,1.5183,1.4708,1.3857,0.0,0.0,0.0,0.0,0.0,0.0,0.0,0.0,0.0,0.0,0.0,0.0,0.0,0.0,0.0,0.0,0.0,0.0,0.0,0.0,0.0,0.0,0.0,0.0,0.0,0.0,0.0,0.0,0.0,0.0,0.0,0.0,0.0,0.0,0.0,0.0,0.0,0.0,0.0,1.5519,1.5883,0.0,0.0,0.0,0.0,0.0,0.0,0.0,0.0,1.6785,0.0,0.0,0.0,0.0,0.0,0.0,0.0,0.0,0.0,0.0,0.0,0.0,0.0,0.0,0.0,0.0,0.0,0.0,0.0,0.0,0.0,0.0,0.0,0.0,0.0,0.0,0.0,0.0,0.0,0.0,0.0,0.0,0.0,0.0,0.0,0.0,0.0,0.0,0.0,0.0,0.0,0.0,0.0,0.0,0.0,0.0,0.0,0.0,0.0,0.0,0.0,0.0,0.0,0.0,0.0,1.5103,1.5199,1.5231,1.5294,1.5289,1.5289,1.5251,1.5193,1.4721,0.0,0.0,0.0,0.0,0.0,0.0,0.0,0.0,0.0,0.0,0.0,0.0,0.0,0.0,0.0,0.0,0.0,0.0,0.0,0.0,0.0,0.0,0.0,0.0,0.0,0.0,0.0,0.0,0.0,0.0,0.0,0.0,0.0,0.0,0.0,0.0,0.0,0.0,0.0,0.0,1.6471,1.7063,1.7926,0.0,0.0,0.0,0.0,0.0,0.0,1.6985,1.6841,0.0,0.0,0.0,0.0,0.0,0.0,0.0,0.0,0.0,0.0,0.0,0.0,0.0,0.0,0.0,0.0,0.0,0.0,0.0,0.0,0.0,0.0,0.0,0.0,0.0,0.0,0.0,0.0,0.0,0.0,0.0,0.0,0.0,0.0,0.0,0.0,0.0,0.0,0.0,0.0,0.0,0.0,0.0,0.0,0.0,0.0,0.0,0.0,0.0,0.0,0.0,0.0,0.0,0.0,0.0,1.5134,1.52,1.5231,1.5294,1.5289,1.5274,1.5231,1.5164,1.4816,0.0,0.0,0.0,0.0,0.0,0.0,0.0,0.0,0.0,0.0,0.0,0.0,0.0,0.0,0.0,0.0,0.0,0.0,0.0,0.0,0.0,0.0,0.0,0.0,0.0,0.0,0.0,0.0,0.0,0.0,0.0,0.0,0.0,0.0,0.0,0.0,0.0,0.0,0.0,0.0,0.0,1.8264,1.8931,1.8291,0.0,0.0,0.0,0.0,1.6952,1.7114,0.0,0.0,0.0,0.0,0.0,0.0,0.0,0.0,0.0,0.0,0.0,0.0,0.0,0.0,0.0,0.0,0.0,0.0,0.0,0.0,0.0,0.0,0.0,0.0,0.0,0.0,0.0,0.0,0.0,0.0,0.0,0.0,0.0,0.0,0.0,0.0,0.0,0.0,0.0,0.0,0.0,0.0,0.0,0.0,0.0,0.0,0.0,0.0,0.0,0.0,0.0,0.0,0.0,0.0,0.0,0.0,1.5118,1.5196,1.5231,1.5293,1.5294,1.5294,1.5289,1.5108,1.4987,0.0,0.0,0.0,0.0,0.0,0.0,0.0,0.0,0.0,0.0,0.0,0.0,0.0,0.0,0.0,0.0,0.0,0.0,0.0,0.0,0.0,0.0,0.0,0.0,0.0,0.0,0.0,0.0,0.0,0.0,0.0,0.0,0.0,0.0,0.0,0.0,0.0,0.0,0.0,0.0,0.0,1.8036,1.8133,1.7412,1.6845,0.0,0.0,1.7859,1.7849,1.8492,0.0,0.0,0.0,0.0,0.0,0.0,0.0,0.0,0.0,0.0,0.0,0.0,0.0,0.0,0.0,0.0,0.0,0.0,0.0,0.0,0.0,0.0,0.0,0.0,0.0,0.0,0.0,0.0,0.0,0.0,0.0,0.0,0.0,0.0,0.0,0.0,0.0,0.0,0.0,0.0,0.0,0.0,0.0,0.0,0.0,0.0,0.0,0.0,0.0,0.0,0.0,0.0,0.0,0.0,0.0,1.399,1.5148,1.5226,1.5255,1.5289,1.5289,1.5294,1.5289,1.5141,1.5073,0.0,0.0,0.0,0.0,0.0,0.0,0.0,0.0,0.0,0.0,0.0,0.0,0.0,0.0,0.0,0.0,0.0,0.0,0.0,0.0,0.0,0.0,0.0,0.0,0.0,0.0,0.0,0.0,0.0,0.0,0.0,0.0,0.0,0.0,0.0,0.0,0.0,0.0,0.0,0.0,0.0,0.0,1.9285,1.8291,0.0,0.0,0.0,1.7822,1.7332,0.0,0.0,0.0,0.0,0.0,0.0,0.0,0.0,0.0,0.0,0.0,0.0,0.0,0.0,0.0,0.0,0.0,0.0,0.0,0.0,0.0,0.0,0.0,0.0,0.0,0.0,0.0,0.0,0.0,0.0,0.0,0.0,0.0,0.0,0.0,0.0,0.0,0.0,0.0,0.0,0.0,0.0,0.0,0.0,0.0,0.0,0.0,0.0,0.0,0.0,0.0,0.0,0.0,0.0,0.0,0.0,0.0,1.5206,1.5279,1.5289,1.5284,1.5289,1.5289,1.5289,1.518,0.0,0.0,0.0,0.0,0.0,0.0,0.0,0.0,0.0,0.0,0.0,0.0,0.0,0.0,0.0,0.0,0.0,0.0,0.0,0.0,0.0,0.0,0.0,0.0,0.0,0.0,0.0,1.5412,0.0,0.0,0.0,0.0,0.0,0.0,0.0,0.0,0.0,0.0,0.0,0.0,0.0,0.0,1.9078,2.0318,1.9258,1.8329,0.0,0.0,1.8096,1.7449,1.8625,1.9044,0.0,0.0,0.0,0.0,0.0,0.0,0.0,0.0,0.0,0.0,0.0,0.0,0.0,0.0,0.0,0.0,0.0,0.0,0.0,0.0,0.0,0.0,0.0,0.0,0.0,0.0,0.0,0.0,0.0,0.0,0.0,0.0,0.0,0.0,0.0,0.0,0.0,0.0,0.0,0.0,0.0,0.0,0.0,0.0,0.0,0.0,0.0,0.0,0.0,0.0,0.0,0.0,0.0,0.0,0.0,1.5251,1.5293,1.5292,1.5284,1.5293,1.5284,1.5289,1.5228,1.5199,0.0,0.0,0.0,0.0,0.0,0.0,0.0,0.0,0.0,0.0,0.0,0.0,0.0,0.0,0.0,0.0,0.0,0.0,0.0,0.0,0.0,0.0,0.0,0.0,0.0,0.0,0.0,0.0,0.0,0.0,0.0,0.0,0.0,0.0,0.0,0.0,0.0,0.0,0.0,0.0,0.0,2.0373,2.0496,1.9769,1.9209,0.0,0.0,1.918,1.9128,1.9885,1.9913,1.8181,0.0,0.0,0.0,0.0,0.0,0.0,0.0,0.0,0.0,0.0,0.0,0.0,0.0,0.0,0.0,0.0,0.0,0.0,0.0,0.0,0.0,0.0,0.0,0.0,0.0,0.0,0.0,0.0,0.0,0.0,0.0,0.0,0.0,0.0,0.0,0.0,0.0,0.0,0.0,0.0,0.0,0.0,0.0,0.0,0.0,0.0,0.0,0.0,0.0,0.0,0.0,0.0,0.0,1.4912,1.5231,1.5289,1.5293,1.5284,1.5289,1.5284,1.5284,1.5226,1.5197,0.0,0.0,0.0,0.0,0.0,0.0,0.0,0.0,0.0,0.0,0.0,0.0,0.0,0.0,0.0,0.0,0.0,0.0,0.0,0.0,0.0,0.0,0.0,0.0,0.0,0.0,0.0,0.0,1.5415,1.5407,1.5413,0.0,0.0,0.0,0.0,0.0,0.0,0.0,0.0,0.0,0.0,1.994,2.0414,1.9811,0.0,0.0,1.9287,1.9285,1.9287,1.9588,1.9389,1.8191,1.7549,0.0,0.0,0.0,0.0,0.0,0.0,0.0,0.0,0.0,0.0,0.0,0.0,0.0,0.0,0.0,0.0,0.0,0.0,0.0,0.0,0.0,0.0,0.0,0.0,0.0,0.0,0.0,0.0,0.0,0.0,0.0,0.0,0.0,0.0,0.0,0.0,0.0,0.0,0.0,0.0,0.0,0.0,0.0,0.0,0.0,0.0,0.0,0.0,0.0,0.0,0.0,0.0,1.5226,1.5235,1.5279,1.5293,1.5284,1.5289,1.5293,1.5284,1.526,1.5226,0.0,0.0,0.0,0.0,0.0,0.0,0.0,0.0,0.0,0.0,0.0,0.0,0.0,0.0,0.0,0.0,0.0,0.0,0.0,0.0,0.0,0.0,0.0,0.0,0.0,0.0,0.0,0.0,1.5408,1.5409,1.541,0.0,0.0,0.0,0.0,0.0,0.0,0.0,0.0,0.0,0.0,1.9846,2.0411,2.0002,1.9657,1.9659,1.9667,1.9648,1.9657,1.9404,1.8992,1.8475,0.0,0.0,0.0,0.0,0.0,0.0,0.0,0.0,0.0,0.0,0.0,0.0,0.0,0.0,0.0,0.0,0.0,0.0,0.0,0.0,0.0,0.0,0.0,0.0,0.0,0.0,0.0,0.0,0.0,0.0,0.9796,0.0,0.0,0.0,0.0,0.0,0.0,0.0,0.0,0.0,0.0,0.0,0.0,0.0,0.0,0.0,0.0,0.0,0.0,0.0,0.0,0.0,0.0,1.5308,1.5289,1.5293,1.5292,1.5289,1.5292,1.5297,1.5289,1.5292,1.5292,1.5289,0.0,0.0,0.0,0.0,0.0,0.0,0.0,0.0,0.0,0.0,0.0,0.0,0.0,0.0,0.0,0.0,0.0,0.0,0.0,0.0,0.0,0.0,0.0,0.0,0.0,0.0,1.5478,1.541,1.5409,0.0,0.0,0.0,0.0,0.0,0.0,0.0,0.0,0.0,0.0,1.994,2.048,2.049,2.0483,2.0443,2.0465,2.0453,2.0469,2.0424,1.9599,1.8994,0.0,0.0,0.0,0.0,0.0,0.0,0.0,0.0,0.0,0.0,0.0,0.0,0.0,0.0,0.0,0.0,0.0,0.0,0.0,0.0,0.0,0.0,0.0,0.0,0.0,0.0,0.0,1.0702,1.0699,0.0,0.0,0.0,0.0,0.0,0.0,0.0,0.0,0.0,0.0,0.0,1.3455,1.3736,0.0,0.0,0.0,0.0,0.0,0.0,0.0,0.0,0.0,0.0,0.0,0.0,1.584,1.5328,1.5294,1.5293,1.5284,1.5293,1.5284,1.5293,1.5287,1.5288,1.5236,0.0,0.0,0.0,0.0,0.0,0.0,0.0,0.0,0.0,0.0,0.0,0.0,0.0,0.0,0.0,0.0,0.0,0.0,0.0,0.0,0.0,0.0,0.0,0.0,0.0,1.5724,0.0,0.0,0.0,0.0,0.0,0.0,0.0,0.0,0.0,0.0,0.0,1.851,1.9887,1.9805,1.9847,2.0404,2.0505,2.051,0.0,0.0,0.0,0.0,0.0,0.0,0.0,0.0,0.0,0.0,0.0,0.0,0.0,0.0,1.6908,1.6279,1.6635,1.7027,1.7029,0.0,0.0,0.0,0.0,0.0,0.0,0.0,0.0,0.0,0.0,0.0,0.0,0.0,0.0,1.1558,0.0,1.1568,0.0,0.0,0.0,0.0,0.0,0.0,0.0,0.0,1.2396,1.3128,1.3947,1.4241,1.4714,0.0,1.5288,1.5279,0.0,0.0,0.0,0.0,0.0,0.0,0.0,0.0,1.6274,1.5737,1.5434,1.5284,1.5284,1.5293,1.5288,1.5287,1.529,1.5281,1.5241,1.5196,1.5301,0.0,0.0,0.0,0.0,0.0,0.0,0.0,0.0,0.0,0.0,0.0,0.0,0.0,0.0,0.0,0.0,0.0,0.0,0.0,0.0,0.0,0.0,0.0,1.5525,0.0,0.0,0.0,0.0,0.0,0.0,0.0,0.0,0.0,1.7443,1.78,1.8501,1.987,1.9568,1.9532,2.0387,0.0,0.0,0.0,0.0,0.0,0.0,0.0,1.9033,1.8163,1.779,1.7591,1.761,1.7832,1.801,1.8003,0.0,0.0,1.7258,1.7527,1.7916,1.7909,1.7917,1.7881,1.7873,1.7859,1.7846,0.0,0.0,0.0,0.0,0.0,0.0,0.0,0.0,1.244,1.2444,0.0,1.2515,0.0,0.0,0.0,0.0,0.0,1.2234,0.0,0.0,1.4428,1.4835,1.4236,1.4984,1.5356,1.5392,1.5393,1.5388,1.5412,1.5403,0.0,0.0,0.0,0.0,0.0,0.0,1.6598,1.6534,1.5816,1.5371,1.5356,1.535,1.532,1.5295,1.5286,1.5309,1.5295,1.5292,1.5656,1.641,1.569,0.0,0.0,0.0,0.0,0.0,0.0,0.0,0.0,0.0,0.0,0.0,0.0,0.0,0.0,0.0,0.0,0.0,0.0,0.0,0.0,1.5412,0.0,0.0,0.0,0.0,0.0,0.0,0.0,0.0,0.0,0.0,1.6723,1.7414,1.826,1.9052,0.0,0.0,0.0,0.0,2.0465,2.0447,1.9559,1.9243,2.0276,1.8664,1.7996,2.0016,0.0,0.0,1.927,1.8619,1.8147,1.8108,1.8759,1.8999,1.8253,1.8111,1.8065,1.8071,1.8094,1.799,1.7917,1.8074,1.8007,1.5529,0.0,0.0,0.0,0.0,1.283,1.2785,1.3329,1.3384,1.3391,1.3403,1.3419,0.0,0.0,0.0,0.0,0.0,0.0,1.3913,1.4505,1.5666,1.6397,1.6764,1.6403,1.6549,1.7117,1.6574,1.6619,1.7197,1.718,1.665,1.5695,0.0,0.0,0.0,0.0,1.7466,1.7471,1.7268,1.6852,1.6242,1.6218,1.5917,1.5334,1.5351,1.5351,1.5295,1.529,1.5398,1.5632,1.5994,0.0,0.0,0.0,0.0,0.0,0.0,0.0,0.0,0.0,0.0,0.0,0.0,0.0,0.0,0.0,0.0,0.0,0.0,0.0,1.5409,1.541,1.5498,0.0,0.0,0.0,0.0,0.0,0.0,0.0,0.0,0.0,1.7532,1.7255,1.7372,0.0,0.0,1.7689,1.8532,1.9176,1.9572,1.9577,1.9809,0.0,1.968,1.9612,1.9391,1.8817,1.9032,1.9287,1.9285,1.9609,1.9862,1.986,1.999,2.0053,1.9857,1.9766,1.9743,1.9747,1.9725,1.9677,1.966,1.9622,1.9552,1.6431,1.5753,1.4297,1.3862,1.4089,1.3287,1.341,1.4182,1.4238,1.4244,1.4236,1.4294,1.3831,1.3011,1.2689,0.0,0.0,0.0,1.5149,1.6294,1.6861,1.7403,1.7825,1.7369,1.7397,1.7904,1.7449,1.7484,1.801,1.7936,1.7369,1.6386,0.0,0.0,1.8098,1.8271,1.8358,1.8373,1.8063,1.7636,1.7123,1.7113,1.6861,1.6356,1.6035,1.586,1.5809,1.581,1.5806,1.5835,1.6648,1.6729,0.0,0.0,0.0,0.0,0.0,0.0,0.0,0.0,0.0,0.0,0.0,1.541,1.541,0.0,0.0,0.0,1.5415,1.5409,1.5407,1.541,0.0,0.0,0.0,0.0,0.0,0.0,0.0,1.6408,1.7258,1.7913,1.7896,1.7485,1.7625,1.8776,1.8181,1.7938,1.8808,0.0,1.973,1.9717,1.9875,1.9938,1.9811,1.9943,1.9811,1.9163,1.975,2.0312,2.0343,2.0783,2.1095,2.1089,2.0787,2.0511,2.0513,2.0503,2.0508,2.0509,2.0449,2.039,2.0383,2.0353,2.0295,1.7549,1.7309,1.4906,1.4387,1.4998,1.4171,1.4302,1.511,1.5181,1.5132,1.5031,1.5142,1.4725,1.3878,1.3221,0.0,1.5306,1.5491,1.6479,1.799,1.8053,1.811,1.8113,1.8038,1.8066,1.8205,1.8125,1.8128,1.8213,1.8159,1.8111,1.8137,1.8908,1.964,2.022,1.956,1.9192,1.9202,1.8484,1.8077,1.7999,1.7931,1.7916,1.7888,1.7117,1.6699,1.6704,1.6718,1.6699,1.6729,1.7526,1.7628,1.6865,0.0,0.0,0.0,0.0,0.0,0.0,0.0,0.0,0.0,0.0,0.0,0.0,0.0,0.0,0.0,1.5461,0.0,1.5607,1.5602,0.0,0.0,0.0,1.7113,1.7922,1.8062,1.8037,1.7921,0.0,0.0,1.8,1.8006,1.8615,2.0273,1.97,1.9377,2.018,2.0338,2.0479,2.0317,1.9848,1.9712,2.0318,1.9944,1.9771,2.0347,2.1273,2.163,2.1635,2.1679,2.1757,2.1679,2.1072,2.0509,2.051,2.0505,2.0511,2.0509,2.0454,2.039,2.0388,2.0334,2.0292,1.8402,1.8278,1.7018,1.664,1.681,1.5894,1.6053,1.6939,1.6939,1.6567,1.5981,1.6053,1.5612,1.4817,1.5335,1.5798,1.6251,1.7595,1.8411,1.8853,1.9551,1.9871,1.9855,1.9212,1.9237,1.9835,1.924,1.9262,1.9886,1.9886,1.988,1.9893,2.0049,1.9912,1.9499,1.924,1.9464,2.017,1.9934,1.9482,1.8819,1.8222,1.791,1.7909,1.7701,1.7588,1.7587,1.7582,1.7598,1.7614,1.8426,1.8523,1.773,1.7691,0.0,0.0,0.0,0.0,0.0,0.0,0.0,0.0,0.0,1.5415,1.5413,0.0,1.541,0.0,1.6009,1.6661,1.7326,1.7324,0.0,0.0,1.7693,1.7768,1.7981,1.8548,1.8659,1.797,1.849,1.8889,1.8883,1.8899,1.9293,2.0322,1.9183,1.8302,1.8531,1.97,2.027,1.9833,2.0487,2.1025,2.0664,2.0436,2.038,2.0556,2.0789,2.0916,2.0927,2.0895,2.0892,2.0891,2.0713,2.0518,2.051,2.0508,2.0516,2.0502,2.0443,2.0381,2.0337,2.0305,2.0292,1.9264,1.9167,1.8332,1.823,1.8526,1.7236,1.7009,1.7547,1.7519,1.7251,1.6845,1.6902,1.6687,1.6308,1.6824,1.73,1.7726,1.8692,1.9347,1.9745,2.0269,2.0511,2.0476,1.9998,2.0029,2.0471,2.0,2.0032,2.0493,2.0513,2.0503,2.0505,2.0463,2.0223,1.9792,1.9687,1.9924,2.0448,2.0418,2.016,1.9692,1.9275,1.9051,1.8984,1.8279,1.7888,1.7853,1.7492,1.7124,1.6797,1.7946,1.8049,1.6885,1.7161,1.6985,0.0,0.0,0.0,0.0,0.0,0.0,0.0,0.0,0.0,0.0,0.0,1.614,1.6517,1.6999,1.7479,1.7955,1.7972,1.8103,1.8542,1.8579,1.8724,1.9058,1.9512,1.9587,1.9122,1.9482,1.9774,1.9788,1.9778,1.9949,2.0439,1.9669,1.906,1.9169,2.0235,2.0782,2.0043,2.0943,2.1674,2.1222,2.1286,2.1435,2.165,2.1709,2.1836,2.2177,2.1628,2.1251,2.1595,2.1369,2.0925,2.0606,2.0806,2.092,2.0536,2.0433,2.0398,2.0361,2.0359,2.0341,1.9954,1.9856,1.9176,1.9323,1.9897,1.8383,1.7776,1.7843,1.7833,1.7785,1.7695,1.7621,1.7644,1.7697,1.7892,1.8384,1.91,1.9274,1.9777,2.0498,2.0508,2.0508,2.0508,2.0508,2.0513,2.051,2.051,2.051,2.0506,2.0506,2.051,2.0503,2.0477,2.0494,2.0486,2.0359,2.0324,2.0385,2.0417,2.0423,2.0395,2.0459,2.0418,2.0189,1.8808,1.7985,1.7793,1.7064,1.6348,1.5729,1.7079,1.7261,1.5909,1.6429,1.6476,0.0,1.576,0.0,0.0,0.0,0.0,0.0,0.0,0.0,0.0,1.6426,1.7174,1.794,1.8086,1.8203,1.8307,1.8322,1.8627,1.9349,1.9454,1.9737,2.0386,2.0507,2.0513,2.0502,2.0507,2.0507,2.0468,2.0507,2.0502,2.0506,2.0437,2.0338,2.0527,2.1181,2.1425,2.063,2.1247,2.1842,2.2019,2.2238,2.2476,2.2837,2.2748,2.3149,2.353,2.251,2.1839,2.2427,2.2094,2.156,2.0829,2.1278,2.1362,2.0594,2.042,2.0405,2.039,2.0388,2.0381,2.002,2.0058,1.9897,1.9945,2.006,1.9717,1.963,1.9696,1.9631,1.9277,1.8663,1.7987,1.7698,1.777,1.8511,1.8952,1.9134,1.991,2.034,2.0508,2.0508,2.0511,2.0509,2.0509,2.051,2.051,2.051,2.051,2.051,2.051,2.0506,2.0509,2.0447,2.0413,2.0419,0.0,0.0,0.0,2.0413,2.0449,2.0405,2.0421,2.0075,1.9379,1.9043,0.0,1.784,1.7641,1.751,1.742,1.7732,0.0,0.0,0.0,0.0,0.0,0.0,0.0,0.0,0.0,0.0,0.0,1.7704,1.7507,1.7522,1.7663,1.7821,1.7996,1.8594,1.9269,1.9938,2.0029,2.01,2.0246,2.027,2.0333,2.0494,2.0511,2.0505,2.0512,2.0507,2.0507,2.0507,2.0507,2.0502,2.0506,2.0511,2.0509,2.0509,2.1269,2.1461,2.0749,2.144,2.2145,2.2779,2.2888,2.2763,2.2332,2.2081,2.193,2.16,2.1216,2.084,2.1116,2.1414,2.1861,2.1813,2.1798,2.1556,2.0653,2.0493,2.0468,2.0414,2.0394,2.0388,2.0021,0.0,2.005,2.0069,0.0,2.0108,2.0144,2.0198,2.0173,1.995,1.961,1.9174,1.9003,1.9063,1.9515,1.9768,1.9823,2.0273,2.0508,2.0503,2.0503,2.0513,2.0506,2.051,2.0513,2.051,2.0507,2.0507,2.0513,2.0507,2.051,2.0508,2.0459,2.0443,2.0449,2.0425,2.0374,2.0355,2.0417,2.0448,2.0454,2.0448,2.0233,1.9767,1.9331,0.0,0.0,0.0,0.0,0.0,0.0,0.0,0.0,0.0,0.0,1.7976,1.7964,1.8156,1.8594,1.8647,1.883,1.9239,1.9256,1.9048,1.8678,1.8642,1.88,1.9195,1.9614,2.0013,2.0438,2.051,2.0513,2.0509,2.0506,2.0509,2.0507,2.0507,2.0504,2.0507,2.0507,2.0507,2.0507,2.0507,2.0502,2.0506,2.0515,2.0519,2.0632,2.1626,2.2344,2.24,2.2637,2.2959,2.3083,2.3382,2.3296,2.2662,2.2129,2.1891,2.184,2.1111,2.0655,2.1075,2.1815,2.2343,2.2065,2.2474,2.2595,2.1439,2.109,2.0915,2.058,2.0424,2.0388,2.0117,2.027,2.026,2.0384,2.0584,2.0584,2.0601,2.0623,0.0,0.0,0.0,2.0299,2.033,2.0386,2.0419,2.0448,2.0506,2.0508,2.0513,2.051,2.051,2.0503,2.0506,2.0513,2.0513,2.0506,2.051,2.051,2.0506,2.0503,2.0513,2.0506,2.0503,2.0507,2.0513,2.0505,2.0477,2.0414,2.0417,2.0413,2.0473,2.0478,2.0395,2.0187,1.9477,1.9022,1.8864,1.8189,1.7825,1.7905,1.7909,1.7651,1.712,1.7732,1.7897,1.7401,1.7975,1.8714,1.9467,1.9526,1.984,2.0557,2.0552,2.0166,1.9363,1.9417,1.9711,2.0247,2.0409,2.05,2.0507,2.051,2.0506,2.051,2.0507,2.0513,2.0513,2.0505,2.0505,2.0502,2.0507,2.0507,2.0507,2.0507,2.057,2.072,2.0806,2.0819,2.1072,2.2008,2.2899,2.3387,2.3454,2.3571,2.3301,2.3437,2.356,2.2828,2.227,2.2112,2.2274,2.1465,2.0893,2.1299,2.2234,2.2294,2.177,2.2581,2.3275,2.1988,2.1692,2.1566,2.1095,2.0889,2.0861,2.0593,2.1278,2.1281,2.1731,2.242,2.242,2.2427,2.2318,2.0932,2.0299,2.0302,2.0295,2.0328,2.0415,2.0443,2.0473,2.0511,2.0509,2.0507,2.051,2.051,2.0503,2.0506,2.0506,2.0506,2.0503,2.0505,2.0513,2.0503,2.051,2.051,2.0507,2.051,2.051,2.0505,2.0508,2.0515,2.0473,2.0415,2.0415,2.042,2.0416,2.004,1.9324,1.9183,1.8732,1.8002,1.7888,1.7837,1.7883,1.791,1.8173,1.8792,1.8946,1.9315,1.9973,2.0145,2.0288,2.0409,2.0428,2.0469,2.0586,2.0586,2.0226,1.9407,1.9947,2.0094,1.9587,2.012,2.0506,2.0507,2.0513,2.0511,2.0511,2.0505,2.0508,2.0508,2.0509,2.0506,2.0512,2.0507,2.0546,2.0575,2.0595,2.091,2.1439,2.1526,2.1788,2.2175,2.2269,2.2062,2.223,2.2776,2.3113,2.314,2.3146,2.3011,2.2102,2.1965,2.169,2.1298,2.0853,2.0596,2.0682,2.1545,2.1708,2.1035,2.1401,2.2144,2.1949,2.192,2.1973,2.2371,2.2452,2.2307,2.0742,2.1457,2.1481,2.1999,2.2794,2.2802,2.2801,2.2749,2.2022,2.1447,2.1017,2.1017,2.0785,2.0425,2.0429,2.0468,2.0505,2.0509,2.0503,2.051,2.051,2.0503,2.0506,2.051,2.051,2.0506,2.0506,2.0506,2.051,2.051,2.0513,2.051,2.0506,2.0505,2.0508,2.0511,2.0511,2.0507,2.0473,2.0454,2.0454,2.0453,2.0258,1.9881,1.9856,1.9687,1.9293,1.9272,1.9282,1.9304,1.9325,1.9299,1.9256,1.9699,1.994,1.9918,2.0335,2.0604,2.0605,2.0604,2.0602,2.0604,2.0605,2.0443,2.0031,2.0308,2.0341,2.0,2.0299,2.0509,2.0505,2.0505,2.0511,2.0509,2.0509,2.0505,2.0506,2.0507,2.0507,2.0551,2.0896,2.1148,2.1138,2.1561,2.1949,2.2367,2.2139,2.1857,2.1772,2.179,2.1971,2.2462,2.3244,2.3515,2.3201,2.3534,2.3382,2.2631,2.2123,2.1749,2.1257,2.0919,2.0574,2.061,2.1541,2.2186,2.1871,2.297,2.3455,2.3168,2.3119,2.3211,2.3118,2.3282,2.3436,2.1342,2.208,2.2093,2.2574,2.3352,2.3351,2.3359,2.3394,2.3437,2.2989,2.2214,2.1809,2.1382,2.0989,2.0778,2.0837,2.1019,2.0879,2.0802,2.0773,2.0588,2.0503,2.0506,2.0513,2.0513,2.0506,2.051,2.051,2.0506,2.0503,2.0503,2.0506,2.0505,2.0484,2.048,2.0492,2.0488,2.0478,2.0488,2.0507,2.0507,2.0512,2.0502,2.0502,2.0496,2.0509,2.0511,2.0513,2.0513,2.0513,2.0506,2.0226,1.9651,2.0223,2.0305,1.9744,2.0229,2.0595,2.0601,2.0601,2.0598,2.0601,2.0582,2.0567,2.057,2.0523,2.0511,2.0505,2.049,2.0511,2.0509,2.0504,2.0508,2.0505,2.0506,2.0609,2.0769,2.0774,2.0866,2.107,2.1619,2.2008,2.2114,2.2571,2.293,2.2838,2.2445,2.1745,2.1077,2.1276,2.1776,2.2435,2.326,2.3302,2.2763,2.3164,2.3329,2.2863,2.249,2.2232,2.2011,2.1515,2.1182,2.1321,2.2103,2.278,2.3077,2.3883,2.4475,2.4129,2.4075,2.4065,2.3824,2.4116,2.4469,2.3057,2.3816,2.3801,2.4331,2.4986,2.5024,2.5043,2.5089,2.5147,2.471,2.3802,2.2358,2.2111,2.2601,2.191,2.1974,2.2571,2.1996,2.1637,2.1513,2.086,2.0503,2.0506,2.0506,2.0506,2.0513,2.0505,2.0503,2.0507,2.051,2.051,2.0503,2.0509,2.0466,2.0425,2.0473,2.0478,2.042,2.0473,2.0507,2.0507,2.0511,2.0506,2.0506,2.0508,2.0505,2.0513,2.0506,2.0513,2.0509,2.0506,2.0472,2.0399,2.0533,2.0558,2.0477,2.0553,2.0596,2.0597,2.0604,2.0601,2.0603,2.054,2.0503,2.0503,2.0505,2.0508,2.051,2.0511,2.0509,2.0504,2.0511,2.0511,2.0513,2.0565,2.0808,2.1458,2.1624,2.1881,2.2697,2.2751,2.2862,2.2901,2.3086,2.3105,2.3154,2.2916,2.2435,2.1647,2.1034,2.077,2.0974,2.1521,2.1737,2.1334,2.1515,2.2384,2.2269,2.262,2.29,2.2919,2.2848,2.2806,2.2364,2.2819,2.3111,2.3106,2.3251,2.3678,2.4411,2.4496,2.4487,2.5028,2.5236,2.5267,2.3365,2.4155,2.4153,2.4618,2.5321,2.5406,2.5425,2.5388,2.5387,2.521,2.4809,2.3693,2.3118,2.2996,2.2625,2.2435,2.2271,2.1945,2.15,2.1052,2.0656,2.0507,2.0503,2.0503,2.0513,2.0513,2.051,2.051,2.0507,2.0507,2.051,2.0503,2.0509,2.0487,2.0453,2.0449,2.0415,2.0391,2.0429,2.0464,2.0488,2.0511,2.0505,2.0509,2.0508,2.0505,2.0505,2.0506,2.0507,2.0506,2.0506,2.0509,2.055,2.054,2.0564,2.0593,2.0604,2.0603,2.0596,2.0599,2.058,2.054,2.0521,2.0509,2.0509,2.0503,2.0506,2.0507,2.0503,2.0511,2.0508,2.0511,2.0511,2.0576,2.0947,2.1414,2.1732,2.2192,2.2654,2.3048,2.3465,2.3785,2.3853,2.4212,2.4271,2.3853,2.3377,2.2737,2.1867,2.1026,2.0565,2.055,2.0834,2.1377,2.1818,2.2779,2.3405,2.3883,2.3936,2.3871,2.3783,2.3332,2.3082,2.3115,2.3495,2.3743,2.3811,2.4257,2.4688,2.5013,2.5051,2.5185,2.5496,2.5557,2.5557,2.3966,2.448,2.4535,2.4866,2.5404,2.5447,2.5468,2.5416,2.5412,2.5419,2.5369,2.4795,2.4112,2.343,2.3358,2.313,2.282,2.238,2.1951,2.1454,2.0857,2.0623,2.0818,2.0604,2.051,2.0507,2.0507,2.0503,2.051,2.051,2.0513,2.0508,2.0492,2.0468,2.0477,2.0439,2.0429,2.042,2.042,2.0454,2.0488,2.0511,2.0505,2.0508,2.0505,2.0509,2.051,2.051,2.0507,2.0509,2.0503,2.0515,2.056,2.0536,2.0545,2.059,2.0596,2.0598,2.0567,2.0584,2.0557,2.0516,2.0511,2.0509,2.0509,2.051,2.0503,2.0503,2.051,2.0509,2.0511,2.0513,2.0506,2.0548,2.1105,2.1572,2.2119,2.2726,2.3222,2.3728,2.435,2.4655,2.4737,2.5116,2.5183,2.4343,2.3731,2.2906,2.1964,2.1226,2.0794,2.0584,2.0679,2.1366,2.2565,2.3254,2.4329,2.4992,2.4758,2.4713,2.4665,2.4094,2.3811,2.4316,2.4511,2.4603,2.4651,2.5213,2.5514,2.5582,2.5576,2.5547,2.5583,2.5599,2.5609,2.5369,2.5324,2.5335,2.5345,2.5401,2.5406,2.5434,2.5485,2.5429,2.5435,2.5488,2.5379,2.4972,2.4255,2.4179,2.4612,2.4987,2.3611,2.3241,2.3475,2.1529,2.0942,2.1665,2.0903,2.0507,2.0503,2.0506,2.0509,2.0508,2.0504,2.0509,2.0505,2.0439,2.041,2.042,2.0454,2.0454,2.0415,2.0439,2.0498,2.0498,2.0502,2.0505,2.0504,2.0506,2.0507,2.0503,2.051,2.0503,2.0507,2.0511,2.0511,2.0516,2.0572,2.0596,2.0596,2.0602,2.0585,2.0531,2.0509,2.0507,2.0509,2.0503,2.0507,2.051,2.0513,2.0509,2.0503,2.0506,2.0509,2.0511,2.0505,2.0513,2.0503,2.0568,2.1385,2.2837,2.3075,2.3864,2.4973,2.5367,2.5386,2.5482,2.5578,2.5232,2.463,2.4265,2.3683,2.2406,2.1804,2.1395,2.1056,2.1255,2.1792,2.1997,2.2968,2.3682,2.4436,2.5249,2.544,2.5508,2.5488,2.541,2.5331,2.5302,2.5335,2.5485,2.5553,2.5582,2.5611,2.5599,2.5599,2.5609,2.5602,2.5602,2.5482,2.5461,2.5485,2.5459,2.547,2.5505,2.551,2.5459,2.5448,2.5464,2.5383,2.4919,2.4846,2.5106,2.4542,2.3883,2.3203,2.3037,2.2896,2.2532,2.1142,2.0938,2.1584,2.0889,2.0513,2.0504,2.0513,2.0509,2.0505,2.0505,2.0506,2.0498,2.0429,2.0386,2.0405,2.0418,2.0423,2.0409,2.0423,2.0438,2.0439,2.0464,2.0507,2.0506,2.0505,2.051,2.0513,2.051,2.0509,2.0507,2.0504,2.0528,2.056,2.0584,2.0604,2.0599,2.0597,2.0591,2.0572,2.0567,2.0543,2.0506,2.0513,2.0507,2.0503,2.051,2.051,2.0513,2.0503,2.051,2.051,2.051,2.0513,2.0568,2.101,2.1721,2.2871,2.3591,2.4393,2.5365,2.5629,2.5605,2.5615,2.5604,2.5478,2.5154,2.4673,2.4057,2.3518,2.2935,2.2387,2.2212,2.2357,2.2756,2.3382,2.3616,2.4122,2.4827,2.5435,2.5507,2.5589,2.5595,2.5483,2.4917,2.5125,2.5257,2.5145,2.5426,2.5485,2.5601,2.5605,2.5609,2.5599,2.5609,2.5609,2.5519,2.5507,2.5519,2.551,2.5517,2.5531,2.5514,2.5437,2.549,2.5517,2.5385,2.4873,2.4689,2.4701,2.441,2.3161,2.158,2.2435,2.2805,2.2416,2.1101,2.0892,2.1439,2.0852,2.0478,2.0478,2.0487,2.0473,2.0468,2.0468,2.0478,2.0453,2.0409,2.0389,2.0389,2.0383,2.0392,2.0383,2.0387,2.0392,2.0398,2.0444,2.0473,2.0478,2.049,2.0509,2.0506,2.051,2.0509,2.0528,2.0507,2.0525,2.0601,2.0605,2.0604,2.0601,2.0601,2.0578,2.057,2.0558,2.0555,2.0511,2.0503,2.051,2.051,2.051,2.051,2.051,2.0513,2.0513,2.0506,2.0506,2.0506,2.0564,2.1019,2.186,2.2932,2.3588,2.4438,2.5403,2.567,2.5652,2.5629,2.561,2.5591,2.5608,2.5063,2.4698,2.4275,2.3843,2.326,2.3095,2.3212,2.3581,2.4047,2.434,2.4642,2.5283,2.5493,2.5564,2.5607,2.5604,2.5337,2.4733,2.4513,2.4649,2.4873,2.5174,2.5387,2.5533,2.5611,2.5605,2.5611,2.5601,2.5611,2.5511,2.5511,2.5511,2.5515,2.5514,2.5518,2.5518,2.5505,2.5505,2.5454,2.5318,2.5308,2.4331,2.342,2.3681,2.2709,2.1288,2.216,2.3108,2.3498,2.1413,2.0826,2.159,2.0813,2.04,2.041,2.0463,2.0464,2.0421,2.0399,2.0404,2.0413,2.0398,2.0388,2.0384,2.0388,2.0383,2.0387,2.0387,2.0383,2.0387,2.0389,2.0405,2.041,2.0458,2.0504,2.0503,2.0507,2.0535,2.0567,2.0533,2.0531,2.0595,2.0604,2.0597,2.0597,2.0605,2.0574,2.0521,2.0519,2.0528,2.0516,2.0518,2.0506,2.0506,2.0503,2.0513,2.0506,2.0506,2.0518,2.0585,2.0633,2.0602,2.0506,2.0635,2.1327,2.2663,2.3192,2.3813,2.5294,2.5691,2.5691,2.5675,2.5631,2.561,2.5576,2.5492,2.5216,2.4653,2.4381,2.394,2.3562,2.3834,2.442,2.4692,2.496,2.5281,2.5591,2.5578,2.5601,2.5601,2.5583,2.5205,2.4644,2.4047,2.4125,2.4212,2.4552,2.5096,2.5281,2.5417,2.5562,2.5601,2.5601,2.5601,2.5519,2.5507,2.5517,2.5515,2.551,2.5511,2.5514,2.5515,2.5512,2.5176,2.4575,2.3968,2.3396,2.29,2.2605,2.2286,2.2075,2.2078,2.2112,2.2089,2.0935,2.0728,2.1256,2.0711,2.0324,2.0336,2.0346,2.0361,2.0381,2.0387,2.0387,2.0387,2.0385,2.0385,2.0387,2.0385,2.0382,2.0382,2.0388,2.0382,2.0382,2.0381,2.0388,2.0398,2.0468,2.0511,2.0511,2.0505,2.051,2.0529,2.0522,2.0513,2.0535,2.0574,2.0594,2.0601,2.0599,2.0601,2.058,2.0568,2.0566,2.0564,2.0574,2.054,2.0516,2.0511,2.0511,2.0504,2.0514,2.0682,2.124,2.1401,2.1177,2.0638,2.0546,2.1226,2.2861,2.4138,2.5022,2.5524,2.5694,2.5684,2.5652,2.5609,2.5605,2.5604,2.5603,2.5417,2.5251,2.5096,2.5174,2.4892,2.5164,2.5086,2.5193,2.5251,2.5426,2.5601,2.5601,2.5601,2.5601,2.5339,2.4964,2.4498,2.3901,2.3727,2.3785,2.4183,2.4853,2.5096,2.5232,2.5397,2.5553,2.5601,2.5601,2.5512,2.551,2.551,2.5517,2.5534,2.5528,2.5541,2.5529,2.5546,2.5028,2.4205,2.3649,2.2992,2.2412,2.1806,2.1673,2.1823,2.1261,2.1008,2.0933,2.0514,2.0541,2.0938,2.052,2.0272,2.0258,2.0282,2.0308,2.0317,2.036,2.0357,2.0369,2.0353,2.036,2.036,2.035,2.037,2.0389,2.0379,2.0389,2.0386,2.0388,2.039,2.0396,2.0438,2.0449,2.0464,2.0472,2.0469,2.0503,2.0513,2.051,2.0526,2.0575,2.0597,2.0604,2.0603,2.0603,2.0603,2.0593,2.0603,2.0599,2.0599,2.0588,2.0543,2.0521,2.0509,2.054,2.0509,2.0853,2.1589,2.1786,2.1661,2.1604,2.1218,2.165,2.3036,2.4644,2.556,2.5694,2.5694,2.5675,2.5654,2.564,2.5638,2.5629,2.5614,2.5603,2.5603,2.5578,2.5591,2.5591,2.5504,2.5465,2.5553,2.5572,2.5582,2.5601,2.5601,2.5601,2.5601,2.5096,2.4644,2.4154,2.3581,2.3935,2.4051,2.4591,2.5154,2.5145,2.5125,2.5397,2.5601,2.5601,2.5601,2.5511,2.5511,2.5511,2.5528,2.558,2.558,2.5573,2.559,2.5573,2.4994,2.4205,2.39,2.3025,2.1772,2.133,2.1045,2.0424,2.0335,2.0384,2.0356,2.0174,2.0201,2.0292,2.0214,2.0195,2.0211,2.0254,2.0246,2.023,2.0406,2.0366,2.0491,2.0496,2.0405,2.0475,2.0363,2.0334,2.037,2.0389,2.0389,2.0379,2.0388,2.039,2.0381,2.0413,2.0419,2.0429,2.043,2.0443,2.0496,2.0511,2.0513,2.0575,2.0596,2.0585,2.058,2.0586,2.0596,2.0604,2.0604,2.0603,2.0603,2.0597,2.0603,2.0586,2.0555,2.0543,2.0586,2.0533,2.0904,2.1692,2.1975,2.2297,2.2904,2.25,2.2547,2.3173,2.4719,2.5554,2.5694,2.5701,2.5694,2.5687,2.5681,2.5683,2.5671,2.5634,2.5615,2.5604,2.5603,2.5601,2.5601,2.5601,2.5601,2.5601,2.5601,2.5601,2.5601,2.5601,2.5591,2.5591,2.5106,2.4547,2.4018,2.3756,2.41,2.4255,2.4591,2.4941,2.5028,2.5174,2.5475,2.5601,2.5601,2.5601,2.5511,2.5511,2.5511,2.5514,2.5519,2.5532,2.5515,2.5505,2.5441,2.4511,2.3438,2.3152,2.2212,2.0672,2.0544,2.0651,2.0814,2.0394,2.0441,2.0803,2.0278,2.0069,2.0107,2.0069,2.0088,2.0125,2.0153,2.017,2.0243,2.0704,2.1047,2.1249,2.106,2.1143,2.1201,2.0575,2.0318,2.0328,2.0389,2.0389,2.0379,2.0386,2.0385,2.0388,2.0385,2.0424,2.0473,2.0483,2.0478,2.0492,2.0508,2.0507,2.0533,2.0539,2.053,2.0527,2.0527,2.0546,2.0593,2.0598,2.0604,2.0603,2.0601,2.0601,2.0601,2.0591,2.059,2.0601,2.0609,2.1185,2.2369,2.275,2.316,2.3853,2.3778,2.3717,2.4089,2.4966,2.5694,2.5695,2.57,2.5681,2.5649,2.5632,2.5636,2.5634,2.563,2.56,2.5604,2.5603,2.5601,2.5601,2.5601,2.5601,2.5601,2.5601,2.5601,2.5601,2.5601,2.5582,2.5572,2.5397,2.4853,2.4319,2.429,2.4517,2.408,2.396,2.4319,2.5013,2.5251,2.5553,2.5591,2.5611,2.5611,2.5481,2.5447,2.5466,2.5273,2.4977,2.4915,2.4733,2.4443,2.4304,2.3566,2.2464,2.2217,2.1469,2.0304,2.0499,2.0871,2.1253,2.1146,2.1143,2.1007,2.0387,2.0048,2.0031,2.0011,2.002,2.005,2.0069,2.0089,2.0164,2.0633,2.087,2.0876,2.0952,2.0985,2.0939,2.0612,2.0288,2.0302,2.0354,2.0363,2.0389,2.0389,2.0382,2.0383,2.0389,2.0434,2.0488,2.0511,2.0502,2.0511,2.0505,2.0509,2.0509,2.0509,2.0516,2.0525,2.0527,2.0517,2.0583,2.0599,2.0598,2.0604,2.0603,2.0603,2.0603,2.0603,2.0603,2.0603,2.0874,2.1587,2.2418,2.3179,2.4019,2.476,2.4947,2.4805,2.4464,2.5158,2.5619,2.5696,2.5693,2.5693,2.5648,2.5642,2.5642,2.5642,2.5658,2.563,2.5605,2.5608,2.5601,2.5601,2.5601,2.5601,2.5601,2.5601,2.5601,2.5601,2.5601,2.5582,2.5455,2.5436,2.5086,2.4688,2.4776,2.4756,2.4426,2.43,2.4785,2.5319,2.5475,2.5527,2.5576,2.5589,2.5589,2.526,2.5131,2.5131,2.4724,2.4084,2.3985,2.3641,2.3024,2.2991,2.2427,2.169,2.1453,2.1004,2.0237,2.0633,2.1147,2.1326,2.156,2.147,2.0973,2.0345,1.9997,1.999,1.9999,1.9998,1.9998,1.9988,1.9999,2.0115,2.0221,2.0317,2.0499,2.0478,2.0408,2.0613,2.0396,2.0299,2.0288,2.0302,2.0344,2.0379,2.0386,2.0388,2.0402,2.0424,2.0449,2.0493,2.0511,2.0511,2.0511,2.0509,2.0513,2.0511,2.0503,2.0533,2.0631,2.069,2.078,2.0788,2.0965,2.0983,2.1055,2.0925,2.073,2.0809,2.0739,2.0681,2.0895,2.1431,2.1928,2.2572,2.3607,2.4585,2.5326,2.5615,2.5293,2.4912,2.5226,2.5699,2.5703,2.5701,2.5699,2.5701,2.5693,2.5693,2.5666,2.5667,2.5629,2.56,2.5608,2.5607,2.5601,2.5601,2.5601,2.5601,2.5601,2.5601,2.5601,2.5601,2.5543,2.5271,2.5174,2.5067,2.497,2.5106,2.5251,2.529,2.5368,2.5465,2.5488,2.5556,2.5564,2.5577,2.5567,2.5567,2.4032,2.3443,2.3433,2.3309,2.311,2.3086,2.2974,2.2765,2.2709,2.2077,2.1541,2.1378,2.0843,2.005,2.0335,2.062,2.1149,2.0957,2.0385,2.0306,2.0145,1.9993,1.9985,1.9995,1.9995,1.9995,1.9995,1.9997,2.0104,2.0551,2.1039,2.1015,2.0843,2.1072,2.1004,2.0444,2.0252,2.0299,2.0298,2.0328,2.0379,2.0382,2.0396,2.0424,2.0464,2.0492,2.0505,2.0511,2.0505,2.0505,2.0511,2.0505,2.0504,2.0548,2.061,2.0765,2.122,2.1531,2.1639,2.206,2.2517,2.2286,2.1775,2.1608,2.1569,2.0925,2.0993,2.1413,2.1811,2.2475,2.3618,2.4126,2.478,2.5404,2.5685,2.5617,2.548,2.5551,2.5677,2.5697,2.5691,2.5701,2.5696,2.5693,2.5697,2.5693,2.5632,2.5595,2.5547,2.5488,2.5418,2.5325,2.5591,2.5591,2.5601,2.5601,2.5601,2.5601,2.5601,2.5591,2.5319,2.5236,2.5236,2.5333,2.5475,2.5591,2.5605,2.5585,2.5527,2.557,2.5593,2.5561,2.5544,2.5544,2.5538,2.315,2.2766,2.2756,2.2516,2.2171,2.2096,2.1895,2.1579,2.1464,2.1186,2.0823,2.0745,2.0437,2.0024,2.0345,2.0825,2.1013,2.0766,2.0526,2.0446,2.0193,1.996,1.9951,1.996,1.9951,1.9982,1.9993,1.9996,2.0139,2.0427,2.0619,2.0736,2.0736,2.0642,2.0747,2.0354,2.0208,2.0204,2.0233,2.027,2.0304,2.0373,2.0421,2.0449,2.0478,2.0505,2.0504,2.0509,2.0509,2.0513,2.0505,2.0511,2.0622,2.0875,2.1072,2.1253,2.1925,2.2389,2.2607,2.2791,2.2881,2.2596,2.2103,2.1718,2.1385,2.082,2.1071,2.1735,2.235,2.313,2.4692,2.4048,2.4438,2.5395,2.5687,2.5687,2.5695,2.57,2.5694,2.5694,2.5691,2.5693,2.5696,2.5697,2.5701,2.5693,2.5085,2.5019,2.4914,2.4866,2.487,2.4937,2.5378,2.5582,2.5601,2.5601,2.5601,2.5601,2.5601,2.5601,2.5494,2.5508,2.5566,2.5595,2.5576,2.5589,2.5609,2.5589,2.5564,2.5551,2.5544,2.5528,2.5521,2.5517,2.5527,2.2332,2.2197,2.2197,2.1806,2.1225,2.1127,2.0774,2.0183,2.0029,2.018,2.0008,1.9985,2.0071,2.0063,2.0533,2.0878,2.0875,2.0847,2.0639,2.0568,2.0139,1.9936,1.9919,1.993,1.994,1.9992,1.9971,1.9973,1.9974,2.0005,2.0149,2.0046,2.0066,2.0181,2.0068,2.006,2.0098,2.0116,2.0177,2.0208,2.024,2.0337,2.0429,2.0458,2.0464,2.0473,2.0473,2.0487,2.0486,2.0474,2.0474,2.0488,2.069,2.1113,2.1603,2.1565,2.2201,2.2584,2.2691,2.2913,2.282,2.2097,2.1933,2.1605,2.1078,2.083,2.1082,2.1803,2.2574,2.3609,2.5141,2.4145,2.4155,2.516,2.5609,2.5561,2.5676,2.5693,2.5701,2.5694,2.5697,2.5697,2.5694,2.5697,2.5694,2.558,2.4953,2.4526,2.4495,2.4433,2.4555,2.487,2.5389,2.5061,2.4983,2.5168,2.5232,2.5352,2.5401,2.5595,2.5595,2.5573,2.5573,2.5579,2.5579,2.5586,2.557,2.5551,2.5525,2.5518,2.5514,2.5517,2.5519,2.5515,2.5515,2.1083,2.0437,2.044,2.0335,2.0259,2.024,2.0163,2.0049,1.9991,1.999,1.9998,1.9988,1.9985,2.0039,2.0068,2.0159,2.0229,2.0226,2.0198,2.0196,1.9953,1.9898,1.9909,1.994,1.9951,1.993,1.9919,1.9908,1.9909,1.9911,1.9943,1.9973,1.9963,1.9945,1.9985,2.0027,2.0039,2.005,2.0134,2.0177,2.0201,2.0296,2.0395,2.0416,2.0427,2.0413,2.0413,2.0423,2.0429,2.0419,2.0415,2.0439,2.0525,2.0708,2.083,2.1126,2.1794,2.2391,2.2437,2.2796,2.2976,2.2782,2.2274,2.1885,2.1479,2.1053,2.1102,2.1784,2.2594,2.3511,2.443,2.3706,2.4067,2.4975,2.5268,2.5063,2.5529,2.5696,2.5701,2.57,2.5694,2.5697,2.5694,2.5694,2.57,2.559,2.5177,2.4886,2.4855,2.4704,2.4598,2.5012,2.5511,2.4863,2.4224,2.4482,2.4673,2.4871,2.5069,2.5564,2.5567,2.5541,2.5525,2.5551,2.5544,2.5538,2.5528,2.5511,2.5514,2.551,2.5512,2.5515,2.5507,2.5509,2.5509,2.0344,1.9996,1.9988,1.9989,1.9989,1.9989,1.9989,1.9989,1.9989,1.9988,1.9986,1.9996,1.9974,1.9952,1.9941,1.993,1.9919,1.9889,1.9898,1.9896,1.9908,1.9908,1.9898,1.9917,1.9896,1.9863,1.984,1.9861,1.9896,1.9898,1.9908,1.9887,1.9887,1.9896,1.9905,1.994,1.9943,1.9969,2.0011,2.006,2.0079,2.0193,2.027,2.0344,2.0382,2.039,2.0383,2.0381,2.0392,2.039,2.0386,2.0434,2.0481,2.055,2.0685,2.1152,2.1884,2.244,2.2507,2.2914,2.2898,2.2459,2.2066,2.1678,2.1298,2.0895,2.1039,2.1728,2.2164,2.3033,2.4253,2.356,2.4058,2.517,2.5268,2.5268,2.5549,2.5673,2.5701,2.57,2.5694,2.5694,2.57,2.57,2.5697,2.5537,2.5299,2.5218,2.518,2.4841,2.4549,2.4642,2.4977,2.461,2.3933,2.3972,2.4147,2.4325,2.4765,2.5244,2.5557,2.5521,2.5514,2.5524,2.5517,2.5517,2.551,2.5519,2.5515,2.5507,2.5517,2.5509,2.5511,2.5511,2.5511,2.0339,2.0238,2.024,2.0145,2.0012,1.9993,1.9993,1.9993,1.9993,1.9993,1.9993,1.9993,1.9973,1.9921,1.9921,1.9928,1.9915,2.003,2.0104,1.9941,2.013,2.013,1.9903,1.9866,1.9844,1.9861,1.9828,1.9835,1.9873,1.9884,1.9842,1.9854,1.9884,1.987,1.9825,1.987,1.984,1.9821,1.9828,1.9883,1.996,2.0041,2.0155,2.0294,2.0343,2.0363,2.0353,2.037,2.037,2.0369,2.0394,2.0425,2.0468,2.0498,2.0828,2.1508,2.2225,2.252,2.2537,2.2445,2.2106,2.1649,2.1648,2.1238,2.1005,2.0937,2.1199,2.1749,2.2205,2.2672,2.3726,2.3491,2.4058,2.5121,2.5541,2.548,2.5615,2.5696,2.5694,2.5697,2.5697,2.5691,2.5697,2.57,2.5697,2.5674,2.5446,2.5348,2.5223,2.4671,2.436,2.4195,2.4208,2.4135,2.3803,2.3568,2.3675,2.3766,2.4374,2.5001,2.5304,2.5519,2.5512,2.5512,2.5515,2.5515,2.5517,2.5517,2.5509,2.5519,2.5511,2.5511,2.5511,2.5511,2.5493,2.1689,2.1055,2.1072,2.0647,2.0068,2.0041,2.0012,1.9993,1.9993,1.9993,1.9993,1.9993,1.9982,1.9982,1.9973,1.9951,2.0089,2.0406,2.0375,1.9983,2.0401,2.0363,1.9981,1.997,1.9875,1.9861,1.9861,1.9852,1.983,1.9828,1.9849,1.9861,1.987,1.9868,1.9798,1.9813,1.9785,1.9751,1.9783,1.9877,2.0021,2.0069,2.0162,2.0257,2.0298,2.0315,2.0318,2.033,2.0313,2.0311,2.0366,2.039,2.0409,2.0473,2.052,2.0662,2.0797,2.0905,2.1063,2.1184,2.1178,2.0956,2.0878,2.0711,2.0895,2.1288,2.1688,2.1855,2.242,2.2995,2.3394,2.3218,2.4058,2.477,2.5268,2.5332,2.5493,2.5696,2.5697,2.5701,2.5697,2.57,2.5693,2.5697,2.5691,2.5664,2.5611,2.5504,2.534,2.4865,2.4258,2.4097,2.4101,2.4037,2.322,2.305,2.3087,2.3168,2.3974,2.4687,2.4989,2.5263,2.5509,2.5519,2.5511,2.5519,2.5519,2.5511,2.5511,2.5511,2.5511,2.5511,2.5511,2.5493,2.5484,2.2656,2.1931,2.1912,2.142,2.0712,2.0676,2.0401,2.005,1.9993,1.9993,1.9993,1.9993,1.9993,1.9982,1.9993,1.9992,2.0047,2.0365,2.0276,1.9955,2.024,2.0219,1.9891,1.9818,1.9797,1.9801,1.9785,1.9754,1.9745,1.9757,1.977,1.9798,1.9798,1.9773,1.9748,1.9751,1.9729,1.9707,1.9704,1.9769,1.9904,1.9979,2.0079,2.0235,2.0251,2.0277,2.0294,2.0302,2.0302,2.03,2.0325,2.0363,2.0396,2.0439,2.0472,2.0516,2.0553,2.0597,2.0593,2.0586,2.0599,2.0601,2.0651,2.0844,2.1241,2.1639,2.2148,2.2582,2.2442,2.28,2.3394,2.3345,2.4204,2.4887,2.519,2.5363,2.5535,2.5598,2.57,2.5694,2.5697,2.57,2.5693,2.5697,2.5687,2.567,2.5646,2.5588,2.5536,2.5362,2.471,2.4049,2.4116,2.4189,2.3032,2.2264,2.2346,2.2606,2.3618,2.426,2.4643,2.4936,2.519,2.5434,2.5501,2.5501,2.5511,2.5511,2.5511,2.5511,2.5511,2.5511,2.5511,2.5493,2.5484,2.299,2.2492,2.2429,2.1836,2.0931,2.1109,2.0719,2.0009,1.9962,1.9971,1.9981,1.996,1.994,1.9928,1.9919,1.9919,1.9936,2.0146,2.0035,1.9974,2.0016,2.0007,1.9814,1.9717,1.9723,1.9712,1.9738,1.9694,1.969,1.969,1.9694,1.9705,1.9725,1.9699,1.9686,1.9699,1.9699,1.9669,1.9624,1.9694,1.9809,1.9851,1.999,2.0126,2.0207,2.023,2.0285,2.0298,2.0298,2.0292,2.0317,2.0363,2.0402,2.0434,2.0456,2.0497,2.0518,2.0523,2.0529,2.0562,2.0594,2.0597,2.068,2.0936,2.1695,2.1933,2.204,2.2585,2.2287,2.2693,2.3296,2.3199,2.396,2.476,2.5443,2.559,2.5697,2.5698,2.5697,2.5697,2.57,2.57,2.5697,2.5697,2.5683,2.5666,2.5652,2.5642,2.5615,2.5586,2.4812,2.3995,2.3669,2.3513,2.2284,2.1526,2.1608,2.2005,2.3008,2.3641,2.3905,2.443,2.4861,2.5103,2.5269,2.5501,2.5511,2.5511,2.5511,2.5511,2.5511,2.5511,2.5511,2.5493,2.5466,2.241,2.2413,2.2442,2.1526,2.0134,2.0878,2.0715,1.9919,1.99,1.9917,1.9894,1.9852,1.9806,1.9751,1.9806,1.9806,1.9776,2.056,2.0285,2.0146,2.0354,2.0171,1.989,1.9707,1.9719,1.9697,1.9671,1.9645,1.9609,1.9605,1.9641,1.9686,1.9686,1.9664,1.966,1.9669,1.9656,1.9638,1.9611,1.9673,1.9773,1.9839,1.9939,2.0136,2.0199,2.0223,2.0304,2.0313,2.0421,2.0431,2.0392,2.0373,2.0399,2.0444,2.0465,2.0497,2.0506,2.0509,2.0516,2.0562,2.0587,2.0603,2.0683,2.0976,2.1797,2.1914,2.201,2.2176,2.2093,2.2089,2.2467,2.272,2.3599,2.4467,2.5258,2.5629,2.5695,2.5701,2.57,2.57,2.5693,2.5693,2.5693,2.5693,2.566,2.5642,2.5634,2.5624,2.5615,2.5483,2.4642,2.3854,2.3256,2.2513,2.1187,2.0827,2.103,2.1388,2.2132,2.2624,2.2946,2.3569,2.4281,2.4503,2.465,2.5095,2.5501,2.5463,2.5453,2.5501,2.5511,2.5511,2.5493,2.5466,2.5439,2.1514,2.1544,2.1566,2.1205,2.0646,2.1007,2.0658,1.999,1.984,1.9804,1.9776,1.9741,1.9729,1.9707,1.9716,1.9738,1.9741,1.9974,1.9907,1.9829,1.9871,1.9866,1.9634,1.9615,1.9601,1.9601,1.9582,1.9569,1.9527,1.9611,1.955,1.9578,1.9647,1.9629,1.9615,1.9638,1.9611,1.9625,1.9647,1.9709,1.9779,1.9839,1.9939,2.0117,2.0198,2.0557,2.0905,2.0525,2.0692,2.0809,2.059,2.0462,2.0391,2.0434,2.0459,2.0503,2.0504,2.0521,2.0547,2.0583,2.0598,2.0604,2.0654,2.0947,2.1728,2.1875,2.2226,2.2323,2.2095,2.1887,2.2642,2.2945,2.3482,2.4321,2.4914,2.5344,2.5644,2.562,2.5671,2.5661,2.5683,2.5703,2.5699,2.5699,2.5652,2.5609,2.561,2.56,2.5605,2.5458,2.467,2.379,2.3144,2.2376,2.1119,2.0769,2.056,2.0917,2.1338,2.1704,2.2162,2.2827,2.3441,2.3693,2.408,2.4536,2.4933,2.5242,2.5387,2.5445,2.5484,2.5511,2.5493,2.5448,2.5421,2.063,2.0607,2.0585,2.0624,2.0703,2.0931,2.0584,1.9882,1.9741,1.969,1.9628,1.9637,1.9624,1.962,1.9656,1.9629,1.9606,1.9643,1.9606,1.9573,1.9554,1.9521,1.9516,1.9492,1.9488,1.9512,1.978,1.9882,1.9895,1.983,1.9919,1.9882,1.9632,1.9559,1.9574,1.9592,1.9592,1.9611,1.9656,1.9735,1.9788,1.9858,1.995,2.0088,2.0162,2.043,2.0766,2.0594,2.0626,2.0777,2.072,2.0487,2.0434,2.0422,2.0445,2.0476,2.0521,2.0547,2.0581,2.0604,2.0599,2.0595,2.0602,2.0937,2.1338,2.1533,2.163,2.1971,2.1725,2.1772,2.2447,2.2437,2.2955,2.3706,2.4077,2.4516,2.5205,2.5435,2.5548,2.5619,2.5654,2.5699,2.5685,2.5681,2.5643,2.5605,2.561,2.56,2.5604,2.537,2.4878,2.395,2.3046,2.2225,2.138,2.0903,2.0481,2.0535,2.0892,2.1035,2.1488,2.2123,2.2745,2.32,2.3606,2.4014,2.4345,2.4672,2.5041,2.5389,2.5427,2.5466,2.545,2.5422,2.5412,1.9776,1.9705,1.9716,1.972,1.9903,2.0582,2.0392,1.9675,1.9633,1.9564,1.9499,1.9499,1.9475,1.944,1.9484,1.9484,1.944,1.9418,1.9422,1.9429,1.942,1.9453,1.9444,1.942,1.9405,1.9608,1.9985,2.0369,2.0464,2.0547,2.0581,2.0255,1.9789,1.9464,1.9494,1.956,1.9592,1.9606,1.9679,1.9735,1.9801,1.9858,1.998,2.0069,2.0172,2.0392,2.0689,2.0566,2.0596,2.0789,2.0648,2.0493,2.0484,2.0483,2.049,2.0507,2.0568,2.0591,2.0603,2.0603,2.0599,2.0605,2.0602,2.072,2.0692,2.0722,2.0829,2.1256,2.0904,2.0773,2.1052,2.152,2.2398,2.2945,2.3326,2.3958,2.4666,2.5103,2.5168,2.5544,2.5664,2.5699,2.5681,2.5657,2.5625,2.561,2.5608,2.5607,2.5607,2.5442,2.5048,2.4381,2.3419,2.2548,2.1766,2.0869,2.0427,2.0423,2.0485,2.0691,2.0878,2.1327,2.1959,2.259,2.2912,2.311,2.3593,2.4084,2.43,2.4534,2.5247,2.5411,2.5394,2.5387,2.5387,1.9741,1.9707,1.9632,1.9619,1.9688,1.9903,1.9852,1.9634,1.9541,1.9462,1.9392,1.9381,1.9369,1.9354,1.9344,1.9341,1.9286,1.9314,1.9323,1.9329,1.9341,1.9338,1.9338,1.9362,1.9347,1.9553,2.0094,2.0547,2.0495,2.0868,2.0816,2.0468,1.9835,1.9463,1.948,1.9527,1.955,1.9611,1.9705,1.9773,1.9801,1.9892,2.0001,2.0108,2.0217,2.0485,2.0881,2.0631,2.0618,2.091,2.0784,2.0511,2.0509,2.051,2.0521,2.0545,2.0603,2.0603,2.0603,2.0604,2.0596,2.0601,2.0604,2.0603,2.0599,2.0595,2.0605,2.0602,2.0601,2.0597,2.077,2.1461,2.2153,2.235,2.2807,2.3644,2.4295,2.4508,2.4725,2.5366,2.5697,2.567,2.5652,2.5649,2.5615,2.5605,2.5603,2.5607,2.5607,2.5601,2.5372,2.4807,2.4008,2.3085,2.2165,2.1094,2.0468,2.0404,2.0404,2.0459,2.0643,2.0817,2.1033,2.1607,2.1893,2.2195,2.2593,2.2962,2.3216,2.3594,2.4324,2.5029,2.5194,2.5263,2.5369,1.9791,1.9735,1.9668,1.9624,1.9592,1.9601,1.9578,1.9518,1.9476,1.9404,1.932,1.9317,1.932,1.9304,1.9289,1.9266,1.92,1.927,1.9292,1.9282,1.9295,1.9317,1.9332,1.9323,1.9305,1.9519,2.0035,2.0505,2.0515,2.101,2.0735,2.0078,1.9806,1.9675,1.961,1.9518,1.9532,1.962,1.9722,1.9801,1.9852,1.9946,2.004,2.0126,2.0271,2.0508,2.0834,2.0846,2.0662,2.0988,2.0876,2.0513,2.051,2.0518,2.0538,2.058,2.0603,2.0603,2.0603,2.0603,2.0604,2.0604,2.0604,2.0605,2.0602,2.0595,2.0595,2.0602,2.062,2.0831,2.1082,2.1743,2.1832,2.2047,2.228,2.3107,2.4088,2.432,2.4546,2.5197,2.5687,2.5656,2.5628,2.562,2.5605,2.5599,2.5607,2.5601,2.5601,2.5605,2.5473,2.4882,2.4122,2.3056,2.2075,2.1124,2.0624,2.0418,2.0389,2.0389,2.0408,2.0579,2.0592,2.0624,2.1052,2.1386,2.1519,2.1803,2.2419,2.2921,2.3431,2.4125,2.48,2.5081,2.5216,1.9861,1.9788,1.9712,1.966,1.9614,1.9606,1.9536,1.9418,1.9418,1.9356,1.9323,1.9383,1.9362,1.9314,1.9292,1.9261,1.9251,1.9298,1.9298,1.9314,1.9329,1.936,1.9375,1.9366,1.9329,1.958,2.0026,2.0505,2.0497,2.0645,2.0234,1.99,2.0028,1.981,1.9577,1.9494,1.9537,1.9641,1.9738,1.9816,1.9877,1.9959,2.006,2.0143,2.0249,2.0359,2.0517,2.0493,2.0497,2.0585,2.053,2.0505,2.0507,2.0511,2.0543,2.058,2.0603,2.0603,2.0603,2.0603,2.0603,2.0596,2.0604,2.0595,2.0596,2.0596,2.0604,2.0699,2.0794,2.1269,2.1704,2.1715,2.1745,2.1754,2.1692,2.2656,2.3891,2.4344,2.4518,2.4966,2.5508,2.5652,2.5619,2.561,2.5589,2.5578,2.5576,2.5585,2.5589,2.5609,2.5363,2.4746,2.3899,2.285,2.1936,2.1188,2.0637,2.0389,2.0389,2.0389,2.0389,2.0408,2.0524,2.0576,2.0511,2.0652,2.0892,2.1386,2.2005,2.2419,2.2537,2.3472,2.4233,2.4764,2.4986,1.9934,1.9868,1.9859,1.9804,1.9748,1.9694,1.9582,1.9488,1.9464,1.9468,1.9435,1.9377,1.9368,1.936,1.9366,1.9341,1.9341,1.9351,1.9384,1.9399,1.9405,1.9448,1.9463,1.9468,1.9411,1.9629,2.003,2.0427,2.0471,2.0455,2.0874,2.1088,2.0276,1.9798,1.9571,1.9471,1.9569,1.9671,1.977,1.9833,1.9902,1.998,2.0088,2.0168,2.0246,2.0325,2.0389,2.0442,2.0478,2.0502,2.0505,2.0509,2.0507,2.0511,2.0533,2.0591,2.0603,2.0603,2.0603,2.0603,2.0624,2.0646,2.0652,2.0605,2.0596,2.0605,2.0612,2.0834,2.1163,2.1657,2.2153,2.2281,2.2389,2.2475,2.2434,2.292,2.4008,2.4364,2.4576,2.5157,2.5675,2.5625,2.56,2.559,2.5578,2.556,2.5548,2.5557,2.5567,2.558,2.5273,2.4655,2.3818,2.2814,2.2152,2.144,2.084,2.0389,2.0399,2.0408,2.0389,2.0428,2.0524,2.0511,2.043,2.0366,2.0388,2.0894,2.1363,2.1296,2.1461,2.2608,2.361,2.4168,2.4687,1.9999,1.9934,1.9908,1.9849,1.9757,1.9719,1.9651,1.9588,1.9606,1.9611,1.956,1.9532,1.9494,1.9493,1.9513,1.948,1.9409,1.9446,1.9474,1.9455,1.9484,1.9513,1.9536,1.9574,1.956,1.974,1.9878,2.0094,2.0322,2.0756,2.1186,2.0547,2.0067,1.9997,1.9684,1.9569,1.9658,1.9735,1.9809,1.986,1.9927,2.002,2.0116,2.0219,2.0296,2.0372,2.0429,2.0478,2.0493,2.0507,2.0509,2.0506,2.0513,2.0526,2.0547,2.0603,2.0603,2.0603,2.0651,2.1024,2.0887,2.0813,2.0907,2.0898,2.0703,2.0603,2.0863,2.1162,2.1639,2.2115,2.2603,2.3043,2.3306,2.3558,2.3517,2.3476,2.391,2.4335,2.4869,2.5475,2.5658,2.5595,2.5579,2.5539,2.556,2.5544,2.5531,2.5531,2.5531,2.5541,2.5159,2.4583,2.3743,2.2846,2.223,2.1604,2.1024,2.0563,2.0502,2.0482,2.0428,2.0412,2.0482,2.0414,2.0323,2.0296,2.0289,2.0258,2.0521,2.0531,2.0731,2.1571,2.2688,2.365,2.4149,2.0174,2.0112,1.9966,1.9844,1.9725,1.9735,1.9712,1.9731,1.9773,1.9763,1.9703,1.976,1.9703,1.9637,1.966,1.9628,1.9555,1.9555,1.9564,1.9523,1.9564,1.9592,1.9632,1.9684,1.9681,1.9697,1.9825,2.0052,2.0267,2.0737,2.0783,1.9697,2.0967,2.1164,2.0336,2.0252,2.0304,2.0191,2.0151,2.0131,2.0038,2.0088,2.0161,2.0289,2.0366,2.0423,2.0458,2.0488,2.0507,2.0506,2.0511,2.0507,2.0533,2.0552,2.0591,2.0603,2.0603,2.0778,2.0973,2.1385,2.1427,2.1392,2.1445,2.1494,2.1345,2.1032,2.1283,2.1707,2.2184,2.2943,2.3519,2.3901,2.4184,2.4329,2.4337,2.4362,2.46,2.4872,2.5101,2.5483,2.5304,2.5191,2.4662,2.4562,2.4468,2.4941,2.5246,2.5217,2.5255,2.5246,2.4982,2.4433,2.361,2.2791,2.2162,2.1575,2.1121,2.0792,2.0621,2.074,2.0811,2.0643,2.0414,2.0361,2.0292,2.0301,2.0294,2.0262,2.0262,2.0327,2.0539,2.0773,2.167,2.292,2.3688,2.1119,2.0995,2.023,1.9894,1.984,1.9859,1.9859,1.9859,1.9882,1.9818,1.9713,1.9723,1.9754,1.9763,1.9763,1.9741,1.9748,1.9699,1.9709,1.9709,1.9712,1.9716,1.9741,1.9776,1.9826,1.9763,1.9879,2.0363,2.0973,2.1269,2.162,2.2023,2.2414,2.1693,2.1217,2.1241,2.1217,2.0632,2.0848,2.0491,2.0107,2.0107,2.0167,2.0272,2.0357,2.039,2.0429,2.0478,2.0496,2.0508,2.0506,2.0528,2.0568,2.0591,2.0603,2.0603,2.0663,2.0993,2.1444,2.1884,2.2102,2.2216,2.2294,2.2312,2.2173,2.1812,2.1849,2.2312,2.2875,2.3704,2.4378,2.4711,2.4965,2.5041,2.5098,2.5198,2.5281,2.5294,2.5362,2.5231,2.5011,2.4457,2.3895,2.3683,2.3502,2.3755,2.4204,2.4399,2.4497,2.4535,2.4633,2.413,2.3432,2.2677,2.2042,2.1462,2.0969,2.0714,2.0534,2.0778,2.1099,2.0889,2.0603,2.0398,2.0296,2.0289,2.0289,2.0291,2.0291,2.0289,2.0377,2.0631,2.1318,2.2451,2.3169,2.0934,2.0785,2.0239,1.9978,1.9996,1.9955,1.9946,1.9955,1.9967,1.9945,1.9866,1.983,1.9833,1.9875,1.9842,1.9859,1.988,1.9859,1.9835,1.9844,1.9847,1.9847,1.9859,1.9877,2.0247,2.0301,2.0724,2.1279,2.1713,2.2108,2.2479,2.2805,2.2452,2.237,2.2013,2.1965,2.1853,2.0715,2.1427,2.1195,2.0394,2.0217,2.0209,2.0294,2.036,2.0421,2.0419,2.0468,2.0496,2.0502,2.0507,2.0546,2.058,2.0603,2.0604,2.0742,2.0976,2.1396,2.1946,2.2484,2.2886,2.2959,2.3278,2.3335,2.2932,2.2678,2.3132,2.3556,2.3607,2.4319,2.4907,2.5317,2.5375,2.5434,2.5447,2.55,2.5272,2.5046,2.5259,2.545,2.4804,2.3679,2.3408,2.379,2.3686,2.3895,2.4156,2.4164,2.4147,2.405,2.4084,2.3848,2.3151,2.2497,2.1852,2.127,2.0753,2.0546,2.0455,2.0535,2.0711,2.0836,2.079,2.0462,2.0264,2.0273,2.0273,2.0275,2.0292,2.03,2.0371,2.0507,2.128,2.2039,2.2794,2.0419,2.0207,2.0126,2.0108,2.0098,2.004,1.9992,2.0001,2.006,2.0098,2.0067,1.9965,1.9958,1.9947,1.9947,1.9974,1.9973,1.993,1.9919,1.9921,1.9913,1.993,1.9928,1.9989,2.0422,2.0953,2.1428,2.1576,2.1774,2.2406,2.2815,2.2585,2.2738,2.2961,2.218,2.2143,2.2443,2.1842,2.1885,2.1828,2.1144,2.0409,2.0523,2.0543,2.0539,2.0626,2.0716,2.0692,2.0739,2.0626,2.0642,2.0562,2.058,2.0612,2.083,2.0978,2.1424,2.1908,2.2507,2.3276,2.3446,2.3631,2.4088,2.3988,2.3488,2.3687,2.413,2.4298,2.4358,2.4604,2.5199,2.5414,2.5443,2.5354,2.5357,2.5327,2.4947,2.4646,2.4958,2.5227,2.4118,2.2895,2.3215,2.3605,2.3656,2.3909,2.4207,2.4226,2.4186,2.3995,2.3916,2.3519,2.2903,2.2249,2.1689,2.1118,2.06,2.0547,2.0465,2.0369,2.04,2.0797,2.0829,2.0361,2.0229,2.0238,2.024,2.0232,2.0249,2.0277,2.0315,2.0462,2.1148,2.1895,2.259,2.095,2.0201,2.0125,2.0117,2.0089,2.0031,1.9992,2.0011,2.0069,2.0117,2.0107,2.0088,2.0048,2.0001,2.0057,2.0067,2.0008,1.9977,1.9977,1.9977,1.9978,1.9985,2.0107,2.0325,2.0579,2.1121,2.1714,2.206,2.248,2.3206,2.3851,2.4181,2.4327,2.4433,2.4346,2.4219,2.3852,2.314,2.2978,2.3146,2.2385,2.1782,2.1415,2.1417,2.1461,2.1919,2.2143,2.1838,2.1651,2.1377,2.1082,2.088,2.0876,2.0965,2.119,2.1642,2.207,2.2604,2.3279,2.3562,2.3613,2.38,2.4004,2.3758,2.3603,2.3925,2.4227,2.4298,2.4378,2.4505,2.4866,2.4668,2.46,2.4281,2.4156,2.406,2.3829,2.3869,2.4069,2.3602,2.2694,2.2481,2.2965,2.289,2.2295,2.2796,2.3755,2.3746,2.3266,2.3429,2.3803,2.3265,2.2717,2.2195,2.1702,2.1039,2.0566,2.0529,2.0481,2.0356,2.051,2.1017,2.0931,2.0384,2.0212,2.0214,2.0205,2.0205,2.0215,2.0233,2.022,2.0435,2.111,2.1655,2.2254]},{"header":{"parameterUnit":"m.s-1","parameterCategory":1,"la1":31.0,"la2":29.5877,"lo1":-88.7671,"lo2":-86.6584,"dy":0.0162,"dx":0.0185,"nx":115,"ny":88,"refTime":"2023-07-24T06:00:00:Z","depth":0,"parameterNumber":3,"parameterNumberName":"V-component_of_WINDS"},"data":[0.0,0.0,0.0,0.0,0.0,0.0,0.0,0.0,0.0,0.0,0.0,0.0,0.0,0.0,0.0,0.0,0.0,0.0,0.0,0.0,0.0,0.0,0.0,0.0,0.0,0.0,0.0,0.0,0.0,0.0,0.0,0.0,0.0,0.0,0.0,0.0,0.0,0.0,0.0,0.0,0.0,0.0,0.0,0.0,0.0,0.0,0.0,0.0,0.0,0.0,0.0,0.0,0.0,0.0,0.0,0.0,0.0,0.0,0.0,0.0,0.0,0.0,0.0,0.0,0.0,0.0,0.0,0.0,0.0,0.0,0.0,0.0,0.0,0.0,0.0,0.0,0.0,0.0,0.0,0.0,0.0,0.0,0.0,0.0,0.0,0.0,0.0,0.0,0.0,0.0,0.0,0.0,0.0,0.0,0.0,0.0,0.0,0.0,0.0,0.0,0.0,0.0,0.0,0.0,0.0,0.0,0.0,0.0,0.0,0.0,0.0,0.0,0.0,0.0,0.0,0.0,0.0,0.0,0.0,0.0,0.0,0.0,0.0,0.0,0.0,0.0,0.0,0.0,0.0,0.0,0.0,0.0,0.0,0.0,0.0,0.0,0.0,0.0,0.0,0.0,0.0,0.0,0.0,0.0,0.0,0.0,0.0,0.0,0.0,0.0,0.0,0.0,0.0,0.0,0.0,0.0,0.0,0.0,0.0,0.0,0.0,0.0,0.0,0.0,0.0,0.0,0.0,0.0,0.0,0.0,0.0,0.0,0.0,0.0,0.0,0.0,0.0,0.0,0.0,0.0,0.0,0.0,0.0,0.0,0.0,0.0,0.0,0.0,0.0,0.0,0.0,0.0,0.0,0.0,0.0,0.0,0.0,0.0,0.0,0.0,0.0,0.0,0.0,0.0,0.0,0.0,0.0,0.0,0.0,0.0,0.0,0.0,0.0,0.0,0.0,0.0,0.0,0.0,0.0,0.0,0.0,0.0,0.0,0.0,0.0,0.0,0.0,0.0,0.0,0.0,0.0,0.0,0.0,0.0,0.0,0.0,0.0,0.0,0.0,0.0,0.0,0.0,0.0,0.0,0.0,0.0,0.0,0.0,0.0,0.0,0.0,0.0,0.0,0.0,0.0,0.0,0.0,0.0,0.0,0.0,0.0,0.0,0.0,0.0,0.0,0.0,0.0,0.0,0.0,0.0,0.0,0.0,0.0,0.0,0.0,0.0,0.0,0.0,0.0,0.0,0.0,0.0,0.0,0.0,0.0,0.0,0.0,0.0,0.0,0.0,0.0,0.0,0.0,0.0,0.0,0.0,0.0,0.0,0.0,0.0,0.0,0.0,0.0,0.0,0.0,0.0,0.0,0.0,0.0,0.0,0.0,0.0,0.0,0.0,0.0,0.0,0.0,0.0,0.0,0.0,0.0,0.0,0.0,0.0,0.0,0.0,0.0,0.0,0.0,0.0,0.0,0.0,0.0,0.0,0.0,0.0,0.0,0.0,0.0,0.0,0.0,0.0,0.0,0.0,0.0,0.0,0.0,0.0,0.0,0.0,0.0,0.0,0.0,0.0,0.0,0.0,0.0,0.0,0.0,0.0,0.0,0.0,0.0,0.0,0.0,0.0,0.0,0.0,0.0,0.0,0.0,0.0,0.0,0.0,0.0,0.0,0.0,0.0,0.0,0.0,0.0,0.0,0.0,0.0,0.0,0.0,0.0,0.0,0.0,0.0,0.0,0.0,0.0,0.0,0.0,0.0,0.0,0.0,0.0,0.0,0.0,0.0,0.0,0.0,0.0,0.0,0.0,0.0,0.0,0.0,0.0,0.0,0.0,0.0,0.0,0.0,0.0,0.0,0.0,0.0,0.0,0.0,0.0,0.0,0.0,0.0,0.0,0.0,0.0,0.0,0.0,0.0,0.0,0.0,0.0,0.0,0.0,0.0,0.0,0.0,0.0,0.0,0.0,0.0,0.0,0.0,0.0,0.0,0.0,0.0,0.0,0.0,0.0,0.0,0.0,0.0,0.0,0.0,0.0,0.0,0.0,0.0,0.0,0.0,0.0,0.0,0.0,0.0,0.0,0.0,0.0,0.0,0.0,0.0,0.0,0.0,0.0,0.0,0.0,0.0,0.0,0.0,0.0,0.0,0.0,0.0,0.0,0.0,0.0,0.0,0.0,0.0,0.0,0.0,0.0,0.0,0.0,0.0,0.0,0.0,0.0,0.0,0.0,0.0,0.0,0.0,0.0,0.0,0.0,0.0,0.0,0.0,0.0,0.0,0.0,0.0,0.0,0.0,0.0,0.0,0.0,0.0,0.0,0.0,0.0,0.0,0.0,0.0,0.0,0.0,0.0,0.0,0.0,0.0,0.0,0.0,0.0,0.0,0.0,0.0,0.0,0.0,0.0,0.0,0.0,0.0,0.0,0.0,0.0,0.0,0.0,0.0,0.0,0.0,0.0,0.0,0.0,0.0,0.0,0.0,0.0,0.0,0.0,0.0,0.0,0.0,0.0,0.0,0.0,0.0,0.0,0.0,0.0,0.0,0.0,0.0,0.0,0.0,0.0,0.0,0.0,0.0,0.0,0.0,0.0,0.0,0.0,0.0,0.0,0.0,0.0,0.0,0.0,0.0,0.0,0.0,0.0,0.0,0.0,0.0,0.0,0.0,0.0,0.0,0.0,0.0,0.0,0.0,0.0,0.0,0.0,0.0,0.0,0.0,0.0,0.0,0.0,0.0,0.0,0.0,0.0,0.0,0.0,0.0,0.0,0.0,0.0,0.0,0.0,0.0,0.0,0.0,0.0,0.0,0.0,0.0,0.0,0.0,0.0,0.0,0.0,0.0,0.0,0.0,0.0,0.0,0.0,0.0,0.0,0.0,0.0,0.0,0.0,0.0,0.0,0.0,0.0,0.0,0.0,0.0,0.0,0.0,0.0,0.0,0.0,0.0,0.0,0.0,0.0,0.0,0.0,0.0,0.0,0.0,0.0,0.0,0.0,0.0,0.0,0.0,0.0,0.0,0.0,0.0,0.0,0.0,0.0,0.0,0.0,0.0,0.0,0.0,0.0,0.0,0.0,0.0,0.0,0.0,0.0,0.0,0.0,0.0,0.0,0.0,0.0,0.0,0.0,0.0,0.0,0.0,0.0,0.0,0.0,0.0,0.0,0.0,0.0,0.0,0.0,0.0,0.0,0.0,0.0,0.0,0.0,0.0,0.0,0.0,0.0,0.0,0.0,0.0,0.0,0.0,0.0,0.0,0.0,0.0,0.0,0.0,0.0,0.0,0.0,0.0,0.0,0.0,0.0,0.0,0.0,0.0,0.0,0.0,0.0,0.0,0.0,0.0,0.0,0.0,0.0,0.0,0.0,0.0,0.0,0.0,0.0,0.0,0.0,0.0,0.0,0.0,0.0,0.0,0.0,0.0,0.0,0.0,0.0,0.0,0.0,0.0,0.0,0.0,0.0,0.0,0.0,0.0,0.0,0.0,0.0,0.0,0.0,0.0,0.0,0.0,0.0,0.0,0.0,0.0,0.0,0.0,0.0,0.0,0.0,0.0,0.0,0.0,0.0,0.0,0.0,0.0,0.0,0.0,0.0,0.0,0.0,0.0,0.0,0.0,0.0,0.0,0.0,0.0,0.0,0.0,0.0,0.0,0.0,0.0,0.0,0.0,0.0,0.0,0.0,0.0,0.0,0.0,0.0,0.0,0.0,0.0,0.0,0.0,0.0,0.0,0.0,0.0,0.0,0.0,0.0,0.0,0.0,0.0,0.0,0.0,0.0,0.0,0.0,0.0,0.0,0.0,0.0,0.0,0.0,0.0,0.0,0.0,0.0,0.0,0.0,0.0,0.0,0.0,0.0,0.0,0.0,0.0,0.0,0.0,0.0,0.0,0.0,0.0,0.0,0.0,0.0,0.0,0.0,0.0,0.0,0.0,0.0,0.0,0.0,0.0,0.0,0.0,0.0,0.0,0.0,0.0,0.0,0.0,0.0,0.0,0.0,0.0,0.0,0.0,0.0,0.0,0.0,0.0,0.0,0.0,0.0,0.0,0.0,0.0,0.0,0.0,0.0,0.0,0.0,0.0,0.0,0.0,0.0,0.0,0.0,0.0,0.0,0.0,0.0,0.0,0.0,0.0,0.0,0.0,0.0,0.0,0.0,0.0,0.0,0.0,0.0,0.0,0.0,0.0,0.0,0.0,0.0,0.0,0.0,0.0,0.0,0.0,0.0,0.0,0.0,0.0,0.0,0.0,0.0,0.0,0.0,0.0,-0.4154,0.0,0.0,0.0,0.0,0.0,0.0,0.0,0.0,0.0,0.0,0.0,0.0,0.0,0.0,0.0,0.0,0.0,0.0,0.0,0.0,0.0,0.0,0.0,0.0,0.0,0.0,0.0,0.0,0.0,0.0,0.0,0.0,0.0,0.0,0.0,0.0,0.0,0.0,0.0,0.0,0.0,0.0,0.0,0.0,0.0,0.0,0.0,0.0,0.0,0.0,0.0,0.0,0.0,0.0,0.0,0.0,0.0,0.0,0.0,0.0,0.0,0.0,0.0,0.0,0.0,0.0,0.0,0.0,0.0,0.0,0.0,0.0,0.0,0.0,0.0,0.0,0.0,0.0,0.0,0.0,0.0,0.0,0.0,0.0,0.0,0.0,0.0,0.0,0.0,0.0,0.0,0.0,0.0,0.0,0.0,0.0,0.0,0.0,0.0,0.0,0.0,0.0,0.0,0.0,0.0,0.0,0.0,0.0,0.0,0.0,-0.4112,-0.4042,-0.4042,-0.4039,-0.399,0.0,0.0,0.0,0.0,0.0,0.0,0.0,0.0,0.0,0.0,0.0,0.0,0.0,0.0,0.0,0.0,0.0,0.0,0.0,0.0,0.0,0.0,0.0,0.0,0.0,0.0,0.0,0.0,0.0,0.0,0.0,0.0,0.0,0.0,0.0,0.0,0.0,0.0,0.0,0.0,0.0,0.0,0.0,0.0,0.0,0.0,0.0,0.0,0.0,0.0,0.0,0.0,0.0,0.0,0.0,0.0,0.0,0.0,0.0,0.0,0.0,0.0,0.0,0.0,0.0,0.0,0.0,0.0,0.0,0.0,0.0,0.0,0.0,0.0,0.0,0.0,0.0,0.0,0.0,0.0,0.0,0.0,0.0,0.0,0.0,0.0,0.0,0.0,0.0,0.0,0.0,0.0,0.0,0.0,0.0,0.0,0.0,0.0,0.0,0.0,0.0,0.0,0.0,0.0,0.0,0.0,0.0,0.0,0.0,0.0,0.0,0.0,-0.3943,-0.3901,-0.3807,0.0,0.0,0.0,0.0,0.0,0.0,0.0,0.0,0.0,0.0,0.0,0.0,0.0,0.0,0.0,0.0,0.0,0.0,0.0,0.0,0.0,0.0,0.0,0.0,0.0,0.0,0.0,0.0,0.0,0.0,0.0,0.0,0.0,0.0,0.0,0.0,0.0,0.0,0.0,0.0,0.0,0.0,0.0,0.0,0.0,0.0,0.0,0.0,0.0,0.0,0.0,0.0,0.0,0.0,0.0,0.0,0.0,0.0,0.0,0.0,0.0,0.0,0.0,0.0,0.0,0.0,0.0,0.0,0.0,0.0,0.0,0.0,0.0,0.0,0.0,0.0,0.0,0.0,0.0,0.0,0.0,0.0,0.0,0.0,0.0,0.0,0.0,0.0,0.0,0.0,0.0,0.0,0.0,0.0,0.0,0.0,0.0,0.0,0.0,0.0,0.0,0.0,0.0,0.0,0.0,0.0,0.0,0.0,0.0,0.0,-0.3852,-0.3727,-0.3731,0.0,-0.3545,0.0,0.0,0.0,0.0,0.0,0.0,0.0,0.0,0.0,0.0,0.0,0.0,0.0,0.0,0.0,0.0,0.0,0.0,0.0,0.0,0.0,0.0,0.0,0.0,0.0,0.0,0.0,0.0,0.0,0.0,0.0,0.0,0.0,0.0,0.0,0.0,0.0,0.0,0.0,0.0,0.0,0.0,0.0,0.0,0.0,0.0,0.0,0.0,0.0,0.0,0.0,0.0,0.0,0.0,0.0,0.0,0.0,0.0,0.0,0.0,0.0,0.0,0.0,0.0,0.0,0.0,0.0,0.0,0.0,0.0,0.0,0.0,0.0,0.0,0.0,0.0,0.0,0.0,0.0,0.0,0.0,0.0,0.0,0.0,0.0,0.0,0.0,0.0,0.0,0.0,0.0,0.0,0.0,0.0,0.0,0.0,0.0,0.0,0.0,0.0,0.0,0.0,0.0,0.0,0.0,0.0,0.0,0.0,0.0,0.0,-0.3556,-0.3444,-0.3472,-0.345,0.0,0.0,0.0,0.0,0.0,0.0,0.0,0.0,0.0,0.0,0.0,0.0,0.0,0.0,0.0,0.0,0.0,0.0,0.0,0.0,0.0,0.0,0.0,0.0,0.0,0.0,0.0,0.0,0.0,0.0,0.0,0.0,0.0,0.0,0.0,0.0,0.0,0.0,0.0,0.0,0.0,0.0,0.0,0.0,0.0,0.0,0.0,0.0,0.0,0.0,0.0,0.0,0.0,0.0,0.0,0.0,0.0,0.0,0.0,0.0,0.0,0.0,0.0,0.0,0.0,0.0,0.0,0.0,0.0,0.0,0.0,0.0,0.0,0.0,0.0,0.0,0.0,0.0,0.0,0.0,0.0,0.0,0.0,0.0,0.0,0.0,0.0,0.0,0.0,0.0,0.0,0.0,0.0,0.0,0.0,0.0,0.0,0.0,0.0,0.0,0.0,0.0,0.0,0.0,0.0,0.0,0.0,0.0,0.0,0.0,-0.3538,-0.3405,-0.3302,-0.3257,-0.3281,-0.3351,0.0,0.0,0.0,0.0,0.0,0.0,0.0,0.0,0.0,0.0,0.0,0.0,0.0,0.0,0.0,0.0,0.0,0.0,0.0,0.0,0.0,0.0,0.0,0.0,0.0,0.0,0.0,0.0,0.0,0.0,0.0,0.0,0.0,0.0,0.0,0.0,0.0,0.0,0.0,0.0,0.0,0.0,0.0,0.0,0.0,0.0,0.0,0.0,0.0,0.0,0.0,0.0,0.0,0.0,0.0,0.0,0.0,0.0,0.0,0.0,0.0,0.0,0.0,0.0,0.0,0.0,0.0,0.0,0.0,0.0,0.0,0.0,0.0,0.0,0.0,0.0,0.0,0.0,0.0,0.0,0.0,0.0,0.0,0.0,0.0,0.0,0.0,0.0,0.0,0.0,0.0,0.0,0.0,0.0,0.0,0.0,0.0,0.0,0.0,0.0,0.0,0.0,0.0,0.0,0.0,0.0,0.0,0.0,-0.3527,-0.3556,-0.3496,-0.33,-0.3184,-0.3159,0.0,0.0,0.0,0.0,0.0,0.0,0.0,0.0,0.0,0.0,0.0,0.0,0.0,0.0,0.0,0.0,0.0,0.0,0.0,0.0,0.0,0.0,0.0,0.0,0.0,0.0,0.0,0.0,0.0,0.0,0.0,0.0,0.0,0.0,0.0,0.0,0.0,0.0,0.0,0.0,0.0,0.0,0.0,0.0,0.0,0.0,0.0,0.0,0.0,0.0,0.0,0.0,0.0,0.0,0.0,0.0,0.0,0.0,0.0,0.0,0.0,0.0,0.0,0.0,0.0,0.0,0.0,0.0,0.0,0.0,0.0,0.0,0.0,0.0,0.0,0.0,0.0,0.0,0.0,0.0,0.0,0.0,0.0,0.0,0.0,0.0,0.0,0.0,0.0,0.0,0.0,0.0,0.0,0.0,0.0,0.0,0.0,0.0,0.0,0.0,0.0,0.0,0.0,0.0,0.0,0.0,0.0,0.0,0.0,-0.3387,-0.3175,-0.3025,-0.2945,-0.3077,-0.3159,0.0,0.0,0.0,0.0,0.0,0.0,0.0,0.0,0.0,0.0,0.0,0.0,0.0,0.0,0.0,0.0,0.0,0.0,0.0,0.0,0.0,0.0,0.0,0.0,0.0,0.0,0.0,0.0,0.0,0.0,0.0,0.0,0.0,0.0,0.0,0.0,0.0,0.0,0.0,0.0,0.0,0.0,0.0,0.0,0.0,0.0,0.0,0.0,0.0,0.0,0.0,0.0,0.0,0.0,0.0,0.0,0.0,0.0,0.0,0.0,0.0,0.0,0.0,0.0,0.0,0.0,0.0,0.0,0.0,0.0,0.0,0.0,0.0,0.0,0.0,0.0,0.0,0.0,0.0,0.0,0.0,0.0,0.0,0.0,0.0,0.0,0.0,0.0,0.0,0.0,0.0,0.0,0.0,0.0,0.0,0.0,0.0,0.0,0.0,0.0,0.0,0.0,0.0,0.0,0.0,0.0,0.0,0.0,0.0,-0.3263,0.0,-0.2789,-0.2829,-0.3012,-0.3122,0.0,0.0,0.0,0.0,0.0,0.0,0.0,0.0,0.0,0.0,0.0,0.0,0.0,0.0,0.0,0.0,0.0,0.0,0.0,0.0,0.0,0.0,0.0,0.0,0.0,0.0,0.0,0.0,0.0,0.0,0.0,0.0,0.0,0.0,0.0,0.0,0.0,0.0,0.0,0.0,0.0,0.0,0.0,0.0,0.0,0.0,0.0,0.0,0.0,0.0,0.0,0.0,0.0,0.0,0.0,0.0,0.0,0.0,0.0,0.0,0.0,0.0,0.0,0.0,0.0,0.0,0.0,0.0,0.0,0.0,0.0,0.0,0.0,0.0,0.0,0.0,0.0,0.0,0.0,0.0,0.0,0.0,0.0,0.0,0.0,0.0,0.0,0.0,0.0,0.0,0.0,0.0,0.0,0.0,0.0,0.0,0.0,0.0,0.0,0.0,0.0,0.0,0.0,0.0,0.0,0.0,0.0,0.0,-0.366,-0.3202,-0.288,-0.2832,-0.3074,-0.2972,-0.3039,0.0,0.0,0.0,0.0,0.0,0.0,0.0,0.0,0.0,0.0,0.0,0.0,0.0,0.0,0.0,0.0,0.0,0.0,0.0,0.0,0.0,0.0,0.0,0.0,0.0,0.0,0.0,0.0,0.0,0.0,0.0,0.0,0.0,0.0,0.0,0.0,0.0,0.0,0.0,0.0,0.0,0.0,0.0,0.0,0.0,0.0,0.0,0.0,0.0,0.0,0.0,0.0,0.0,0.0,0.0,0.0,0.0,0.0,0.0,0.0,0.0,0.0,0.0,0.0,0.0,0.0,0.0,0.0,0.0,0.0,0.0,0.0,0.0,0.0,0.0,0.0,0.0,0.0,0.0,0.0,0.0,0.0,0.0,0.0,0.0,0.0,0.0,0.0,0.0,0.0,0.0,0.0,0.0,0.0,0.0,0.0,0.0,0.0,0.0,0.0,0.0,0.0,0.0,0.0,0.0,0.0,0.0,0.0,0.0,-0.3202,-0.2965,-0.2898,-0.3048,-0.3129,-0.3233,0.0,0.0,0.0,0.0,0.0,0.0,0.0,0.0,0.0,0.0,0.0,0.0,0.0,0.0,0.0,0.0,0.0,0.0,0.0,0.0,0.0,0.0,0.0,0.0,0.0,0.0,0.0,0.0,0.0,0.0,0.0,0.0,0.0,0.0,0.0,0.0,0.0,0.0,0.0,0.0,0.0,0.0,0.0,0.0,0.0,0.0,0.0,0.0,0.0,0.0,0.0,0.0,0.0,0.0,0.0,0.0,0.0,0.0,0.0,0.0,0.0,0.0,0.0,0.0,0.0,0.0,0.0,0.0,0.0,0.0,0.0,0.0,0.0,0.0,0.0,0.0,0.0,0.0,0.0,0.0,0.0,0.0,0.0,0.0,0.0,0.0,0.0,0.0,0.0,0.0,0.0,0.0,0.0,0.0,0.0,0.0,0.0,0.0,0.0,0.0,0.0,0.0,0.0,0.0,0.0,0.0,0.0,0.0,0.0,-0.3314,-0.308,-0.294,-0.2949,-0.3117,-0.3229,-0.3264,0.0,0.0,0.0,0.0,0.0,0.0,0.0,0.0,0.0,0.0,0.0,0.0,0.0,0.0,0.0,0.0,0.0,0.0,0.0,0.0,0.0,0.0,0.0,0.0,0.0,0.0,0.0,0.0,0.0,0.0,0.0,0.0,0.0,0.0,0.0,0.0,0.0,0.0,0.0,0.0,0.0,0.0,0.0,0.0,0.0,0.0,0.0,0.0,0.0,0.0,0.0,0.0,0.0,0.0,0.0,0.0,0.0,0.0,0.0,0.0,0.0,0.0,0.0,0.0,0.0,0.0,0.0,0.0,0.0,0.0,0.0,0.0,0.0,0.0,0.0,0.0,0.0,0.0,0.0,0.0,0.0,0.0,0.0,0.0,0.0,0.0,0.0,0.0,0.0,0.0,0.0,0.0,0.0,0.0,0.0,0.0,0.0,0.0,0.0,0.0,0.0,0.0,0.0,0.0,0.0,0.0,0.0,0.0,-0.3465,-0.3159,-0.2965,-0.2897,-0.3015,-0.3148,0.0,0.0,0.0,0.0,0.0,0.0,0.0,0.0,0.0,0.0,0.0,0.0,0.0,0.0,0.0,0.0,0.0,0.0,0.0,0.0,0.0,0.0,0.0,0.0,0.0,0.0,0.0,0.0,0.0,0.0,0.0,0.0,0.0,0.0,0.0,0.0,0.0,0.0,0.0,0.0,0.0,0.0,0.0,0.0,0.0,0.0,0.0,0.0,0.0,0.0,0.0,0.0,0.0,0.0,0.0,0.0,0.0,0.0,0.0,0.0,0.0,0.0,0.0,0.0,0.0,0.0,0.0,0.0,0.0,0.0,0.0,0.0,0.0,0.0,0.0,0.0,0.0,0.0,0.0,0.0,0.0,0.0,0.0,0.0,0.0,0.0,0.0,0.0,0.0,0.0,0.0,0.0,0.0,0.0,0.0,0.0,0.0,0.0,0.0,0.0,0.0,0.0,0.0,0.0,0.0,0.0,0.0,0.0,0.0,-0.3259,-0.3054,-0.2944,-0.2976,-0.3102,-0.3257,0.0,0.0,0.0,0.0,0.0,0.0,0.0,0.0,0.0,0.0,0.0,0.0,0.0,0.0,0.0,0.0,0.0,0.0,0.0,0.0,0.0,0.0,0.0,0.0,0.0,0.0,0.0,0.0,0.0,0.0,0.0,0.0,0.0,0.0,0.0,0.0,0.0,0.0,0.0,0.0,0.0,0.0,0.0,0.0,0.0,0.0,0.0,0.0,0.0,0.0,0.0,0.0,0.0,0.0,0.0,0.0,0.0,0.0,0.0,0.0,0.0,0.0,0.0,0.0,0.0,0.0,0.0,0.0,0.0,0.0,0.0,0.0,0.0,0.0,0.0,0.0,0.0,0.0,0.0,0.0,0.0,0.0,0.0,0.0,0.0,0.0,0.0,0.0,0.0,0.0,0.0,0.0,0.0,0.0,0.0,0.0,0.0,0.0,0.0,0.0,0.0,0.0,0.0,0.0,0.0,0.0,0.0,0.0,-0.3129,-0.3173,-0.284,-0.2728,-0.2801,-0.2957,-0.3189,0.0,0.0,0.0,0.0,0.0,0.0,0.0,0.0,0.0,0.0,0.0,0.0,0.0,0.0,0.0,0.0,0.0,0.0,0.0,0.0,0.0,0.0,0.0,0.0,0.0,0.0,0.0,0.0,0.0,0.0,0.0,0.0,0.0,0.0,0.0,0.0,0.0,0.0,0.0,0.0,0.0,0.0,0.0,0.0,0.0,0.0,0.0,0.0,0.0,0.0,0.0,0.0,0.0,0.0,0.0,0.0,0.0,0.0,0.0,0.0,0.0,0.0,0.0,0.0,0.0,0.0,0.0,0.0,0.0,0.0,0.0,0.0,0.0,0.0,0.0,0.0,0.0,0.0,0.0,0.0,0.0,0.0,0.0,0.0,0.0,0.0,0.0,0.0,0.0,0.0,0.0,0.0,0.0,0.0,0.0,0.0,0.0,0.0,0.0,0.0,0.0,0.0,0.0,0.0,0.0,0.0,0.0,0.0,-0.273,-0.3001,-0.2606,-0.2441,-0.2505,-0.276,-0.3031,0.0,0.0,0.0,0.0,0.0,0.0,0.0,0.0,0.0,0.0,0.0,0.0,0.0,0.0,0.0,0.0,0.0,0.0,0.0,0.0,0.0,0.0,0.0,0.0,0.0,0.0,0.0,0.0,0.0,0.0,0.0,0.0,0.0,0.0,0.0,0.0,0.0,0.0,0.0,0.0,0.0,0.0,0.0,0.0,0.0,0.0,0.0,0.0,0.0,0.0,0.0,0.0,0.0,0.0,0.0,0.0,0.0,0.0,0.0,0.0,0.0,0.0,0.0,0.0,0.0,0.0,0.0,0.0,0.0,0.0,0.0,0.0,0.0,0.0,0.0,0.0,0.0,0.0,0.0,0.0,0.0,0.0,0.0,0.0,0.0,0.0,0.0,0.0,0.0,0.0,0.0,0.0,0.0,0.0,0.0,0.0,0.0,0.0,0.0,0.0,0.0,0.0,0.0,0.0,0.0,0.0,0.0,0.0,-0.2644,-0.257,-0.2441,-0.2408,-0.2408,-0.2838,-0.3195,0.0,0.0,0.0,0.0,0.0,0.0,0.0,0.0,0.0,0.0,0.0,0.0,0.0,0.0,0.0,0.0,0.0,0.0,0.0,0.0,0.0,0.0,0.0,0.0,0.0,0.0,0.0,0.0,0.0,0.0,0.0,0.0,0.0,0.0,0.0,0.0,0.0,0.0,0.0,0.0,0.0,0.0,0.0,0.0,0.0,0.0,0.0,0.0,-0.1501,0.0,0.0,0.0,0.0,0.0,0.0,0.0,0.0,0.0,0.0,0.0,0.0,0.0,0.0,0.0,0.0,0.0,0.0,0.0,0.0,0.0,0.0,0.0,0.0,0.0,0.0,0.0,0.0,0.0,0.0,0.0,0.0,0.0,0.0,0.0,0.0,0.0,0.0,0.0,0.0,0.0,0.0,0.0,0.0,0.0,0.0,0.0,0.0,0.0,0.0,0.0,0.0,0.0,0.0,0.0,0.0,0.0,0.0,0.0,-0.2611,-0.2441,-0.2377,-0.2377,-0.2408,-0.2777,-0.3037,0.0,0.0,0.0,0.0,0.0,0.0,0.0,0.0,0.0,0.0,0.0,0.0,0.0,0.0,0.0,0.0,0.0,0.0,0.0,0.0,0.0,0.0,0.0,0.0,0.0,0.0,0.0,0.0,0.0,0.0,0.0,0.0,0.0,0.0,0.0,0.0,0.0,0.0,0.0,0.0,0.0,0.0,0.0,0.0,0.0,0.0,0.0,0.0,0.0,0.0,0.0,0.0,0.0,0.0,0.0,0.0,0.0,0.0,0.0,0.0,0.0,0.0,0.0,0.0,0.0,0.0,0.0,0.0,0.0,0.0,0.0,0.0,0.0,0.0,0.0,0.0,0.0,0.0,0.0,0.0,0.0,0.0,0.0,0.0,0.0,0.0,0.0,0.0,0.0,0.0,0.0,0.0,0.0,0.0,0.0,0.0,0.0,0.0,0.0,0.0,0.0,0.0,0.0,0.0,0.0,0.0,0.0,-0.2812,-0.2578,-0.2409,-0.2352,-0.2315,-0.2374,-0.2679,-0.2868,-0.291,0.0,0.0,0.0,0.0,0.0,0.0,0.0,0.0,0.0,0.0,0.0,0.0,0.0,0.0,0.0,0.0,0.0,0.0,0.0,0.0,0.0,0.0,0.0,0.0,0.0,0.0,0.0,0.0,0.0,0.0,0.0,0.0,0.0,0.0,0.0,0.0,0.0,0.0,-0.0538,-0.0595,0.0,0.0,0.0,0.0,0.0,0.0,0.0,0.0,-0.106,0.0,0.0,0.0,0.0,0.0,0.0,0.0,0.0,0.0,0.0,0.0,0.0,0.0,0.0,0.0,0.0,0.0,0.0,0.0,0.0,0.0,0.0,0.0,0.0,0.0,0.0,0.0,0.0,0.0,0.0,0.0,0.0,0.0,0.0,0.0,0.0,0.0,0.0,0.0,0.0,0.0,0.0,0.0,0.0,0.0,0.0,0.0,0.0,0.0,0.0,0.0,0.0,0.0,0.0,0.0,0.0,-0.2773,-0.2611,-0.2344,-0.2011,-0.2217,-0.2252,-0.2182,-0.2746,-0.2992,-0.2914,0.0,0.0,0.0,0.0,0.0,0.0,0.0,0.0,0.0,0.0,0.0,0.0,0.0,0.0,0.0,0.0,0.0,0.0,0.0,0.0,0.0,0.0,0.0,0.0,0.0,0.0,0.0,0.0,0.0,0.0,0.0,0.0,0.0,0.0,0.0,0.0,0.0,0.0,0.0,-0.0508,-0.0416,0.0,0.0,0.0,0.0,0.0,0.0,0.0,0.0,-0.0843,0.0,0.0,0.0,0.0,0.0,0.0,0.0,0.0,0.0,0.0,0.0,0.0,0.0,0.0,0.0,0.0,0.0,0.0,0.0,0.0,0.0,0.0,0.0,0.0,0.0,0.0,0.0,0.0,0.0,0.0,0.0,0.0,0.0,0.0,0.0,0.0,0.0,0.0,0.0,0.0,0.0,0.0,0.0,0.0,0.0,0.0,0.0,0.0,0.0,0.0,0.0,0.0,0.0,0.0,0.0,-0.2697,-0.2543,-0.2344,-0.2115,-0.2217,-0.2285,-0.2279,-0.2577,-0.2828,0.0,0.0,0.0,0.0,0.0,0.0,0.0,0.0,0.0,0.0,0.0,0.0,0.0,0.0,0.0,0.0,0.0,0.0,0.0,0.0,0.0,0.0,0.0,0.0,0.0,0.0,0.0,0.0,0.0,0.0,0.0,0.0,0.0,0.0,0.0,0.0,0.0,0.0,0.0,0.0,-0.0359,-0.0484,-0.0352,0.0,0.0,0.0,0.0,0.0,0.0,-0.0482,-0.0698,0.0,0.0,0.0,0.0,0.0,0.0,0.0,0.0,0.0,0.0,0.0,0.0,0.0,0.0,0.0,0.0,0.0,0.0,0.0,0.0,0.0,0.0,0.0,0.0,0.0,0.0,0.0,0.0,0.0,0.0,0.0,0.0,0.0,0.0,0.0,0.0,0.0,0.0,0.0,0.0,0.0,0.0,0.0,0.0,0.0,0.0,0.0,0.0,0.0,0.0,0.0,0.0,0.0,0.0,0.0,-0.2634,-0.2475,-0.2344,-0.2252,-0.2285,-0.2317,-0.2344,-0.2572,-0.2746,0.0,0.0,0.0,0.0,0.0,0.0,0.0,0.0,0.0,0.0,0.0,0.0,0.0,0.0,0.0,0.0,0.0,0.0,0.0,0.0,0.0,0.0,0.0,0.0,0.0,0.0,0.0,0.0,0.0,0.0,0.0,0.0,0.0,0.0,0.0,0.0,0.0,0.0,0.0,0.0,0.0,-0.0518,-0.0413,0.004,0.0,0.0,0.0,0.0,-0.0185,-0.0411,0.0,0.0,0.0,0.0,0.0,0.0,0.0,0.0,0.0,0.0,0.0,0.0,0.0,0.0,0.0,0.0,0.0,0.0,0.0,0.0,0.0,0.0,0.0,0.0,0.0,0.0,0.0,0.0,0.0,0.0,0.0,0.0,0.0,0.0,0.0,0.0,0.0,0.0,0.0,0.0,0.0,0.0,0.0,0.0,0.0,0.0,0.0,0.0,0.0,0.0,0.0,0.0,0.0,0.0,0.0,0.0,-0.2496,-0.2441,-0.2276,-0.2047,-0.2183,-0.2252,-0.2149,-0.2834,-0.3186,0.0,0.0,0.0,0.0,0.0,0.0,0.0,0.0,0.0,0.0,0.0,0.0,0.0,0.0,0.0,0.0,0.0,0.0,0.0,0.0,0.0,0.0,0.0,0.0,0.0,0.0,0.0,0.0,0.0,0.0,0.0,0.0,0.0,0.0,0.0,0.0,0.0,0.0,0.0,0.0,0.0,-0.0236,0.0237,0.0114,0.011,0.0,0.0,-0.0312,-0.0273,-0.0403,0.0,0.0,0.0,0.0,0.0,0.0,0.0,0.0,0.0,0.0,0.0,0.0,0.0,0.0,0.0,0.0,0.0,0.0,0.0,0.0,0.0,0.0,0.0,0.0,0.0,0.0,0.0,0.0,0.0,0.0,0.0,0.0,0.0,0.0,0.0,0.0,0.0,0.0,0.0,0.0,0.0,0.0,0.0,0.0,0.0,0.0,0.0,0.0,0.0,0.0,0.0,0.0,0.0,0.0,0.0,-0.231,-0.2433,-0.231,-0.2178,-0.2081,-0.2149,-0.2183,-0.2217,-0.2704,-0.2964,0.0,0.0,0.0,0.0,0.0,0.0,0.0,0.0,0.0,0.0,0.0,0.0,0.0,0.0,0.0,0.0,0.0,0.0,0.0,0.0,0.0,0.0,0.0,0.0,0.0,0.0,0.0,0.0,0.0,0.0,0.0,0.0,0.0,0.0,0.0,0.0,0.0,0.0,0.0,0.0,0.0,0.0,0.0252,0.0,0.0,0.0,0.0,-0.0117,-0.0265,0.0,0.0,0.0,0.0,0.0,0.0,0.0,0.0,0.0,0.0,0.0,0.0,0.0,0.0,0.0,0.0,0.0,0.0,0.0,0.0,0.0,0.0,0.0,0.0,0.0,0.0,0.0,0.0,0.0,0.0,0.0,0.0,0.0,0.0,0.0,0.0,0.0,0.0,0.0,0.0,0.0,0.0,0.0,0.0,0.0,0.0,0.0,0.0,0.0,0.0,0.0,0.0,0.0,0.0,0.0,0.0,0.0,-0.2374,-0.2147,-0.2081,-0.2114,-0.2081,-0.2149,-0.2285,-0.254,0.0,0.0,0.0,0.0,0.0,0.0,0.0,0.0,0.0,0.0,0.0,0.0,0.0,0.0,0.0,0.0,0.0,0.0,0.0,0.0,0.0,0.0,0.0,0.0,0.0,0.0,0.0,-0.074,0.0,0.0,0.0,0.0,0.0,0.0,0.0,0.0,0.0,0.0,0.0,0.0,0.0,0.0,0.0375,0.0399,0.0084,-0.016,0.0,0.0,0.0,-0.0266,-0.0528,-0.0582,0.0,0.0,0.0,0.0,0.0,0.0,0.0,0.0,0.0,0.0,0.0,0.0,0.0,0.0,0.0,0.0,0.0,0.0,0.0,0.0,0.0,0.0,0.0,0.0,0.0,0.0,0.0,0.0,0.0,0.0,0.0,0.0,0.0,0.0,0.0,0.0,0.0,0.0,0.0,0.0,0.0,0.0,0.0,0.0,0.0,0.0,0.0,0.0,0.0,0.0,0.0,0.0,0.0,0.0,0.0,-0.2279,-0.2047,-0.1979,-0.2114,-0.2047,-0.2114,-0.2285,-0.2548,-0.2714,0.0,0.0,0.0,0.0,0.0,0.0,0.0,0.0,0.0,0.0,0.0,0.0,0.0,0.0,0.0,0.0,0.0,0.0,0.0,0.0,0.0,0.0,0.0,0.0,0.0,0.0,0.0,0.0,0.0,0.0,0.0,0.0,0.0,0.0,0.0,0.0,0.0,0.0,0.0,0.0,0.0,0.0845,0.094,0.0518,0.0042,0.0,0.0,-0.0,-0.0334,-0.0564,-0.0608,-0.0317,0.0,0.0,0.0,0.0,0.0,0.0,0.0,0.0,0.0,0.0,0.0,0.0,0.0,0.0,0.0,0.0,0.0,0.0,0.0,0.0,0.0,0.0,0.0,0.0,0.0,0.0,0.0,0.0,0.0,0.0,0.0,0.0,0.0,0.0,0.0,0.0,0.0,0.0,0.0,0.0,0.0,0.0,0.0,0.0,0.0,0.0,0.0,0.0,0.0,0.0,0.0,0.0,0.0,-0.2295,-0.2344,-0.2149,-0.2047,-0.2114,-0.2081,-0.2114,-0.2182,-0.2377,-0.2611,0.0,0.0,0.0,0.0,0.0,0.0,0.0,0.0,0.0,0.0,0.0,0.0,0.0,0.0,0.0,0.0,0.0,0.0,0.0,0.0,0.0,0.0,0.0,0.0,0.0,0.0,0.0,0.0,0.0404,0.0639,0.0707,0.0,0.0,0.0,0.0,0.0,0.0,0.0,0.0,0.0,0.0,0.0914,0.1025,0.0346,0.0,0.0,-0.0126,-0.0295,-0.0042,-0.0299,-0.0465,-0.0318,0.0,0.0,0.0,0.0,0.0,0.0,0.0,0.0,0.0,0.0,0.0,0.0,0.0,0.0,0.0,0.0,0.0,0.0,0.0,0.0,0.0,0.0,0.0,0.0,0.0,0.0,0.0,0.0,0.0,0.0,0.0,0.0,0.0,0.0,0.0,0.0,0.0,0.0,0.0,0.0,0.0,0.0,0.0,0.0,0.0,0.0,0.0,0.0,0.0,0.0,0.0,0.0,0.0,-0.2377,-0.2379,-0.2147,-0.2047,-0.2114,-0.2081,-0.2047,-0.2114,-0.2213,-0.2377,0.0,0.0,0.0,0.0,0.0,0.0,0.0,0.0,0.0,0.0,0.0,0.0,0.0,0.0,0.0,0.0,0.0,0.0,0.0,0.0,0.0,0.0,0.0,0.0,0.0,0.0,0.0,0.0,0.0605,0.0808,0.0774,0.0,0.0,0.0,0.0,0.0,0.0,0.0,0.0,0.0,0.0,0.104,0.1248,0.0567,0.0172,0.0601,0.0172,-0.0043,0.0214,-0.0042,-0.0249,-0.0202,0.0,0.0,0.0,0.0,0.0,0.0,0.0,0.0,0.0,0.0,0.0,0.0,0.0,0.0,0.0,0.0,0.0,0.0,0.0,0.0,0.0,0.0,0.0,0.0,0.0,0.0,0.0,0.0,0.0,0.0,-0.2995,0.0,0.0,0.0,0.0,0.0,0.0,0.0,0.0,0.0,0.0,0.0,0.0,0.0,0.0,0.0,0.0,0.0,0.0,0.0,0.0,0.0,0.0,-0.2288,-0.2285,-0.2047,-0.1979,-0.2081,-0.1979,-0.1946,-0.2081,-0.1979,-0.1979,-0.2149,0.0,0.0,0.0,0.0,0.0,0.0,0.0,0.0,0.0,0.0,0.0,0.0,0.0,0.0,0.0,0.0,0.0,0.0,0.0,0.0,0.0,0.0,0.0,0.0,0.0,0.0,0.0169,0.0538,0.0808,0.0,0.0,0.0,0.0,0.0,0.0,0.0,0.0,0.0,0.0,0.1263,0.1387,0.1658,0.1343,0.1027,0.0983,0.1027,0.0894,0.049,0.0171,0.0,0.0,0.0,0.0,0.0,0.0,0.0,0.0,0.0,0.0,0.0,0.0,0.0,0.0,0.0,0.0,0.0,0.0,0.0,0.0,0.0,0.0,0.0,0.0,0.0,0.0,0.0,0.0,-0.3069,-0.3043,0.0,0.0,0.0,0.0,0.0,0.0,0.0,0.0,0.0,0.0,0.0,-0.2585,-0.2515,0.0,0.0,0.0,0.0,0.0,0.0,0.0,0.0,0.0,0.0,0.0,0.0,-0.2367,-0.2291,-0.2115,-0.2047,-0.2114,-0.2047,-0.2046,-0.2047,-0.1945,-0.2013,-0.2311,0.0,0.0,0.0,0.0,0.0,0.0,0.0,0.0,0.0,0.0,0.0,0.0,0.0,0.0,0.0,0.0,0.0,0.0,0.0,0.0,0.0,0.0,0.0,0.0,0.0,0.0515,0.0,0.0,0.0,0.0,0.0,0.0,0.0,0.0,0.0,0.0,0.0,0.1416,0.1478,0.1515,0.1606,0.174,0.1704,0.1524,0.0,0.0,0.0,0.0,0.0,0.0,0.0,0.0,0.0,0.0,0.0,0.0,0.0,0.0,0.1368,0.1603,0.1675,0.1677,0.1752,0.0,0.0,0.0,0.0,0.0,0.0,0.0,0.0,0.0,0.0,0.0,0.0,0.0,0.0,-0.3233,0.0,-0.3235,0.0,0.0,0.0,0.0,0.0,0.0,0.0,0.0,-0.2353,-0.2315,-0.2334,-0.2287,-0.2166,0.0,-0.2013,-0.2079,0.0,0.0,0.0,0.0,0.0,0.0,0.0,0.0,-0.2432,-0.2457,-0.2238,-0.2114,-0.2114,-0.2047,-0.2013,-0.1945,-0.1843,-0.191,-0.221,-0.2441,-0.2698,0.0,0.0,0.0,0.0,0.0,0.0,0.0,0.0,0.0,0.0,0.0,0.0,0.0,0.0,0.0,0.0,0.0,0.0,0.0,0.0,0.0,0.0,0.0,0.061,0.0,0.0,0.0,0.0,0.0,0.0,0.0,0.0,0.0,0.1411,0.1362,0.1415,0.1564,0.154,0.1623,0.1828,0.0,0.0,0.0,0.0,0.0,0.0,0.0,0.0623,0.0872,0.0893,0.0768,0.05,0.0584,0.0786,0.1101,0.0,0.0,0.151,0.1572,0.1607,0.1685,0.1804,0.1958,0.2115,0.2312,0.2548,0.0,0.0,0.0,0.0,0.0,0.0,0.0,0.0,-0.3304,-0.3363,0.0,-0.3208,0.0,0.0,0.0,0.0,0.0,-0.2517,0.0,0.0,-0.2414,-0.2283,-0.2128,-0.2073,-0.2022,-0.189,-0.1958,-0.1923,-0.1892,-0.196,0.0,0.0,0.0,0.0,0.0,0.0,-0.2444,-0.273,-0.2328,-0.2126,-0.209,-0.1987,-0.1915,-0.1878,-0.1708,-0.1677,-0.1878,-0.1979,-0.2131,-0.2379,-0.238,0.0,0.0,0.0,0.0,0.0,0.0,0.0,0.0,0.0,0.0,0.0,0.0,0.0,0.0,0.0,0.0,0.0,0.0,0.0,0.0,0.0505,0.0,0.0,0.0,0.0,0.0,0.0,0.0,0.0,0.0,0.0,0.1573,0.1409,0.1357,0.1499,0.0,0.0,0.0,0.0,0.1835,0.1924,0.1539,0.1303,0.1507,0.0815,0.0275,0.0349,0.0,0.0,0.0799,0.0935,0.0991,0.1147,0.1229,0.1287,0.1316,0.1505,0.17,0.174,0.1902,0.2129,0.2319,0.254,0.2731,-0.3836,0.0,0.0,0.0,0.0,-0.3318,-0.3336,-0.3416,-0.3275,-0.3246,-0.328,-0.3129,0.0,0.0,0.0,0.0,0.0,0.0,-0.2359,-0.2427,-0.2271,-0.2195,-0.2244,-0.1905,-0.1739,-0.1761,-0.1596,-0.1527,-0.1542,-0.1616,-0.1713,-0.1823,0.0,0.0,0.0,0.0,-0.2377,-0.2261,-0.2235,-0.2256,-0.2247,-0.2207,-0.2096,-0.1883,-0.1647,-0.1647,-0.1878,-0.1843,-0.1925,-0.2162,-0.2035,0.0,0.0,0.0,0.0,0.0,0.0,0.0,0.0,0.0,0.0,0.0,0.0,0.0,0.0,0.0,0.0,0.0,0.0,0.0,0.0808,0.0774,0.0778,0.0,0.0,0.0,0.0,0.0,0.0,0.0,0.0,0.0,0.1727,0.1548,0.1443,0.0,0.0,0.1625,0.203,0.1973,0.1841,0.167,0.182,0.0,0.1031,0.1028,0.072,-0.0246,-0.0208,0.0084,0.0673,0.0642,0.065,0.0954,0.1091,0.1183,0.1345,0.1512,0.1684,0.1858,0.2073,0.2329,0.2545,0.2758,0.2966,-0.4097,-0.4184,-0.3731,-0.3617,-0.3676,-0.3498,-0.3531,-0.3668,-0.3484,-0.342,-0.3451,-0.3202,-0.3035,-0.2944,-0.2726,0.0,0.0,0.0,-0.2298,-0.2363,-0.2182,-0.2098,-0.211,-0.1787,-0.1599,-0.1527,-0.1335,-0.1261,-0.1299,-0.1372,-0.1481,-0.1614,0.0,0.0,-0.1862,-0.2162,-0.2254,-0.2134,-0.2178,-0.2205,-0.2216,-0.2215,-0.2108,-0.1972,-0.1685,-0.1667,-0.1941,-0.1766,-0.1801,-0.205,-0.1823,-0.1611,0.0,0.0,0.0,0.0,0.0,0.0,0.0,0.0,0.0,0.0,0.0,-0.0034,0.0134,0.0,0.0,0.0,0.0875,0.0976,0.0841,0.0774,0.0,0.0,0.0,0.0,0.0,0.0,0.0,0.158,0.1624,0.1646,0.1723,0.1607,0.1581,0.1849,0.1711,0.1688,0.2018,0.0,0.1596,0.1638,0.1739,0.1569,0.0952,0.1045,0.0735,-0.0502,-0.0474,-0.0044,0.0577,0.059,0.0598,0.0783,0.0998,0.121,0.1344,0.1614,0.1794,0.1885,0.2104,0.2368,0.2593,0.2815,0.3078,-0.4416,-0.4638,-0.4099,-0.3922,-0.4019,-0.3897,-0.3899,-0.3978,-0.382,-0.3773,-0.3817,-0.3392,-0.3197,-0.314,-0.266,0.0,-0.2493,-0.2384,-0.2316,-0.2289,-0.2177,-0.2023,-0.1904,-0.1777,-0.1581,-0.1313,-0.1188,-0.1148,-0.1194,-0.127,-0.1386,-0.1547,-0.1696,-0.1848,-0.2036,-0.2056,-0.2102,-0.2273,-0.2188,-0.214,-0.213,-0.2043,-0.2002,-0.2078,-0.1761,-0.1718,-0.194,-0.172,-0.1718,-0.198,-0.1688,-0.1426,-0.129,0.0,0.0,0.0,0.0,0.0,0.0,0.0,0.0,0.0,0.0,0.0,0.0,0.0,0.0,0.0,0.0912,0.0,0.075,0.0647,0.0,0.0,0.0,0.0747,0.0783,0.1105,0.1459,0.1765,0.0,0.0,0.1654,0.1694,0.1792,0.1997,0.1724,0.161,0.1943,0.1467,0.1253,0.1733,0.1475,0.1162,0.0976,0.0827,0.0431,-0.0444,-0.0511,-0.0142,0.0472,0.0662,0.0665,0.0662,0.0966,0.1254,0.1389,0.1704,0.1975,0.1885,0.215,0.2368,0.2549,0.2812,0.3033,-0.4546,-0.46,-0.448,-0.4381,-0.4308,-0.4222,-0.4114,-0.3989,-0.3989,-0.3863,-0.3579,-0.3339,-0.3105,-0.2947,-0.2842,-0.275,-0.2647,-0.2512,-0.2383,-0.2315,-0.2228,-0.2089,-0.1956,-0.1808,-0.1641,-0.1517,-0.1345,-0.1305,-0.1347,-0.1347,-0.1565,-0.1872,-0.1975,-0.1873,-0.1663,-0.2022,-0.2132,-0.1942,-0.2315,-0.2478,-0.2269,-0.2076,-0.1962,-0.1882,-0.1704,-0.1655,-0.1771,-0.1616,-0.1656,-0.189,-0.1612,-0.1377,-0.124,-0.1237,0.0,0.0,0.0,0.0,0.0,0.0,0.0,0.0,0.0,0.037,0.0471,0.0,0.0538,0.0,0.0909,0.1129,0.1136,0.1173,0.0,0.0,0.0656,0.0737,0.0785,0.1297,0.1632,0.177,0.1862,0.1902,0.186,0.1903,0.1985,0.2091,0.1805,0.1682,0.1948,0.1724,0.1462,0.1256,0.1119,0.0918,0.0631,0.0357,0.0133,-0.0135,-0.0317,-0.0274,0.0091,0.0365,0.0501,0.0547,0.0904,0.1255,0.1524,0.1794,0.2021,0.2155,0.242,0.2683,0.2858,0.2944,0.3033,-0.4803,-0.4868,-0.4741,-0.463,-0.449,-0.4457,-0.432,-0.4132,-0.4125,-0.3983,-0.3696,-0.3477,-0.3206,-0.2949,-0.2891,-0.2701,-0.2491,-0.2337,-0.2204,-0.2075,-0.2041,-0.1975,-0.1927,-0.1794,-0.1664,-0.1521,-0.1399,-0.1357,-0.1343,-0.1344,-0.1479,-0.1704,-0.1745,-0.168,-0.1558,-0.2243,-0.2402,-0.2014,-0.2462,-0.2565,-0.2287,-0.2153,-0.2129,-0.2289,-0.2002,-0.1801,-0.1758,-0.1838,-0.1875,-0.1988,-0.1807,-0.1658,-0.1514,-0.1501,-0.1374,0.0,0.0,0.0,0.0,0.0,0.0,0.0,0.0,0.0,0.0,0.0,0.0634,0.0721,0.104,0.1184,0.1098,0.1139,0.1068,0.0688,0.073,0.0777,0.0749,0.1236,0.1671,0.1925,0.2048,0.2078,0.2036,0.2035,0.2097,0.2103,0.1851,0.1751,0.1846,0.177,0.1544,0.1182,0.1006,0.0804,0.0602,0.0372,0.0187,0.0142,0.0047,0.0,0.0145,0.0378,0.0603,0.0848,0.126,0.1601,0.1667,0.1958,0.2199,0.2294,0.2418,0.255,0.2681,0.2771,0.2904,-0.5021,-0.5089,-0.487,-0.4684,-0.4593,-0.4583,-0.4473,-0.4284,-0.424,-0.4147,-0.3923,-0.3665,-0.335,-0.3001,-0.2834,-0.2584,-0.2218,-0.2068,-0.1948,-0.1793,-0.1794,-0.1794,-0.1794,-0.1794,-0.1614,-0.1389,-0.1389,-0.1389,-0.1299,-0.1299,-0.1389,-0.1479,-0.1432,-0.1478,-0.1702,-0.2545,-0.2811,-0.2413,-0.2552,-0.2508,-0.2324,-0.2286,-0.2462,-0.2792,-0.2434,-0.2089,-0.187,-0.2133,-0.2261,-0.2176,-0.2097,-0.1967,-0.1848,-0.1763,-0.1587,0.0,-0.1379,0.0,0.0,0.0,0.0,0.0,0.0,0.0,0.0,0.0789,0.09,0.1019,0.1185,0.1193,0.0919,0.1,0.0976,0.0802,0.0849,0.0862,0.0756,0.112,0.1614,0.2155,0.2201,0.2201,0.2196,0.2201,0.2155,0.202,0.1923,0.1824,0.1796,0.1713,0.1592,0.1352,0.0974,0.0763,0.0721,0.0582,0.0441,0.0448,0.0496,0.0505,0.0513,0.0639,0.0858,0.1224,0.169,0.1981,0.1822,0.2049,0.2292,0.2301,0.2281,0.2325,0.2368,0.2549,0.2683,-0.4668,-0.4631,-0.4548,-0.4467,-0.4355,-0.4371,-0.4262,-0.4142,-0.4352,-0.4141,-0.3585,-0.3374,-0.3161,-0.2974,-0.2725,-0.2537,-0.2349,-0.2093,-0.1914,-0.1794,-0.1794,-0.1749,-0.1659,-0.1659,-0.1524,-0.1389,-0.1389,-0.1389,-0.1389,-0.1389,-0.1569,-0.1885,-0.1924,-0.1966,-0.2011,0.0,0.0,0.0,-0.2506,-0.2285,-0.2325,-0.2598,-0.2687,-0.2508,-0.2592,0.0,-0.223,-0.2244,-0.2344,-0.2565,-0.206,0.0,0.0,0.0,0.0,0.0,0.0,0.0,0.0,0.0,0.0,0.0,0.0618,0.065,0.0765,0.0887,0.1051,0.1219,0.1341,0.1347,0.1307,0.1401,0.1361,0.1061,0.1151,0.1066,0.076,0.121,0.1704,0.2156,0.2201,0.2201,0.2201,0.2201,0.2155,0.202,0.1975,0.1885,0.1659,0.1581,0.1501,0.1315,0.103,0.0773,0.0795,0.0749,0.0695,0.0731,0.0916,0.1005,0.0943,0.1019,0.1092,0.1245,0.1732,0.2009,0.1765,0.2051,0.2313,0.2307,0.2244,0.2287,0.2416,0.2504,0.2549,-0.4576,0.0,-0.4537,-0.4449,0.0,-0.432,-0.4144,-0.3926,-0.4104,-0.3923,-0.3458,-0.3338,-0.318,-0.2934,-0.2743,-0.2471,-0.2171,-0.1997,-0.1794,-0.1614,-0.1614,-0.1614,-0.1569,-0.1524,-0.1479,-0.1524,-0.1434,-0.1434,-0.1479,-0.1434,-0.1524,-0.1794,-0.179,-0.1744,-0.1789,-0.2147,-0.2502,-0.2725,-0.2552,-0.2375,-0.224,-0.2465,-0.2529,-0.2558,-0.2502,0.0,0.0,0.0,0.0,0.0,0.0,0.0,0.0,0.0,0.0,-0.1218,-0.1256,-0.1309,-0.1341,-0.114,-0.0534,0.0588,0.0672,0.0748,0.0938,0.1059,0.1191,0.1426,0.1458,0.1487,0.1429,0.1524,0.1479,0.1254,0.1299,0.1254,0.112,0.1434,0.1839,0.211,0.2201,0.2201,0.2201,0.2201,0.2155,0.202,0.193,0.1885,0.1714,0.1655,0.1611,0.1517,0.1137,0.0952,0.1008,0.0868,0.0814,0.0791,0.0918,0.1004,0.1049,0.1153,0.1263,0.1427,0.1861,0.2102,0.2028,0.2263,0.2425,0.2301,0.2263,0.2244,0.2345,0.2417,0.2549,-0.4506,-0.4447,-0.4492,-0.4426,-0.4235,-0.4235,-0.4051,-0.3729,0.0,0.0,0.0,-0.3306,-0.3174,-0.2865,-0.2688,-0.2375,-0.202,-0.1794,-0.1614,-0.1389,-0.1389,-0.1479,-0.1569,-0.1479,-0.1479,-0.1569,-0.1524,-0.1524,-0.1569,-0.1479,-0.1479,-0.1569,-0.1479,-0.1434,-0.1479,-0.1704,-0.2017,-0.2416,-0.2552,-0.2506,-0.2242,-0.2288,-0.2414,-0.2658,-0.2435,-0.2673,-0.3411,-0.2637,-0.211,-0.1921,-0.1882,-0.1816,-0.1724,-0.159,-0.1487,-0.1446,-0.1375,-0.1309,-0.1319,-0.1323,-0.0736,0.0628,0.0763,0.088,0.11,0.1188,0.1335,0.1505,0.1561,0.1523,0.1434,0.1524,0.1569,0.1389,0.1434,0.1479,0.1479,0.1704,0.1929,0.2155,0.2201,0.2201,0.2201,0.2201,0.2162,0.2041,0.1958,0.1821,0.1844,0.178,0.1651,0.1533,0.1229,0.1029,0.117,0.0972,0.0823,0.0797,0.0826,0.0869,0.0972,0.1125,0.1369,0.1583,0.1896,0.2098,0.224,0.2373,0.2498,0.2311,0.2328,0.2314,0.231,0.2472,0.27,-0.4096,-0.3944,-0.4088,-0.4126,-0.4054,-0.4054,-0.3955,-0.3785,-0.355,-0.3306,-0.3034,-0.3078,-0.2993,-0.2869,-0.242,-0.2152,-0.2065,-0.1659,-0.1434,-0.1389,-0.1389,-0.1479,-0.1569,-0.1569,-0.1569,-0.1614,-0.1704,-0.1614,-0.1479,-0.1524,-0.1524,-0.1434,-0.1389,-0.1524,-0.1704,-0.1794,-0.193,-0.2242,-0.2326,-0.2326,-0.2281,-0.2642,-0.2727,-0.263,-0.2653,-0.2633,-0.249,-0.2315,-0.1914,-0.129,-0.1567,-0.159,-0.1314,-0.12,-0.1097,-0.0828,-0.0659,-0.0443,-0.0223,-0.0223,0.0045,0.0629,0.0899,0.106,0.1187,0.1307,0.1317,0.1284,0.1495,0.1569,0.1434,0.1614,0.1749,0.1749,0.1704,0.1794,0.1794,0.1885,0.202,0.2156,0.2201,0.2205,0.2208,0.221,0.2198,0.2112,0.2025,0.205,0.1891,0.1704,0.1446,0.1262,0.1094,0.1009,0.1061,0.0909,0.0854,0.0868,0.0863,0.09,0.093,0.1047,0.126,0.1446,0.1696,0.1852,0.2025,0.2202,0.2327,0.2307,0.2401,0.2455,0.2499,0.2807,0.3085,-0.3891,-0.3832,-0.403,-0.4127,-0.4122,-0.4021,-0.3918,-0.3756,-0.3537,-0.3301,-0.3141,-0.3141,-0.2967,-0.2644,-0.2373,-0.2106,-0.1929,-0.1659,-0.1479,-0.1389,-0.1389,-0.1479,-0.1569,-0.1524,-0.1524,-0.1569,-0.1569,-0.1569,-0.1524,-0.1524,-0.1479,-0.1524,-0.1569,-0.1704,-0.1794,-0.1975,-0.2065,-0.2201,-0.2242,-0.224,-0.224,-0.2421,-0.2487,-0.2353,-0.2394,-0.2243,-0.1985,-0.1898,-0.1687,-0.1265,-0.1394,-0.1349,-0.1093,-0.1032,-0.0914,-0.0739,-0.0532,-0.0225,0.018,0.0225,0.036,0.0675,0.09,0.1027,0.105,0.1331,0.1556,0.153,0.1598,0.1659,0.1704,0.1704,0.1749,0.1885,0.1885,0.1929,0.202,0.211,0.211,0.216,0.2242,0.2269,0.2268,0.2266,0.2307,0.2252,0.218,0.2056,0.1905,0.1811,0.1633,0.1472,0.132,0.1181,0.1216,0.0976,0.0868,0.084,0.0821,0.0902,0.0975,0.1096,0.1303,0.1486,0.1743,0.199,0.2106,0.2313,0.2465,0.2486,0.2481,0.2542,0.2583,0.2859,0.319,-0.3811,-0.3844,-0.3995,-0.4184,-0.4275,-0.417,-0.4014,-0.3862,-0.366,-0.3487,-0.332,-0.3259,-0.3005,-0.2624,-0.2413,-0.2144,-0.1885,-0.1689,-0.1546,-0.1407,-0.1394,-0.1479,-0.1569,-0.1479,-0.1479,-0.1569,-0.1524,-0.1524,-0.1569,-0.1479,-0.1479,-0.1569,-0.1704,-0.1837,-0.1882,-0.2063,-0.2199,-0.2198,-0.2199,-0.2201,-0.2201,-0.2156,-0.2155,-0.2155,-0.2019,-0.1885,-0.1749,-0.1614,-0.1479,-0.1344,-0.1299,-0.1237,-0.103,-0.0927,-0.0842,-0.0689,-0.0486,-0.0135,0.0405,0.045,0.0539,0.0764,0.0989,0.1078,0.1033,0.148,0.1749,0.1704,0.1658,0.1749,0.1885,0.1839,0.1794,0.1929,0.202,0.2075,0.2137,0.2183,0.2239,0.2261,0.2272,0.2313,0.2324,0.2372,0.241,0.235,0.226,0.2094,0.189,0.1861,0.1857,0.1569,0.1372,0.1323,0.1342,0.1163,0.0968,0.0898,0.0933,0.1019,0.1154,0.1269,0.1435,0.1678,0.1934,0.2143,0.2222,0.2405,0.2572,0.2589,0.2637,0.2636,0.2767,0.2961,0.3276,-0.3807,-0.3825,-0.4036,-0.4236,-0.4462,-0.4412,-0.4247,-0.403,-0.4095,-0.3858,-0.3398,-0.3142,-0.3009,-0.2875,-0.24,-0.2164,-0.2074,-0.1683,-0.1513,-0.1457,-0.1413,-0.1479,-0.1569,-0.1569,-0.1569,-0.1614,-0.1704,-0.1614,-0.1434,-0.1524,-0.1524,-0.1479,-0.1659,-0.1926,-0.2147,-0.2061,-0.2107,-0.2281,-0.2242,-0.2201,-0.2201,-0.2065,-0.202,-0.202,-0.1794,-0.1704,-0.184,-0.1569,-0.1344,-0.1254,-0.1299,-0.1207,-0.1114,-0.0986,-0.0853,-0.067,-0.0404,0.0045,0.0584,0.0675,0.0764,0.0945,0.1211,0.1344,0.1344,0.1704,0.1794,0.1524,0.1749,0.1885,0.1839,0.1975,0.1975,0.184,0.2025,0.2141,0.2019,0.213,0.23,0.2386,0.2341,0.2403,0.2407,0.2426,0.2428,0.2434,0.2358,0.2259,0.1989,0.1933,0.1817,0.1329,0.1175,0.1329,0.1352,0.1269,0.1124,0.107,0.1284,0.135,0.1352,0.1397,0.1595,0.1858,0.2047,0.2174,0.2327,0.2444,0.2489,0.262,0.2737,0.2898,0.3295,0.3434,0.3495,-0.3544,-0.361,-0.388,-0.4064,-0.4181,-0.4024,-0.4027,-0.4135,-0.4021,-0.3824,-0.3597,-0.333,-0.2992,-0.262,-0.2328,-0.2061,-0.1802,-0.1583,-0.1503,-0.1472,-0.1399,-0.1434,-0.1479,-0.1479,-0.1479,-0.1479,-0.1524,-0.1524,-0.1434,-0.1434,-0.1524,-0.1614,-0.1885,-0.2018,-0.206,-0.2194,-0.2326,-0.2278,-0.2283,-0.2241,-0.2199,-0.2065,-0.1929,-0.1885,-0.1794,-0.1704,-0.1704,-0.1569,-0.1434,-0.1299,-0.1299,-0.1254,-0.1032,-0.1032,-0.0943,-0.0719,-0.0225,0.0315,0.0899,0.0809,0.0809,0.1032,0.121,0.1254,0.1254,0.1479,0.1569,0.1434,0.1614,0.1749,0.1794,0.1749,0.1749,0.18,0.1925,0.1968,0.1806,0.2039,0.2231,0.2219,0.2363,0.25,0.2507,0.2545,0.2551,0.2507,0.2457,0.2289,0.2154,0.2117,0.2025,0.1753,0.164,0.1448,0.1287,0.1244,0.1227,0.1252,0.1359,0.146,0.1611,0.1478,0.1563,0.2022,0.2159,0.2234,0.2345,0.2496,0.2595,0.2684,0.2688,0.2814,0.3018,0.3081,0.3081,-0.3422,-0.3549,-0.3776,-0.3938,-0.391,-0.369,-0.3749,-0.4025,-0.3855,-0.3742,-0.3678,-0.3485,-0.3067,-0.2514,-0.2352,-0.2074,-0.1796,-0.1663,-0.1631,-0.1594,-0.1458,-0.1442,-0.1456,-0.1441,-0.1389,-0.1434,-0.1434,-0.1479,-0.1524,-0.1524,-0.1614,-0.1794,-0.2063,-0.2106,-0.2017,-0.2284,-0.2373,-0.2281,-0.2281,-0.224,-0.2199,-0.2065,-0.1929,-0.1794,-0.1704,-0.1659,-0.1524,-0.1524,-0.1434,-0.1254,-0.1344,-0.13,-0.1033,-0.1121,-0.0942,-0.0494,0.0,0.0539,0.1078,0.0944,0.0898,0.112,0.121,0.1254,0.1254,0.1389,0.1479,0.1479,0.1524,0.1659,0.1749,0.1614,0.1569,0.1662,0.18,0.184,0.1741,0.1988,0.2134,0.2076,0.2345,0.2537,0.26,0.264,0.2647,0.2612,0.2547,0.2357,0.226,0.2184,0.2185,0.2027,0.1855,0.1728,0.138,0.1473,0.1488,0.1529,0.1677,0.1891,0.1995,0.179,0.1769,0.2288,0.2306,0.2369,0.2482,0.265,0.2682,0.2689,0.2745,0.2741,0.2858,0.2804,0.2805,-0.3678,-0.3785,-0.3843,-0.3844,-0.3796,-0.3627,-0.3574,-0.3695,-0.3744,-0.3631,-0.3469,-0.3398,-0.3121,-0.2603,-0.2488,-0.2478,-0.2351,-0.2066,-0.2033,-0.2054,-0.1647,-0.151,-0.1658,-0.1507,-0.1434,-0.1479,-0.1569,-0.1659,-0.1794,-0.1839,-0.1885,-0.1929,-0.2103,-0.219,-0.2191,-0.224,-0.224,-0.2326,-0.2284,-0.22,-0.22,-0.2064,-0.1929,-0.1839,-0.1569,-0.1434,-0.1344,-0.1389,-0.1344,-0.112,-0.121,-0.121,-0.112,-0.0988,-0.0629,0.0045,0.036,0.0674,0.1031,0.1075,0.112,0.1254,0.1344,0.1434,0.1524,0.1614,0.1659,0.1614,0.1569,0.1659,0.1749,0.1704,0.1614,0.1479,0.1664,0.173,0.1697,0.1917,0.2088,0.2185,0.2275,0.2388,0.251,0.2632,0.2652,0.2589,0.2604,0.2437,0.2157,0.2196,0.206,0.1796,0.1766,0.1907,0.2021,0.1908,0.1916,0.1923,0.2043,0.2338,0.2344,0.2342,0.2447,0.2551,0.2548,0.2607,0.2679,0.2686,0.2689,0.2692,0.2804,0.2804,0.2805,0.286,0.286,-0.3581,-0.3522,-0.3412,-0.3465,-0.3523,-0.3188,-0.3302,-0.3805,-0.3747,-0.3635,-0.3511,-0.3447,-0.3106,-0.2639,-0.258,-0.2405,-0.2132,-0.2015,-0.2054,-0.217,-0.2036,-0.2016,-0.2031,-0.1919,-0.184,-0.1839,-0.184,-0.1885,-0.1929,-0.1929,-0.202,-0.22,-0.2283,-0.2323,-0.2325,-0.2462,-0.2508,-0.2461,-0.2508,-0.2464,-0.2374,-0.2241,-0.211,-0.202,-0.1704,-0.1524,-0.1479,-0.1389,-0.1254,-0.112,-0.1164,-0.1076,-0.0808,-0.0269,0.0225,0.0494,0.0584,0.0764,0.0988,0.1078,0.1167,0.1299,0.1344,0.1434,0.1479,0.1524,0.1524,0.1479,0.1479,0.1524,0.1524,0.1524,0.1479,0.1393,0.1515,0.1566,0.1499,0.1701,0.1973,0.1941,0.2073,0.224,0.2354,0.2465,0.2453,0.2644,0.2648,0.2528,0.242,0.236,0.2254,0.2139,0.2153,0.2291,0.2406,0.2222,0.2163,0.2172,0.2281,0.2456,0.252,0.2352,0.2398,0.2564,0.2641,0.2599,0.2643,0.2672,0.2679,0.2691,0.2748,0.2805,0.2804,0.2805,0.2805,-0.353,-0.3471,-0.3303,-0.3302,-0.3246,-0.2965,-0.3189,-0.3688,-0.3526,-0.3473,-0.3568,-0.3496,-0.325,-0.2924,-0.2889,-0.2639,-0.2268,-0.216,-0.2196,-0.2356,-0.2591,-0.2612,-0.2395,-0.2192,-0.2107,-0.2107,-0.2018,-0.2061,-0.2196,-0.2106,-0.2198,-0.2421,-0.2461,-0.2458,-0.2458,-0.2593,-0.2594,-0.2593,-0.2639,-0.2594,-0.255,-0.2329,-0.2242,-0.2198,-0.1883,-0.1659,-0.1569,-0.1389,-0.1254,-0.1076,-0.112,-0.0941,-0.045,0.018,0.0675,0.0764,0.0764,0.0853,0.1033,0.1077,0.1122,0.121,0.1344,0.1389,0.1389,0.1389,0.1389,0.1389,0.1344,0.1344,0.1299,0.1299,0.1299,0.1303,0.1378,0.1385,0.1302,0.1598,0.1762,0.1832,0.1795,0.1906,0.2073,0.2184,0.2295,0.2522,0.2579,0.2596,0.2605,0.2506,0.2445,0.2427,0.244,0.2478,0.2527,0.2451,0.2373,0.2435,0.2399,0.2574,0.2635,0.2465,0.2384,0.2545,0.2576,0.2591,0.2614,0.2646,0.2668,0.2684,0.2692,0.2748,0.2692,0.2691,0.2692,-0.3585,-0.3585,-0.3585,-0.3416,-0.3189,-0.3077,-0.3077,-0.3188,-0.3188,-0.3351,-0.3558,-0.3557,-0.342,-0.3239,-0.3275,-0.3242,-0.2897,-0.2623,-0.2582,-0.2781,-0.32,-0.3159,-0.2699,-0.2371,-0.2189,-0.219,-0.2061,-0.2241,-0.2598,-0.246,-0.2415,-0.2506,-0.255,-0.2549,-0.2503,-0.2549,-0.2593,-0.2639,-0.2639,-0.2593,-0.2639,-0.2458,-0.2325,-0.228,-0.2105,-0.1839,-0.1479,-0.1434,-0.1301,-0.1078,-0.1166,-0.0807,-0.018,0.027,0.0584,0.0854,0.09,0.0943,0.1031,0.1075,0.1076,0.112,0.1255,0.1299,0.1299,0.1344,0.1344,0.1299,0.1299,0.1255,0.1124,0.1126,0.117,0.1299,0.1262,0.1304,0.1386,0.152,0.1613,0.1713,0.1628,0.1459,0.1402,0.1792,0.2184,0.235,0.2511,0.2706,0.2646,0.2616,0.2516,0.2476,0.2505,0.2621,0.265,0.2623,0.2657,0.269,0.2632,0.2691,0.2691,0.2576,0.2538,0.2645,0.2527,0.2536,0.2545,0.2581,0.2638,0.2657,0.2671,0.2687,0.2691,0.2691,0.2691,-0.353,-0.3471,-0.3473,-0.3416,-0.3302,-0.3132,-0.3189,-0.3416,-0.3359,-0.337,-0.3508,-0.3475,-0.334,-0.3218,-0.3278,-0.3231,-0.3053,-0.3103,-0.3206,-0.3301,-0.3222,-0.3283,-0.3319,-0.3003,-0.2811,-0.2722,-0.2724,-0.2681,-0.2683,-0.2639,-0.2639,-0.2639,-0.2729,-0.2729,-0.2639,-0.2729,-0.2819,-0.2819,-0.2775,-0.2819,-0.2819,-0.2683,-0.2549,-0.255,-0.2287,-0.2065,-0.1975,-0.1704,-0.1524,-0.1391,-0.1345,-0.0985,-0.0314,0.0314,0.0674,0.0764,0.0809,0.0764,0.0809,0.0853,0.0898,0.0943,0.0943,0.1032,0.112,0.121,0.121,0.1164,0.1165,0.1129,0.1113,0.1028,0.1017,0.1036,0.1122,0.1205,0.1348,0.1582,0.153,0.1282,0.1403,0.1571,0.1625,0.1959,0.2128,0.2465,0.2578,0.2671,0.2654,0.2638,0.2646,0.2616,0.2645,0.2637,0.2648,0.2654,0.2672,0.2691,0.2691,0.2691,0.2691,0.2663,0.2679,0.2629,0.2512,0.2494,0.25,0.2542,0.2612,0.2638,0.2652,0.2669,0.2686,0.2691,0.2691,-0.3359,-0.3302,-0.3302,-0.3246,-0.3192,-0.3078,-0.3136,-0.3304,-0.325,-0.3295,-0.3402,-0.3429,-0.3334,-0.325,-0.3405,-0.3433,-0.3359,-0.3653,-0.3846,-0.388,-0.3617,-0.3576,-0.3739,-0.3526,-0.3347,-0.3254,-0.3167,-0.3126,-0.3127,-0.3043,-0.2997,-0.3044,-0.3087,-0.3043,-0.2907,-0.2905,-0.2908,-0.2911,-0.2909,-0.2911,-0.2865,-0.2775,-0.2684,-0.264,-0.2464,-0.2285,-0.2241,-0.1971,-0.1791,-0.1614,-0.1344,-0.0851,-0.0269,0.0224,0.0584,0.0675,0.0719,0.0719,0.0719,0.0719,0.0719,0.0809,0.0809,0.0854,0.0987,0.1031,0.1075,0.1032,0.1075,0.1047,0.099,0.0951,0.0898,0.0849,0.0973,0.1135,0.1359,0.1615,0.1675,0.1403,0.1403,0.157,0.1738,0.1793,0.1961,0.2299,0.2466,0.2578,0.2578,0.2632,0.269,0.269,0.2681,0.2676,0.2686,0.2688,0.2689,0.2691,0.2691,0.2691,0.2691,0.2638,0.2645,0.2539,0.2478,0.2568,0.2581,0.2585,0.2644,0.2643,0.2641,0.2669,0.2691,0.2691,0.2691,-0.3132,-0.3132,-0.3132,-0.3078,-0.2971,-0.2971,-0.3027,-0.2972,-0.3027,-0.318,-0.3402,-0.3465,-0.3441,-0.3497,-0.3713,-0.3806,-0.3785,-0.4091,-0.4333,-0.4373,-0.4288,-0.411,-0.3853,-0.3792,-0.3788,-0.37,-0.3571,-0.3615,-0.3704,-0.3552,-0.3499,-0.3521,-0.343,-0.3323,-0.3197,-0.3089,-0.2948,-0.2908,-0.2911,-0.2911,-0.2909,-0.2775,-0.2684,-0.2683,-0.2506,-0.2372,-0.2283,-0.2192,-0.2059,-0.1703,-0.121,-0.0761,-0.0224,0.0045,0.0225,0.0494,0.0629,0.0629,0.0675,0.0675,0.0719,0.0719,0.0854,0.0945,0.0899,0.0942,0.0987,0.0899,0.0986,0.1004,0.0852,0.0863,0.0876,0.085,0.0933,0.1182,0.1519,0.1674,0.1619,0.1572,0.1459,0.1403,0.1684,0.1627,0.174,0.1908,0.213,0.2354,0.2465,0.2578,0.2691,0.2691,0.2691,0.2691,0.2691,0.2691,0.2691,0.2691,0.2691,0.269,0.269,0.2639,0.2634,0.2524,0.2497,0.2586,0.2603,0.2585,0.2621,0.2631,0.2646,0.2678,0.2691,0.2691,0.2691,-0.3132,-0.3132,-0.3132,-0.3189,-0.3303,-0.3361,-0.3416,-0.3414,-0.3519,-0.3609,-0.3712,-0.3771,-0.3767,-0.3785,-0.404,-0.4202,-0.4235,-0.4381,-0.4532,-0.4612,-0.4589,-0.4449,-0.4228,-0.4312,-0.427,-0.414,-0.4054,-0.3966,-0.3797,-0.3931,-0.3853,-0.3604,-0.3666,-0.3586,-0.3358,-0.3121,-0.2991,-0.2993,-0.2911,-0.2911,-0.2909,-0.2865,-0.2729,-0.2549,-0.2413,-0.2327,-0.2242,-0.2153,-0.2107,-0.2063,-0.1794,-0.1434,-0.0986,-0.0852,-0.0538,-0.0134,0.009,0.0224,0.0359,0.0539,0.0675,0.0719,0.0764,0.0764,0.0764,0.0764,0.0809,0.0764,0.081,0.0832,0.0781,0.0794,0.0809,0.0833,0.0986,0.1243,0.1421,0.1636,0.1572,0.0953,0.1291,0.1458,0.1513,0.1624,0.1849,0.2017,0.2186,0.2409,0.2465,0.2578,0.2691,0.2691,0.2691,0.2691,0.2691,0.2691,0.2691,0.2691,0.2691,0.2689,0.2688,0.2669,0.2612,0.2556,0.2553,0.2631,0.2584,0.2518,0.2556,0.2684,0.2654,0.2686,0.269,0.2692,0.2692,-0.3298,-0.3407,-0.3409,-0.3383,-0.3455,-0.3613,-0.3641,-0.3599,-0.3741,-0.3838,-0.386,-0.3967,-0.3931,-0.3947,-0.4264,-0.4484,-0.4566,-0.4736,-0.4881,-0.4947,-0.4895,-0.4675,-0.4532,-0.462,-0.4622,-0.4537,-0.4495,-0.4362,-0.424,-0.4292,-0.4151,-0.3916,-0.3883,-0.37,-0.3504,-0.3265,-0.3123,-0.3034,-0.2951,-0.2953,-0.2911,-0.2911,-0.2819,-0.2593,-0.2458,-0.2328,-0.2199,-0.2065,-0.2064,-0.2065,-0.1929,-0.1659,-0.1254,-0.1254,-0.0941,-0.0313,-0.0134,-0.0045,0.0314,0.0494,0.0539,0.0675,0.0719,0.0719,0.0719,0.0719,0.0719,0.0719,0.0775,0.0801,0.0783,0.0809,0.0839,0.0865,0.1089,0.1191,0.1175,0.1539,0.1511,0.1178,0.1009,0.1234,0.1344,0.1456,0.1624,0.1906,0.2076,0.2186,0.2353,0.2522,0.2691,0.2691,0.2691,0.2691,0.2691,0.2691,0.2691,0.2691,0.2691,0.2689,0.2675,0.2673,0.2637,0.2595,0.2604,0.2602,0.2567,0.2554,0.2605,0.2661,0.2678,0.2739,0.2745,0.2802,0.2802,-0.355,-0.3756,-0.3756,-0.364,-0.3492,-0.3692,-0.3744,-0.3647,-0.3847,-0.3955,-0.3971,-0.4122,-0.413,-0.398,-0.4433,-0.4688,-0.4826,-0.5027,-0.5154,-0.5132,-0.5026,-0.4847,-0.4707,-0.4755,-0.4801,-0.4801,-0.4845,-0.4755,-0.4644,-0.4576,-0.4458,-0.431,-0.412,-0.3921,-0.3727,-0.3551,-0.3306,-0.3123,-0.3034,-0.295,-0.2909,-0.2865,-0.2775,-0.2595,-0.2417,-0.2285,-0.2154,-0.2065,-0.1975,-0.1975,-0.1885,-0.1614,-0.121,-0.1344,-0.0986,-0.0405,-0.0361,-0.0227,0.0363,0.0274,0.0366,0.0643,0.0731,0.0724,0.0681,0.0724,0.0722,0.073,0.0795,0.0814,0.0838,0.0876,0.0859,0.0884,0.1006,0.0994,0.0979,0.1377,0.1797,0.1741,0.0785,0.0841,0.1066,0.1234,0.1009,0.1851,0.1964,0.2073,0.2296,0.2522,0.2635,0.2691,0.2691,0.2691,0.2691,0.2691,0.2691,0.2691,0.2691,0.2685,0.2656,0.2646,0.2635,0.2624,0.2639,0.2654,0.2658,0.2666,0.2676,0.2735,0.2742,0.2856,0.2914,0.2913,0.2913,-0.3645,-0.3556,-0.3554,-0.3588,-0.366,-0.3811,-0.3948,-0.4065,-0.4209,-0.4291,-0.4236,-0.4349,-0.443,-0.4445,-0.4601,-0.476,-0.5029,-0.5031,-0.4988,-0.5063,-0.5023,-0.4985,-0.4937,-0.4939,-0.4939,-0.4939,-0.4939,-0.4847,-0.4734,-0.4839,-0.4809,-0.4467,-0.443,-0.4383,-0.413,-0.3835,-0.3525,-0.3306,-0.3124,-0.2993,-0.2909,-0.2819,-0.264,-0.2417,-0.2241,-0.2063,-0.1929,-0.1975,-0.1929,-0.1929,-0.1975,-0.1929,-0.1839,-0.1888,-0.1622,-0.1225,-0.0926,-0.0705,-0.0283,0.0048,0.0344,0.0632,0.0713,0.0755,0.0753,0.0731,0.0733,0.0748,0.0809,0.0834,0.0825,0.0842,0.0865,0.0887,0.0953,0.0951,0.0945,0.1339,0.1683,0.1684,0.1459,0.1066,0.0617,0.1234,0.1347,0.174,0.1905,0.2014,0.2235,0.2454,0.2559,0.2606,0.269,0.269,0.2691,0.2691,0.2691,0.2691,0.2691,0.269,0.2661,0.2708,0.2708,0.2718,0.2678,0.269,0.2748,0.2746,0.2739,0.28,0.2859,0.2969,0.3023,0.3023,0.3079,-0.4186,-0.4168,-0.4166,-0.4122,-0.4109,-0.4295,-0.4355,-0.439,-0.4513,-0.4552,-0.4569,-0.4694,-0.4812,-0.49,-0.5026,-0.5241,-0.5337,-0.5274,-0.5308,-0.5383,-0.5269,-0.5116,-0.5113,-0.5116,-0.5113,-0.5029,-0.4985,-0.4893,-0.4882,-0.4857,-0.4808,-0.4645,-0.4645,-0.4529,-0.4457,-0.4141,-0.3928,-0.379,-0.3522,-0.3301,-0.3216,-0.2954,-0.2598,-0.2285,-0.2107,-0.1929,-0.1839,-0.1885,-0.1885,-0.184,-0.1929,-0.1975,-0.194,-0.1964,-0.1844,-0.1533,-0.1293,-0.1026,-0.0691,-0.0298,-0.0,0.0246,0.0531,0.0664,0.07,0.0636,0.0736,0.0759,0.078,0.0808,0.0862,0.084,0.0853,0.0887,0.0897,0.0897,0.0953,0.1291,0.1572,0.1572,0.1459,0.1234,0.1178,0.1347,0.1459,0.174,0.1754,0.1859,0.207,0.2285,0.2449,0.2566,0.2667,0.2689,0.2691,0.2691,0.2691,0.2691,0.2691,0.2691,0.268,0.2737,0.2744,0.2747,0.2745,0.2802,0.2805,0.2802,0.2856,0.2968,0.3023,0.3078,0.3134,0.3246,0.3247,-0.4798,-0.487,-0.487,-0.4735,-0.456,-0.4732,-0.4701,-0.4567,-0.467,-0.4752,-0.4803,-0.4937,-0.4958,-0.5189,-0.5358,-0.5545,-0.5593,-0.5586,-0.553,-0.5607,-0.5396,-0.5249,-0.5198,-0.5154,-0.5157,-0.5031,-0.5072,-0.5026,-0.498,-0.4895,-0.4884,-0.4813,-0.4725,-0.4706,-0.4633,-0.4493,-0.4318,-0.4184,-0.3831,-0.3609,-0.3478,-0.313,-0.269,-0.2376,-0.2241,-0.2152,-0.2061,-0.2018,-0.1927,-0.1836,-0.1836,-0.1792,-0.1719,-0.1708,-0.17,-0.1413,-0.1261,-0.1035,-0.0792,-0.055,-0.0349,-0.0337,0.0144,0.0519,0.0506,0.0636,0.069,0.0761,0.0788,0.0824,0.0878,0.0843,0.0844,0.0879,0.0894,0.0893,0.0953,0.1234,0.1459,0.1572,0.1515,0.1347,0.1403,0.1515,0.1572,0.1677,0.169,0.1769,0.1928,0.2084,0.2256,0.2449,0.2557,0.2689,0.2681,0.2701,0.2652,0.2721,0.2726,0.2747,0.2747,0.2857,0.2857,0.2801,0.2801,0.2915,0.297,0.2968,0.3021,0.3077,0.3189,0.3246,0.3303,0.3416,0.3416,-0.4965,-0.4812,-0.4672,-0.4648,-0.4584,-0.4626,-0.4655,-0.4583,-0.4661,-0.4707,-0.4801,-0.4845,-0.4937,-0.5043,-0.505,-0.5167,-0.5326,-0.5372,-0.5365,-0.5411,-0.53,-0.5239,-0.5195,-0.5157,-0.5113,-0.5154,-0.5198,-0.5241,-0.5195,-0.5149,-0.5065,-0.5026,-0.5024,-0.5019,-0.4937,-0.4808,-0.4626,-0.4491,-0.4096,-0.3831,-0.3699,-0.326,-0.2866,-0.2642,-0.2553,-0.2506,-0.2506,-0.2508,-0.2373,-0.2101,-0.2146,-0.2103,-0.1931,-0.1857,-0.1685,-0.1385,-0.119,-0.0978,-0.0784,-0.0547,-0.0301,-0.0199,-0.0194,0.0095,0.0469,0.0689,0.0691,0.0761,0.0789,0.0821,0.08,0.0828,0.084,0.0872,0.0882,0.0875,0.0947,0.1178,0.1459,0.1628,0.1572,0.1515,0.1572,0.1572,0.1628,0.1677,0.1705,0.1795,0.1956,0.1999,0.2098,0.2298,0.2513,0.2613,0.2706,0.2681,0.2648,0.2724,0.2801,0.2856,0.2913,0.2967,0.3021,0.2968,0.3023,0.3079,0.3078,0.3132,0.3189,0.3302,0.3359,0.3416,0.3471,0.3528,0.3528,-0.5072,-0.4893,-0.4845,-0.4799,-0.4799,-0.4799,-0.4799,-0.4799,-0.4799,-0.4845,-0.4891,-0.4893,-0.498,-0.5067,-0.5111,-0.5154,-0.5198,-0.5236,-0.5239,-0.5285,-0.5241,-0.5241,-0.5239,-0.5244,-0.5285,-0.5369,-0.5455,-0.5415,-0.5285,-0.5239,-0.5241,-0.5282,-0.5282,-0.5285,-0.5287,-0.5157,-0.5065,-0.484,-0.462,-0.4355,-0.4268,-0.3743,-0.3301,-0.295,-0.2819,-0.2684,-0.2593,-0.2683,-0.2594,-0.2368,-0.2233,-0.2148,-0.1972,-0.1753,-0.1537,-0.1294,-0.1147,-0.098,-0.0737,-0.05,-0.035,-0.0294,-0.0433,-0.0284,0.0139,0.0365,0.0505,0.0664,0.0774,0.0804,0.0847,0.0823,0.084,0.0879,0.0882,0.0882,0.0948,0.1233,0.1459,0.1628,0.1572,0.1572,0.1628,0.1628,0.1684,0.173,0.1769,0.1819,0.1926,0.201,0.2094,0.2264,0.246,0.2587,0.2674,0.2678,0.2698,0.2771,0.2876,0.2988,0.3081,0.3134,0.3189,0.319,0.3246,0.3246,0.3302,0.3303,0.3416,0.3471,0.3473,0.3528,0.3585,0.3585,0.3585,-0.5213,-0.5093,-0.5046,-0.5023,-0.499,-0.4985,-0.4985,-0.4985,-0.4985,-0.4985,-0.4985,-0.4985,-0.5026,-0.5152,-0.5152,-0.52,-0.529,-0.5274,-0.534,-0.5343,-0.5394,-0.5394,-0.5333,-0.5323,-0.5364,-0.5415,-0.5499,-0.5547,-0.5371,-0.5328,-0.541,-0.5366,-0.5328,-0.5417,-0.5545,-0.5417,-0.5455,-0.545,-0.5313,-0.5142,-0.4792,-0.4306,-0.3735,-0.3214,-0.3086,-0.2953,-0.2815,-0.2908,-0.2908,-0.2772,-0.2504,-0.2237,-0.2106,-0.1793,-0.1456,-0.1221,-0.1165,-0.0934,-0.0738,-0.0539,-0.0386,-0.0236,-0.0283,-0.0278,-0.0229,0.0046,0.0324,0.0617,0.0727,0.0792,0.0829,0.082,0.084,0.0877,0.0892,0.0945,0.1006,0.1178,0.1403,0.1515,0.1515,0.1628,0.1684,0.1628,0.1684,0.1739,0.1779,0.1773,0.1874,0.205,0.2131,0.233,0.2491,0.2537,0.2607,0.2685,0.2697,0.276,0.2939,0.3125,0.3219,0.3303,0.3359,0.3359,0.3416,0.3416,0.3473,0.3473,0.3528,0.353,0.3585,0.3585,0.3585,0.3585,0.364,-0.5609,-0.5445,-0.5303,-0.5148,-0.505,-0.4997,-0.499,-0.4985,-0.4985,-0.4985,-0.4985,-0.4985,-0.5029,-0.5029,-0.5026,-0.5113,-0.5242,-0.542,-0.5459,-0.5448,-0.5514,-0.5504,-0.5307,-0.5118,-0.5325,-0.5415,-0.5415,-0.5412,-0.5453,-0.5499,-0.5458,-0.5415,-0.5417,-0.5463,-0.5677,-0.5588,-0.558,-0.5663,-0.544,-0.5048,-0.4576,-0.4358,-0.401,-0.3663,-0.3488,-0.3445,-0.3309,-0.3357,-0.3399,-0.3353,-0.2998,-0.2684,-0.2461,-0.2242,-0.1976,-0.1581,-0.1181,-0.073,-0.069,-0.0555,-0.0416,-0.0229,-0.0137,-0.0271,-0.0365,-0.0186,0.0237,0.0668,0.0734,0.0753,0.0817,0.0811,0.084,0.0865,0.0882,0.0995,0.1113,0.1178,0.1347,0.1459,0.1515,0.1628,0.174,0.1684,0.1628,0.1738,0.1791,0.1783,0.1883,0.2066,0.2176,0.232,0.248,0.2526,0.2543,0.2575,0.2681,0.2742,0.2997,0.3195,0.329,0.3382,0.3528,0.353,0.3585,0.353,0.353,0.3585,0.3585,0.3585,0.3585,0.3585,0.3585,0.364,0.3638,-0.5807,-0.557,-0.5565,-0.544,-0.5212,-0.5155,-0.5086,-0.4999,-0.4985,-0.4985,-0.4985,-0.4985,-0.4985,-0.5029,-0.4985,-0.5031,-0.5091,-0.5267,-0.5338,-0.544,-0.5471,-0.5512,-0.5563,-0.5496,-0.5537,-0.5631,-0.572,-0.5758,-0.5755,-0.5712,-0.5669,-0.5677,-0.5677,-0.5763,-0.5849,-0.5804,-0.5844,-0.5884,-0.579,-0.5529,-0.5101,-0.4797,-0.4451,-0.3888,-0.3753,-0.3667,-0.3624,-0.358,-0.358,-0.3534,-0.3265,-0.2953,-0.264,-0.2284,-0.1971,-0.157,-0.1167,-0.0854,-0.0719,-0.0629,-0.0494,-0.045,-0.036,-0.05,-0.0603,-0.0283,0.0145,0.0493,0.0637,0.0746,0.0817,0.0815,0.0845,0.0869,0.088,0.0941,0.1059,0.1174,0.1291,0.1403,0.1515,0.1628,0.174,0.1684,0.1684,0.1795,0.185,0.1845,0.201,0.2219,0.2271,0.2316,0.2428,0.2489,0.2472,0.2487,0.2546,0.2676,0.3005,0.314,0.3299,0.3394,0.3484,0.3574,0.3584,0.3584,0.3585,0.3585,0.3585,0.3585,0.3585,0.3585,0.3585,0.364,0.3638,-0.5999,-0.566,-0.5748,-0.5546,-0.5219,-0.5312,-0.5262,-0.5082,-0.507,-0.5072,-0.5074,-0.5116,-0.5157,-0.52,-0.5198,-0.5198,-0.5249,-0.5257,-0.5368,-0.5446,-0.5551,-0.569,-0.5728,-0.5747,-0.5795,-0.5933,-0.5847,-0.5927,-0.5973,-0.5973,-0.5927,-0.6024,-0.589,-0.5976,-0.6019,-0.5976,-0.5976,-0.6107,-0.6187,-0.5927,-0.5494,-0.5226,-0.4753,-0.4232,-0.3882,-0.3704,-0.3622,-0.3488,-0.3488,-0.335,-0.3127,-0.2817,-0.2595,-0.2238,-0.1925,-0.1568,-0.1255,-0.0986,-0.0851,-0.0763,-0.0674,-0.0584,-0.0406,-0.0228,-0.0426,-0.0144,0.0144,0.0345,0.0584,0.0743,0.0814,0.081,0.0837,0.0865,0.0889,0.0894,0.0897,0.1122,0.1347,0.1515,0.1628,0.1628,0.1684,0.1684,0.174,0.1851,0.1906,0.1906,0.2128,0.2351,0.2335,0.2363,0.2383,0.2471,0.2391,0.2405,0.2462,0.2604,0.2927,0.306,0.3147,0.3271,0.3439,0.3472,0.3551,0.3584,0.3585,0.3585,0.3585,0.3585,0.3585,0.3585,0.3585,0.364,0.3692,-0.6162,-0.5849,-0.5699,-0.5417,-0.5067,-0.5351,-0.5357,-0.5198,-0.5193,-0.5244,-0.5331,-0.5412,-0.5539,-0.5663,-0.5539,-0.5539,-0.5717,-0.5993,-0.5961,-0.6015,-0.6174,-0.6071,-0.5986,-0.5884,-0.5841,-0.5881,-0.5967,-0.6053,-0.6136,-0.6181,-0.6099,-0.6019,-0.6019,-0.6059,-0.6105,-0.6107,-0.615,-0.6239,-0.6325,-0.6062,-0.5623,-0.527,-0.4879,-0.428,-0.3972,-0.3794,-0.3626,-0.3399,-0.3097,-0.2962,-0.2821,-0.2592,-0.246,-0.2149,-0.1835,-0.1568,-0.1299,-0.1075,-0.0941,-0.0763,-0.0584,-0.0315,-0.0045,0.0137,0.0,0.0143,0.0288,0.0242,0.053,0.0675,0.0785,0.0793,0.0824,0.0854,0.0882,0.0895,0.0953,0.1066,0.1291,0.1628,0.174,0.174,0.174,0.174,0.1794,0.1906,0.2017,0.2017,0.2241,0.2398,0.2373,0.2402,0.2393,0.2366,0.2274,0.2327,0.2443,0.2579,0.2767,0.2928,0.3021,0.3155,0.3358,0.3389,0.3464,0.3527,0.3584,0.3579,0.3577,0.3584,0.3585,0.3585,0.364,0.3692,0.3745,-0.6068,-0.5924,-0.588,-0.5682,-0.5388,-0.5629,-0.5535,-0.531,-0.5455,-0.5585,-0.5717,-0.5801,-0.5844,-0.5884,-0.5887,-0.5847,-0.5941,-0.6012,-0.6134,-0.6252,-0.6313,-0.6359,-0.6285,-0.6279,-0.6322,-0.6227,-0.6221,-0.6264,-0.6392,-0.6419,-0.6447,-0.6361,-0.6242,-0.6236,-0.6279,-0.6239,-0.6325,-0.6282,-0.6242,-0.5979,-0.5672,-0.527,-0.4879,-0.4414,-0.3926,-0.3764,-0.3592,-0.3251,-0.2862,-0.2647,-0.2665,-0.2512,-0.2278,-0.2058,-0.179,-0.1479,-0.1164,-0.1031,-0.0897,-0.0719,-0.0539,-0.027,-0.0135,-0.0046,0.019,0.0048,0.0145,0.0244,0.0434,0.0573,0.0791,0.0801,0.082,0.0849,0.0924,0.094,0.1008,0.1119,0.1289,0.1626,0.174,0.1741,0.1797,0.1797,0.1906,0.1959,0.2072,0.2183,0.2353,0.2451,0.2484,0.2448,0.2433,0.2451,0.2359,0.2412,0.2433,0.2568,0.2667,0.2809,0.2918,0.3107,0.3294,0.333,0.3384,0.3503,0.356,0.3604,0.3624,0.3633,0.3638,0.3585,0.364,0.3747,0.3799,-0.5964,-0.6006,-0.6049,-0.5914,-0.5741,-0.5903,-0.5805,-0.5701,-0.5801,-0.5973,-0.6142,-0.6145,-0.6187,-0.6233,-0.615,-0.6236,-0.6276,-0.6288,-0.637,-0.6502,-0.659,-0.6627,-0.6672,-0.6712,-0.6663,-0.6623,-0.6714,-0.6749,-0.6802,-0.678,-0.6762,-0.6749,-0.6664,-0.6544,-0.6407,-0.6413,-0.6413,-0.6325,-0.615,-0.5893,-0.5674,-0.5275,-0.4836,-0.4453,-0.4056,-0.3694,-0.3475,-0.3124,-0.2761,-0.2505,-0.2407,-0.238,-0.2148,-0.1876,-0.1609,-0.1297,-0.1031,-0.0897,-0.0764,-0.0675,-0.0494,-0.0135,-0.036,-0.0137,-0.0,-0.0141,0.0142,0.0288,0.0379,0.0475,0.0784,0.0784,0.0802,0.0828,0.0841,0.0856,0.099,0.1111,0.1395,0.1679,0.1738,0.1797,0.1852,0.1908,0.2018,0.2128,0.2297,0.2409,0.2465,0.2555,0.256,0.2517,0.2524,0.2483,0.2483,0.252,0.2515,0.2476,0.2612,0.2723,0.2877,0.306,0.3197,0.3261,0.3318,0.3428,0.353,0.3522,0.3631,0.3681,0.3687,0.3692,0.3803,0.3856,0.3855,-0.5858,-0.6024,-0.6122,-0.6076,-0.5943,-0.6195,-0.6283,-0.6251,-0.619,-0.631,-0.6477,-0.6477,-0.6611,-0.6741,-0.6614,-0.6614,-0.6741,-0.6686,-0.6735,-0.6833,-0.6829,-0.6793,-0.679,-0.6829,-0.6872,-0.6943,-0.7077,-0.7163,-0.7247,-0.7276,-0.7238,-0.7074,-0.6959,-0.6702,-0.6523,-0.645,-0.6413,-0.637,-0.611,-0.5893,-0.5631,-0.5275,-0.4751,-0.4449,-0.4058,-0.3687,-0.3462,-0.2982,-0.262,-0.2323,-0.2261,-0.2154,-0.1837,-0.1612,-0.1388,-0.112,-0.0853,-0.0764,-0.0719,-0.0719,-0.0494,-0.018,-0.036,-0.0316,-0.0271,-0.009,0.0227,0.0371,0.0411,0.0589,0.0735,0.0751,0.0782,0.0801,0.0815,0.0889,0.1023,0.1096,0.1374,0.1618,0.1738,0.1797,0.1908,0.1963,0.2129,0.2297,0.2522,0.2635,0.2635,0.2618,0.2633,0.2616,0.2616,0.2669,0.2624,0.2562,0.2553,0.2508,0.2561,0.2724,0.2795,0.2902,0.3037,0.3175,0.3271,0.3402,0.3473,0.3492,0.3632,0.3721,0.3773,0.3798,0.3909,0.4021,0.4021,-0.5801,-0.5884,-0.6096,-0.6139,-0.6113,-0.6275,-0.6307,-0.6285,-0.6349,-0.6559,-0.682,-0.6911,-0.7002,-0.7044,-0.7041,-0.6992,-0.7115,-0.6982,-0.6985,-0.7083,-0.6992,-0.6943,-0.6943,-0.6904,-0.6946,-0.7068,-0.7264,-0.7478,-0.7561,-0.7595,-0.7679,-0.7551,-0.7121,-0.6797,-0.6565,-0.6486,-0.6447,-0.6325,-0.6024,-0.5763,-0.5631,-0.5145,-0.4663,-0.4412,-0.393,-0.3612,-0.3494,-0.2945,-0.244,-0.2198,-0.2184,-0.1975,-0.1659,-0.1389,-0.121,-0.0942,-0.0719,-0.0719,-0.0719,-0.0675,-0.0629,-0.045,-0.027,-0.0315,-0.0494,-0.0135,0.0135,0.036,0.045,0.0584,0.068,0.0749,0.0822,0.078,0.0846,0.0929,0.1008,0.107,0.1242,0.1496,0.1684,0.1795,0.1906,0.2075,0.2241,0.2353,0.2578,0.2635,0.2635,0.2691,0.2723,0.2772,0.2788,0.2783,0.282,0.273,0.2695,0.2732,0.2732,0.283,0.2855,0.2879,0.2956,0.3085,0.3223,0.3317,0.3427,0.3534,0.3677,0.379,0.3798,0.3908,0.399,0.4114,0.4189,-0.5628,-0.5752,-0.6013,-0.6187,-0.6224,-0.6322,-0.6361,-0.6389,-0.6517,-0.6729,-0.6937,-0.7031,-0.708,-0.7122,-0.7164,-0.7251,-0.737,-0.7157,-0.707,-0.7209,-0.7118,-0.7031,-0.6989,-0.6985,-0.6979,-0.7104,-0.7342,-0.7565,-0.7619,-0.7803,-0.7701,-0.7507,-0.7258,-0.6871,-0.6609,-0.6483,-0.6441,-0.6233,-0.5936,-0.5631,-0.5412,-0.4973,-0.4535,-0.4186,-0.3803,-0.3478,-0.33,-0.2883,-0.2309,-0.2206,-0.2056,-0.184,-0.1524,-0.1255,-0.1076,-0.0809,-0.0719,-0.0719,-0.0719,-0.0719,-0.0675,-0.0675,-0.027,-0.018,-0.036,-0.0135,0.0135,0.036,0.045,0.0591,0.069,0.0807,0.0762,0.077,0.0827,0.0908,0.1052,0.1115,0.1286,0.1541,0.1684,0.185,0.1961,0.2185,0.2353,0.2521,0.2635,0.2691,0.2691,0.2748,0.279,0.289,0.2908,0.2933,0.2906,0.2875,0.2853,0.2915,0.2911,0.2911,0.2914,0.2892,0.294,0.299,0.3099,0.3244,0.3408,0.3551,0.3651,0.3733,0.3816,0.3929,0.4039,0.4197,0.4333,-0.5415,-0.5534,-0.5933,-0.6105,-0.6184,-0.6276,-0.6489,-0.6686,-0.6686,-0.6807,-0.6985,-0.6816,-0.6904,-0.7125,-0.707,-0.7154,-0.7293,-0.7167,-0.7167,-0.7125,-0.7083,-0.6999,-0.6956,-0.6953,-0.694,-0.7078,-0.7338,-0.7565,-0.7613,-0.7719,-0.7565,-0.7341,-0.7191,-0.6869,-0.6645,-0.6523,-0.6395,-0.6099,-0.5847,-0.5542,-0.528,-0.4838,-0.4401,-0.4052,-0.3707,-0.3361,-0.3112,-0.2652,-0.2381,-0.2209,-0.1977,-0.1704,-0.1434,-0.121,-0.0987,-0.0809,-0.0719,-0.0719,-0.0719,-0.0719,-0.0719,-0.0629,-0.027,-0.009,-0.0,-0.0,0.0225,0.0406,0.0544,0.065,0.0805,0.0758,0.0759,0.076,0.0852,0.094,0.1095,0.1223,0.1446,0.1636,0.1728,0.1906,0.2073,0.2297,0.252,0.2632,0.2745,0.2746,0.2802,0.2805,0.289,0.3038,0.304,0.3008,0.2985,0.2978,0.29,0.2911,0.2911,0.2911,0.2911,0.2914,0.293,0.2983,0.302,0.3133,0.3309,0.3435,0.3584,0.3651,0.3721,0.3928,0.4055,0.4311,0.4462,-0.5062,-0.5277,-0.5461,-0.5585,-0.5709,-0.5927,-0.6221,-0.6663,-0.6702,-0.6751,-0.6787,-0.6862,-0.6859,-0.6999,-0.6953,-0.6992,-0.6992,-0.6995,-0.696,-0.6917,-0.6872,-0.6839,-0.6797,-0.6751,-0.6826,-0.6999,-0.7241,-0.7435,-0.7654,-0.7699,-0.7804,-0.7675,-0.728,-0.6962,-0.6691,-0.6562,-0.6264,-0.5967,-0.5669,-0.5407,-0.5147,-0.4751,-0.427,-0.3875,-0.3615,-0.3265,-0.2911,-0.251,-0.2288,-0.2155,-0.1929,-0.1659,-0.1434,-0.121,-0.0986,-0.0764,-0.0719,-0.0719,-0.0719,-0.0719,-0.0675,-0.0586,-0.027,0.0,0.0,0.018,0.036,0.05,0.06,0.0756,0.0822,0.0778,0.0782,0.0834,0.0881,0.0951,0.1101,0.1224,0.1449,0.1704,0.1852,0.2129,0.2296,0.2408,0.2632,0.2799,0.2911,0.2912,0.2913,0.2971,0.2991,0.3136,0.3136,0.3054,0.3064,0.3013,0.2929,0.2911,0.2912,0.2914,0.2911,0.2916,0.293,0.302,0.3099,0.3135,0.3184,0.3356,0.3575,0.3564,0.364,0.3885,0.411,0.4316,0.452,-0.4755,-0.5062,-0.5241,-0.5458,-0.5712,-0.5841,-0.6102,-0.6364,-0.637,-0.6325,-0.645,-0.6441,-0.6523,-0.6617,-0.6529,-0.6565,-0.6683,-0.6696,-0.6705,-0.6699,-0.6614,-0.6529,-0.6489,-0.6407,-0.6355,-0.6557,-0.6699,-0.6821,-0.7296,-0.7812,-0.7974,-0.7478,-0.7254,-0.6983,-0.6634,-0.6358,-0.601,-0.5752,-0.5494,-0.5229,-0.4968,-0.4622,-0.4138,-0.3656,-0.3442,-0.309,-0.269,-0.2288,-0.2244,-0.211,-0.1885,-0.1569,-0.1344,-0.1121,-0.0897,-0.0719,-0.0719,-0.0719,-0.0721,-0.0688,-0.0684,-0.0545,-0.0228,0.0,0.0,0.0315,0.0501,0.0647,0.0708,0.0772,0.0789,0.0805,0.0814,0.0874,0.0924,0.0974,0.1096,0.1222,0.1467,0.1781,0.2076,0.2352,0.2519,0.2628,0.2799,0.3023,0.3135,0.3135,0.3135,0.3136,0.3201,0.3236,0.3179,0.3109,0.3075,0.3036,0.2955,0.2936,0.2881,0.2879,0.2916,0.296,0.3015,0.3142,0.3219,0.326,0.3304,0.3435,0.3572,0.3574,0.3562,0.3804,0.4052,0.4277,0.4476,-0.4473,-0.4828,-0.521,-0.555,-0.589,-0.5893,-0.5933,-0.5938,-0.5763,-0.5761,-0.593,-0.5806,-0.593,-0.6145,-0.6105,-0.6142,-0.6307,-0.6401,-0.6404,-0.6438,-0.631,-0.6224,-0.6096,-0.5924,-0.597,-0.5881,-0.5967,-0.6419,-0.683,-0.7293,-0.7513,-0.7072,-0.7168,-0.6979,-0.6558,-0.6337,-0.5966,-0.5505,-0.5352,-0.5159,-0.4718,-0.4316,-0.3965,-0.3304,-0.2998,-0.2734,-0.2376,-0.2199,-0.2201,-0.202,-0.1749,-0.1434,-0.1166,-0.0987,-0.0764,-0.0719,-0.0719,-0.0726,-0.0732,-0.07,-0.0608,-0.042,-0.014,0.0141,0.0326,0.0367,0.0511,0.0711,0.0775,0.0851,0.0873,0.0835,0.0845,0.0903,0.0956,0.1064,0.1182,0.1412,0.181,0.2062,0.2214,0.2481,0.2919,0.3016,0.3058,0.3284,0.3436,0.3432,0.3437,0.3436,0.3344,0.3325,0.3213,0.3152,0.3065,0.3032,0.2968,0.2922,0.2944,0.3007,0.3064,0.3131,0.3142,0.3225,0.335,0.3352,0.3396,0.3527,0.3527,0.3493,0.3529,0.3663,0.3919,0.4248,0.4497,-0.4153,-0.4606,-0.5044,-0.5331,-0.5455,-0.5461,-0.5461,-0.5461,-0.5374,-0.5496,-0.5793,-0.5795,-0.5758,-0.5761,-0.5761,-0.5801,-0.5849,-0.5976,-0.5979,-0.5979,-0.5933,-0.5887,-0.5801,-0.5717,-0.5685,-0.5761,-0.5888,-0.6177,-0.6714,-0.7065,-0.7339,-0.7369,-0.7337,-0.6996,-0.6588,-0.6342,-0.5934,-0.5288,-0.515,-0.4967,-0.4504,-0.4182,-0.3829,-0.3347,-0.2997,-0.2684,-0.2373,-0.2198,-0.2019,-0.1794,-0.1569,-0.1256,-0.0853,-0.0764,-0.0719,-0.0719,-0.0676,-0.0733,-0.0702,-0.0669,-0.0579,-0.0145,0.0146,0.0341,0.0435,0.0428,0.0524,0.073,0.0849,0.088,0.0905,0.0863,0.0872,0.0929,0.0986,0.1155,0.127,0.1713,0.2107,0.2263,0.2408,0.2733,0.3146,0.3328,0.3355,0.3444,0.3617,0.3701,0.377,0.3776,0.3517,0.3445,0.3293,0.3187,0.3147,0.3064,0.2994,0.305,0.3069,0.3152,0.3247,0.3262,0.3263,0.3368,0.3442,0.3486,0.3486,0.3532,0.3532,0.3486,0.3547,0.3684,0.3999,0.4313,0.4556,-0.3927,-0.4276,-0.4673,-0.4842,-0.4893,-0.4975,-0.4973,-0.4975,-0.4886,-0.5019,-0.5323,-0.5453,-0.5407,-0.5325,-0.541,-0.5461,-0.542,-0.5461,-0.5547,-0.555,-0.5504,-0.5504,-0.5461,-0.5466,-0.552,-0.5582,-0.5991,-0.6354,-0.6638,-0.7077,-0.7358,-0.73,-0.7187,-0.6893,-0.6521,-0.6195,-0.5753,-0.5117,-0.4996,-0.465,-0.4242,-0.393,-0.3654,-0.3214,-0.2907,-0.2598,-0.2372,-0.2196,-0.2019,-0.1749,-0.1434,-0.1122,-0.0809,-0.0719,-0.0675,-0.0634,-0.0641,-0.0654,-0.0575,-0.054,-0.0449,0.0,0.0762,0.107,0.06,0.0594,0.0757,0.0926,0.0876,0.0902,0.087,0.0884,0.0886,0.0888,0.1055,0.1169,0.1601,0.2136,0.2488,0.2731,0.2881,0.3065,0.3394,0.3609,0.3646,0.3945,0.4042,0.3935,0.4041,0.4025,0.3815,0.3617,0.346,0.3412,0.3363,0.3226,0.3055,0.3116,0.3194,0.3252,0.3327,0.3347,0.3386,0.3516,0.3573,0.3575,0.3575,0.3621,0.3578,0.3534,0.3638,0.3708,0.404,0.4384,0.4689,-0.3646,-0.3882,-0.4232,-0.4412,-0.441,-0.4535,-0.4615,-0.4618,-0.4493,-0.4502,-0.4679,-0.4978,-0.4884,-0.4927,-0.4927,-0.498,-0.5026,-0.5154,-0.5198,-0.5152,-0.5104,-0.5154,-0.52,-0.5123,-0.5281,-0.5565,-0.5942,-0.6136,-0.6295,-0.6743,-0.6975,-0.6959,-0.6789,-0.6584,-0.6151,-0.5726,-0.5285,-0.4892,-0.4602,-0.4243,-0.3919,-0.3645,-0.3388,-0.307,-0.275,-0.2533,-0.236,-0.222,-0.2043,-0.1669,-0.1308,-0.0988,-0.0809,-0.072,-0.0636,-0.0595,-0.0701,-0.0526,-0.0344,-0.0508,-0.0205,0.0309,0.1262,0.1467,0.0923,0.0827,0.1001,0.0955,0.0904,0.0859,0.088,0.0887,0.0889,0.0941,0.1107,0.1327,0.1909,0.2427,0.2733,0.3042,0.3175,0.332,0.3625,0.3844,0.4012,0.4323,0.4377,0.4272,0.4156,0.4177,0.4056,0.3883,0.3781,0.3723,0.3581,0.3439,0.3217,0.33,0.3379,0.3363,0.3414,0.3527,0.3626,0.3636,0.3658,0.366,0.3706,0.375,0.3707,0.3667,0.3674,0.3792,0.4207,0.4554,0.4853,-0.3318,-0.3699,-0.414,-0.4322,-0.4408,-0.4532,-0.4615,-0.4574,-0.4449,-0.4322,-0.4274,-0.4453,-0.4675,-0.5033,-0.4723,-0.4679,-0.4803,-0.4888,-0.4888,-0.4888,-0.4842,-0.4937,-0.5013,-0.5068,-0.5179,-0.5462,-0.5818,-0.5963,-0.6129,-0.6327,-0.6447,-0.6536,-0.6291,-0.6149,-0.6014,-0.5536,-0.507,-0.4655,-0.4259,-0.3925,-0.3495,-0.3304,-0.3248,-0.2962,-0.254,-0.2497,-0.2425,-0.2247,-0.1942,-0.1589,-0.1151,-0.0866,-0.0729,-0.0686,-0.0694,-0.0614,-0.0674,-0.0395,-0.0305,-0.036,-0.0,0.0623,0.1363,0.1557,0.1185,0.0992,0.1005,0.0955,0.0905,0.0909,0.0923,0.0969,0.0967,0.1113,0.1266,0.1577,0.2032,0.2351,0.2689,0.2898,0.3139,0.351,0.3998,0.4088,0.4082,0.4328,0.4564,0.4455,0.4312,0.4289,0.4251,0.4155,0.4057,0.3864,0.368,0.3615,0.3488,0.3528,0.3519,0.3498,0.3524,0.38,0.3832,0.3732,0.3746,0.3792,0.3836,0.3836,0.3838,0.3796,0.3702,0.3833,0.4247,0.4603,0.4883]}]]